     2              OBSERVATION DATA    GPS                 RINEX VERSION / TYPE
teqc 2000Jul20 Karen Wendt 20030613 20:52:19UTC             PGM / RUN BY / DATE
                                                            COMMENT
L2: 1 -> 1; 150 -> 5; 250 -> 9                              COMMENT
L2: 1 -> 1; 150 -> 5; 250 -> 9                              COMMENT
L2: 1 -> 1; 150 -> 5; 250 -> 9                              COMMENT
L2: 1 -> 1; 150 -> 5; 250 -> 9                              COMMENT
L2: 1 -> 1; 150 -> 5; 250 -> 9                              COMMENT
L2: 1 -> 1; 150 -> 5; 250 -> 9                              COMMENT
L2: 1 -> 1; 150 -> 5; 250 -> 9                              COMMENT
L2: 1 -> 1; 150 -> 5; 250 -> 9                              COMMENT
L2: 1 -> 1; 150 -> 5; 250 -> 9                              COMMENT
L2: 1 -> 1; 150 -> 5; 250 -> 9                              COMMENT
L2: 1 -> 1; 150 -> 5; 250 -> 9                              COMMENT
L2: 1 -> 1; 150 -> 5; 250 -> 9                              COMMENT
L2: 1 -> 1; 150 -> 5; 250 -> 9                              COMMENT
L2: 1 -> 1; 150 -> 5; 250 -> 9                              COMMENT
Original Marker Name: g165 G_165_1933_USCGS                 COMMENT
Campaign Name: USGS Death Valley 2003                       COMMENT
4-Character Station Name: G165                              COMMENT
6-Character Antenna Code: DMRCHT                            COMMENT
Vertical Measurement Point: BCR                             COMMENT
Vertical Offset to Rinex Ref. Point: 0.0348                 COMMENT
Radial Measurement Point: ECF                               COMMENT
Radial Offset to Rinex Ref. Point: 0.1897                   COMMENT
Antenna Height from Field Measurement: 0.4460 m             COMMENT
Additional Antenna Identification Info.:                    COMMENT
Turborogue and Ashtech Choke Ring                           COMMENT
Original XYZ: -2346128.0791 -4562815.5338 3776929.9497      COMMENT
New XYZ position is based on association with SCEC monument COMMENT
E1G0B9O3+0011. Position of that monument is believed to be  COMMENT
valid to within 1 m horizontally; vertical accuracy         COMMENT
should be no worse than 3-times this value.                 COMMENT
                                                            COMMENT
Revised Rinex header created by UCSD GPS archive for        COMMENT
GSAC on 20-Apr-2005 (2005:110) 16:32:50 GMT                 COMMENT
For assistance contact dagnew@ucsd.edu                      COMMENT
or anderson@python.ucsd.edu                                 COMMENT
                                                            COMMENT
G165 1933                                                   MARKER NAME
JMS US GEOLOGICAL SURVEY                                    OBSERVER / AGENCY
LP00108.707 ASHTECH Z-XII3 CD00                             REC # / TYPE / VERS
CR14244 DORNE-MARGOL. TYPE T                                ANT # / TYPE
 -2346148.0000 -4562802.0000  3776924.0000                  APPROX POSITION XYZ
        0.3688        0.0000        0.0000                  ANTENNA: DELTA H/E/N
     1     1     0                                          WAVELENGTH FACT L1/2
     5    C1    L1    L2    P1    P2                        # / TYPES OF OBSERV
    30                                                      INTERVAL
  2003     6     7    16    19    0.000000                  TIME OF FIRST OBS
  2003     6     7    22    30   30.000000                  TIME OF LAST OBS
                                                            END OF HEADER
 03  6  7 16 19  0.0000000  0  5G10G30G21G 6G17
  22346305.952      260935.83549    186202.18047  22346304.825    22346310.972
  22740637.637      287494.85749    206843.31846  22740637.734    22740644.159
  21699123.456      -67545.18449    -49278.45647  21699122.530    21699126.981
  20534381.165        4305.08749      3127.41648  20534380.574    20534385.684
  21172087.648       -2935.13849     -1814.12547  21172086.759    21172092.805
 03  6  7 16 19 29.9990000  0  9G10G30G21G29G16G 6G17G26G18
  22066573.901      366355.87449    268347.63647  22066573.080    22066579.254
  22463083.902      404361.46549    297908.15646  22463084.180    22463090.718
  21394528.762      -92782.10749    -68943.56247  21394527.647    21394532.172
  23021472.401      -57981.46649    -39168.12546  23021472.836    23021479.558
                   -148874.67049   -101508.75743                  20235032.340
                      6634.95649      4942.90948  20235031.489    20235036.605
  20872153.110       -3681.48649     -2395.68047  20872152.220    20872158.343
  22939305.292     -203524.19949   -144742.01645  22939304.359    22939311.697
  23516527.956     -265979.11549   -187450.24845  23516527.058    23516533.502
 03  6  7 16 20  0.0000000  0 10G15G10G30G21G29G16G 6G17G26G18
  24387269.310    -1244601.73349   -960814.01545  24387267.986    24387276.573
  22184865.309     -587437.97649   -474868.37647  22184864.578    22184870.788
  22583532.213     -538099.34949   -436476.94246  22583532.436    22583538.870
  21487930.980    -1177369.30649   -914076.41647  21487929.976    21487934.516
  23115143.821    -1141156.51549   -883200.57446  23115144.239    23115150.521
                  -1265109.04649   -971301.77845  24493691.344    20333716.640
                  -1050195.53549   -818561.36248  20333715.782    20333720.917
  20970217.553    -1063768.90049   -828437.80947  20970216.731    20970222.878
  23025263.268    -1327226.98149  -1020354.49246  23025263.112    23025270.571
  23598831.573    -1408890.21349  -1078030.21445  23598830.710    23598837.124
 03  6  7 16 20 30.0000000  0 10G15G10G30G21G29G16G 6G17G26G18
  24371761.490    -1326098.02349  -1024317.51845  24371760.082    24371768.061
  22200992.889     -502687.46649   -408829.03947  22200992.063    22200998.318
  22601794.812     -442129.85349   -361695.57046  22601794.902    22601801.298
  21479144.925    -1223539.85049   -950053.43547  21479144.028    21479148.581
  23106666.331    -1185708.46349   -917916.33246  23106666.238    23106672.549
  24478909.740    -1342761.73249  -1031810.32345  24478908.844    24478916.057
  20330248.558    -1068419.30849   -832761.69648  20330247.892    20330253.072
  20966095.260    -1085431.61449   -845317.82947  20966094.445    20966100.628
  23009043.693    -1412462.47149  -1086771.68446  23009043.450    23009050.729
  23578941.387    -1513413.77249  -1159477.03445  23578940.499    23578946.873
 03  6  7 16 21  0.0000000  0 10G15G10G30G21G29G16G 6G17G26G18
  24356270.824    -1407500.72349  -1087748.08845  24356269.156    24356277.783
  22217184.234     -417601.71049   -342528.48146  22217183.294    22217189.642
  22620099.538     -345939.06649   -286741.75446  22620099.461    22620105.848
  21470398.394    -1269502.99249   -985868.84047  21470397.493    21470402.119
  23098267.778    -1229843.76849   -952307.43746  23098267.572    23098273.851
  24464203.928    -1420040.37149  -1092027.39445  24464202.905    24464209.506
  20326856.654    -1086243.50249   -846650.67748  20326856.060    20326861.282
  20962014.088    -1106878.35649   -862029.56747  20962013.250    20962019.479
  22992873.490    -1497437.34849  -1152985.77846  22992873.235    22992880.552
  23559085.179    -1617758.12749  -1240784.21845  23559084.345    23559090.778
 03  6  7 16 21 30.0000000  0 10G15G10G30G21G29G16G 6G17G26G18
  24340797.872    -1488809.56249  -1151105.52045  24340796.607    24340805.342
  22233438.875     -332183.43949   -275968.81646  22233437.881    22233444.295
  22638445.718     -249529.77749   -211617.67946  22638445.640    22638452.026
  21461691.281    -1315258.76649  -1021522.66147  21461690.411    21461695.079
  23089948.887    -1273560.36849   -986372.29046  23089948.521    23089954.840
  24449569.978    -1496942.29549  -1151950.90945  24449569.355    24449575.733
  20323541.124    -1103666.42649   -860226.97448  20323540.566    20323545.827
  20957973.838    -1128109.82449   -878573.55347  20957973.007    20957979.307
  22976753.630    -1582147.83849  -1218993.87146  22976753.414    22976760.722
  23539263.477    -1721921.08549  -1321950.05245  23539262.708    23539269.156
 03  6  7 16 22  0.0000000  0 10G15G10G30G21G29G16G 6G17G26G18
  24325342.648    -1570025.37949  -1214390.43945  24325341.347    24325350.391
  22249756.027     -246436.19649   -209152.81046  22249755.035    22249761.536
  22656832.753     -152905.96749   -136326.45146  22656832.661    22656838.992
  21453023.514    -1360808.13649  -1057015.65347  21453022.671    21453027.348
  23081709.847    -1316856.68249  -1020109.63646  23081709.535    23081715.887
  24435008.096    -1573466.15049  -1211579.86145  24435007.546    24435013.971
  20320302.108    -1120687.33649   -873490.01648  20320301.588    20320306.868
  20953974.378    -1149126.98849   -894950.55247  20953973.576    20953979.880
  22960684.489    -1666590.98549  -1284793.62645  22960684.319    22960691.660
  23519476.559    -1825901.48949  -1402973.62345  23519475.736    23519482.332
 03  6  7 16 22 30.0000000  0 10G15G10G30G21G29G16G 6G17G26G18
  24309905.106    -1651147.73949  -1277602.49645  24309903.724    24309913.290
  22266135.307     -160362.63049   -142082.53346  22266134.326    22266140.862
  22675260.105      -56070.25249    -60870.08046  22675259.994    22675266.295
  21444395.073    -1406151.00449  -1092347.73147  21444394.235    21444398.909
  23073551.324    -1359730.09049  -1053517.45646  23073550.993    23073557.348
  24420518.540    -1649609.57249  -1270912.38445  24420517.918    24420524.375
  20317139.894    -1137304.79249   -886438.67348  20317139.387    20317144.654
  20950015.715    -1169929.95449   -911160.64347  20950014.897    20950021.243
  22944666.957    -1750763.29149  -1350382.35645  22944666.798    22944674.172
  23499724.850    -1929696.78249  -1483852.96745  23499724.080    23499730.757
 03  6  7 16 23  0.0000000  0 10G15G10G30G21G29G16G 6G17G26G18
  24294485.760    -1732177.23249  -1340742.27845  24294484.478    24294493.783
  22282576.006      -73966.40449    -74760.82246  22282575.004    22282581.574
  22693727.014       40973.45049     14748.33946  22693726.860    22693733.122
  21435805.681    -1451288.44949  -1127519.74347  21435804.901    21435809.492
  23065473.500    -1402179.10649  -1086594.57046  23065473.176    23065479.578
  24406101.475    -1725370.90549  -1329947.15045  24406100.878    24406107.367
  20314054.612    -1153518.13849   -899072.44148  20314054.133    20314059.396
  20946097.559    -1190520.23349   -927205.00447  20946096.739    20946103.068
  22928701.424    -1834661.89049  -1415757.78645  22928701.311    22928708.653
  23480008.415    -2033306.00349  -1564587.31145  23480007.749    23480014.528
 03  6  7 16 23 30.0000000  0 10G15G10G30G21G29G16G 6G17G26G18
  24279083.995    -1813113.80949  -1403809.66845  24279082.731    24279092.079
  22299077.542       12749.75149     -7189.82946  22299076.531    22299083.174
  22712232.818      138222.01149     90526.40546  22712232.708    22712238.992
  21427255.352    -1496220.90949  -1162532.02047  21427254.540    21427259.087
  23057476.826    -1444201.82349  -1119339.49446  23057476.481    23057482.977
  24391757.605    -1800748.02249  -1388682.53845  24391757.148    24391763.606
  20311046.483    -1169325.90949   -911390.17748  20311045.995    20311051.310
  20942219.877    -1210897.84949   -943083.65047  20942219.053    20942225.334
  22912788.844    -1918283.38749  -1480917.32646  22912788.716    22912795.936
  23460327.989    -2136727.14449  -1645175.11145  23460327.284    23460334.000
 03  6  7 16 24  0.0000000  0 10G15G10G30G21G29G16G 6G17G26G18
  24263700.061    -1893957.43849  -1466804.56245  24263698.821    24263708.132
  22315639.439       99782.99249     60628.25446  22315638.415    22315645.122
  22730777.069      235672.41749    166461.74046  22730777.000    22730783.261
  21418744.166    -1540947.56049  -1197383.93647  21418743.353    21418747.845
  23049561.812    -1485795.83449  -1151750.35346  23049561.390    23049567.977
  24377487.331    -1875738.38649  -1447116.54445  24377486.957    24377493.213
  20308115.774    -1184726.69349   -923390.78748  20308115.304    20308120.652
  20938382.543    -1231063.40249   -958797.05347  20938381.710    20938387.954
  22896929.613    -2001624.18149  -1545858.11546  22896929.495    22896936.639
  23440683.717    -2239957.99249  -1725614.63045  23440683.043    23440689.755
 03  6  7 16 24 30.0000000  0 10G15G10G30G21G29G16G 6G17G26G18
  24248333.559    -1974709.38849  -1529728.00545  24248332.459    24248341.552
  22332260.836      187129.09849    128690.13146  22332259.838    22332266.557
  22749358.911      333320.52149    242551.11746  22749358.847    22749365.172
  21410271.815    -1585470.15849  -1232076.84247  21410271.018    21410275.436
  23041728.478    -1526960.34249  -1183826.55546  23041728.044    23041734.619
  24363290.925    -1950341.41649  -1505248.76745  24363290.595    24363296.734
  20305262.550    -1199720.45549   -935074.23048  20305262.110    20305267.492
  20934585.271    -1251018.41049   -974346.40247  20934584.439    20934590.646
  22881124.181    -2084682.08249  -1610578.47746  22881124.077    22881131.240
  23421075.788    -2342998.01149  -1805905.45145  23421075.167    23421081.868
 03  6  7 16 25  0.0000000  0 10G15G10G30G21G29G16G 6G17G26G18
  24232984.781    -2055368.75249  -1592579.36445  24232983.804    24232992.475
  22348941.449      274785.90349    196994.09846  22348940.420    22348947.130
  22767977.928      431164.08849    318792.81946  22767977.887    22767984.249
  21401838.403    -1629788.01649  -1266610.21747  21401837.596    21401842.014
  23033977.443    -1567692.31249  -1215565.70046  23033977.029    23033983.640
  24349168.497    -2024555.71949  -1563077.87744  24349167.659
  20302487.212    -1214304.86949   -946438.71148  20302486.781    20302492.170
  20930828.076    -1270762.57249   -989731.44947  20930827.260    20930833.449
  22865373.552    -2167452.58049  -1675074.89546  22865373.371    22865380.529
  23401504.822    -2445844.30649  -1886045.31745  23401504.136    23401510.810
 03  6  7 16 25 30.0000000  0 10G15G10G30G21G29G16G 6G17G26G18
  24217653.756    -2135935.60249  -1655358.65545  24217652.727    24217660.904
  22365680.668      362750.62449    265538.00646  22365679.622    22365686.288
  22786633.553      529199.76449    395184.18946  22786633.521    22786639.939
  21393443.842    -1673901.41449  -1300984.27747  21393443.088    21393447.479
  23026309.056    -1607989.69349  -1246966.22546  23026308.648    23026315.236
  24335121.224    -2098375.41849  -1620599.24844  24335119.654    24335123.918
  20299790.024    -1228478.80149   -957483.31948  20299789.598    20299794.976
  20927110.919    -1290296.31749  -1004952.53447  20927110.103    20927116.305
  22849678.147    -2249932.47749  -1739344.85546  22849677.997    22849685.081
  23381971.054    -2548494.84949  -1966032.64945  23381970.399    23381977.038
 03  6  7 16 26  0.0000000  0 10G15G10G30G21G29G16G 6G17G26G18
  24202340.218    -2216409.52449  -1718065.57445  24202339.278    24202346.876
  22382477.897      451020.38549    334319.60846  22382476.864    22382483.482
  22805325.181      627424.60749    471723.02346  22805325.132    22805331.606
  21385088.234    -1717810.68949  -1335199.25847  21385087.452    21385091.829
  23018723.670    -1647850.38249  -1278026.45446  23018723.420    23018729.923
  24321149.066    -2171800.36949  -1677813.55344  24321147.838    24321152.867
  20297171.249    -1242240.93449   -968207.05948  20297170.821    20297176.143
  20923433.735    -1309619.95849  -1020009.91347  20923432.929    20923439.147
  22834038.611    -2332118.31749  -1803385.69346  22834038.504    22834045.655
  23362474.935    -2650947.82449  -2045866.04545  23362474.236    23362480.844
 03  6  7 16 26 30.0000000  0 10G15G10G30G21G29G16G 6G17G26G18
  24187044.223    -2296790.36849  -1780699.93145  24187043.419    24187050.807
  22399332.739      539592.87149    403337.08746  22399331.685    22399338.302
  22824052.234      725836.03549    548407.15546  22824052.228    22824058.730
  21376771.677    -1761514.54249  -1369254.20647  21376770.900    21376775.273
  23011222.119    -1687271.88349  -1308744.48146  23011221.812    23011228.210
  24307252.414    -2244827.86449  -1734718.08444  24307251.610    24307256.753
  20294631.134    -1255589.49249   -978608.51148  20294630.709    20294636.010
  20919796.604    -1328733.34949  -1034903.45447  20919795.787    20919802.025
  22818455.934    -2414006.08849  -1867194.25146  22818455.772    22818462.838
  23343016.748    -2753200.99949  -2125543.73346  23343016.066    23343022.738
 03  6  7 16 27  0.0000000  0 10G15G10G30G21G29G16G 6G17G26G18
  24171765.941    -2377077.95149  -1843261.57745  24171765.095    24171772.496
  22416244.554      628465.21449    472588.22946  22416243.537    22416250.098
  22842814.246      824430.90049    625234.28146  22842814.299    22842820.832
  21368493.908    -1805014.60649  -1403150.32147  21368493.130    21368497.497
  23003804.562    -1726251.94449  -1339118.50946  23003804.168    23003810.541
  24293432.044    -2317455.63449  -1791311.06544  24293431.126    24293436.631
  20292169.973    -1268523.13149   -988686.66048  20292169.543    20292174.836
  20916199.304    -1347637.17349  -1049633.69347  20916198.517    20916204.792
  22802930.627    -2495592.22449  -1930767.78246  22802930.430    22802937.495
  23323596.944    -2855252.09449  -2205063.97046  23323596.350    23323603.032
 03  6  7 16 27 30.0000000  0 10G15G10G30G21G29G16G 6G17G26G18
  24156505.196    -2457272.05449  -1905750.37345  24156504.371    24156512.153
  22433213.160      717635.61349    542071.84546  22433212.090    22433218.771
  22861610.615      923206.17149    702201.94746  22861610.656    22861617.236
  21360254.921    -1848310.65549  -1436887.47547  21360254.164    21360258.559
  22996470.933    -1764789.74249  -1369148.14046  22996470.575    22996476.962
  24279688.243    -2389680.55149  -1847589.92745  24279687.492    24279693.012
  20289787.947    -1281040.64049   -998440.55348  20289787.522    20289792.867
  20912641.878    -1366331.47249  -1064200.66847  20912641.110    20912647.416
  22787463.266    -2576873.33349  -1994103.64746  22787463.188    22787470.052
  23304216.096    -2957099.23749  -2284425.30846  23304215.527    23304222.079
 03  6  7 16 28  0.0000000  0 10G15G10G30G21G29G16G 6G17G26G18
  24141262.260    -2537371.89249  -1968165.75045  24141261.614    24141269.690
  22450237.628      807099.76249    611784.13446  22450236.545    22450243.213
  22880440.807     1022159.54249    779308.42846  22880440.881    22880447.499
  21352054.910    -1891401.89949  -1470465.04147  21352054.171    21352058.590
  22989222.628    -1802880.40549  -1398829.13146  22989222.242    22989228.616
  24266021.229    -2461501.97249  -1903554.67745  24266020.423    24266026.141
  20287485.480    -1293139.88149  -1007868.52848  20287485.096    20287490.461
  20909124.433    -1384815.84749  -1078604.06547  20909123.645    20909129.958
  22772054.799    -2657845.28449  -2057198.60846  22772054.645    22772061.575
  23284874.334    -3058740.70049  -2363626.57346  23284873.747    23284880.259
 03  6  7 16 28 30.0000000  0 10G15G10G30G21G29G16G 6G17G26G18
  24126037.545    -2617377.41649  -2030507.64845  24126036.683    24126045.278
  22467317.648      896855.88049    681723.93146  22467316.560    22467323.235
  22899304.480     1121288.07949    856551.39246  22899304.511    22899311.100
  21343893.972    -1934287.81049  -1503882.61347  21343893.240    21343897.654
  22982059.529    -1840522.83749  -1428160.84746  22982059.202    22982065.517
  24252431.547    -2532916.32549  -1959202.22045  24252430.841    24252436.665
  20285262.960    -1304819.60249  -1016969.60348  20285262.575    20285267.912
  20905646.810    -1403090.92949  -1092844.38047  20905646.042    20905652.344
  22756705.724    -2738504.41949  -2120049.80845  22756705.600    22756712.558
  23265572.504    -3160172.37249  -2442664.14746  23265571.940    23265578.455
 03  6  7 16 29  0.0000000  0 10G15G10G30G21G29G16G 6G17G26G18
  24110830.315    -2697289.89949  -2092777.04545  24110829.611    24110838.487
  22484452.437      986899.73249    751887.92946  22484451.318    22484457.968
  22918200.645     1220587.65049    933927.61346  22918200.630    22918207.213
  21335771.819    -1976970.09649  -1537141.51547  21335771.093    21335775.526
  22974981.923    -1877716.20949  -1457142.67446  22974981.600    22974987.806
  24238919.534    -2603922.99149  -2014532.04245  24238918.806    24238924.813
  20283120.304    -1316079.77549  -1025743.75748  20283119.908    20283125.207
  20902208.747    -1421158.36749  -1106922.89347  20902207.972    20902214.254
  22741416.789    -2818848.63849  -2182655.62846  22741416.635    22741423.542
  23246310.606    -3261394.69049  -2521538.59146  23246309.985    23246316.480
 03  6  7 16 29 30.0000000  0 10G15G10G30G21G29G16G 6G17G26G18
  24095641.216    -2777107.79249  -2154972.72345  24095640.486    24095649.571
  22501641.836     1077230.19749    822275.27646  22501640.698    22501647.370
  22937129.006     1320056.40249   1011435.68146  22937128.986    22937135.537
  21327688.445    -2019448.08849  -1570241.22547  21327687.759    21327692.221
  22967990.535    -1914457.01649  -1485771.82346  22967990.121    22967996.338
  24225485.621    -2674518.25749  -2069541.30545  24225484.906    24225490.892
  20281057.977    -1326917.67149  -1034188.86648  20281057.596    20281062.850
  20898810.400    -1439016.90449  -1120838.62547  20898809.645    20898815.917
  22726188.680    -2898872.91149  -2245012.13846  22726188.498    22726195.445
  23227089.149    -3362404.18649  -2600247.19146  23227088.472    23227094.985
 03  6  7 16 30  0.0000000  0 10G15G10G30G21G29G16G 6G17G26G18
  24080470.272    -2856831.02249  -2217094.59145  24080469.607    24080478.746
  22518885.093     1167844.28249    892883.61546  22518884.001    22518890.748
  22956088.927     1419691.16149   1089073.09346  22956088.930    22956095.470
  21319644.246    -2061720.69349  -1603180.89247  21319643.528    21319648.046
  22961085.345    -1950743.57149  -1514047.02346  22961084.992    22961091.236
  24212130.280    -2744700.26949  -2124228.54245  24212129.661    24212135.752
  20279076.168    -1337332.20949  -1042304.08548  20279075.778    20279080.995
  20895451.722    -1456667.05649  -1134591.98247  20895450.960    20895457.222
  22711022.149    -2978573.79749  -2307116.66146  22711021.887    22711028.779
  23207908.512    -3463199.05349  -2678788.57346  23207907.859    23207914.344
 03  6  7 16 30 30.0000000  0 10G15G10G30G21G29G16G 6G17G26G18
  24065317.749    -2936459.86849  -2279142.97445  24065317.027    24065325.935
  22536181.771     1258738.61049    963710.33446  22536180.736    22536187.431
  22975079.860     1519488.67549   1166837.32746  22975079.813    22975086.345
  21311638.832    -2103789.27549  -1635961.57847  21311638.140    21311642.661
  22954266.924    -1986574.04549  -1541966.82546  22954266.682    22954272.965
  24198854.140    -2814467.22049  -2178592.36745  24198853.532    24198859.621
  20277175.099    -1347322.40049  -1050088.63948  20277174.724    20277179.940
  20892132.520    -1474109.75749  -1148183.68547  20892131.758    20892137.997
  22695917.647    -3057948.44949  -2368966.97245  22695917.433    22695924.290
  23188768.998    -3563777.63949  -2757161.40646  23188768.339    23188774.859
 03  6  7 16 31  0.0000000  0 10G15G10G30G21G29G16G 6G17G26G18
  24050182.935    -3015995.06949  -2341118.41045  24050182.195    24050190.788
  22553531.230     1349910.07949   1034753.00046  22553530.176    22553536.914
  22994101.015     1619445.36349   1244725.59846  22994101.025    22994107.553
  21303672.174    -2145654.29749  -1668583.65047  21303671.475    21303675.998
  22947535.752    -2021947.24649  -1569530.31346  22947535.402    22947541.666
  24185657.141    -2883817.54049  -2232631.53445  24185656.479    24185662.831
  20275354.968    -1356887.46749  -1057541.93148  20275354.594    20275359.804
  20888852.687    -1491345.56949  -1161614.17947  20888851.939    20888858.166
  22680875.708    -3136993.91749  -2430560.77945  22680875.487    22680882.410
  23169670.860    -3664138.56349  -2835364.64446  23169670.241    23169676.751
 03  6  7 16 31 30.0000000  0 10G15G10G30G21G29G16G 6G17G26G18
  24035065.866    -3095435.95849  -2403020.29945  24035065.171    24035073.435
  22570932.974     1441356.32849   1106009.77746  22570931.899    22570938.698
  23013152.025     1719558.84749   1322736.03046  23013152.026    23013158.616
  21295744.450    -2187314.93049  -1701046.45547  21295743.733    21295748.284
  22940892.172    -2056860.41849  -1596735.36146  22940891.751    22940897.908
  24172539.923    -2952748.57349  -2286343.98345  24172539.249    24172545.773
  20273616.024    -1366025.76649  -1064662.67948  20273615.628    20273620.860
  20885612.274    -1508374.19149  -1174883.23047  20885611.532    20885617.726
  22665897.234    -3215706.02149  -2491894.81145  22665897.046    22665903.924
  23150614.684    -3764279.27749  -2913396.29146  23150614.054    23150620.508
 03  6  7 16 32  0.0000000  0 10G15G10G30G21G29G16G 6G17G26G18
  24019966.898    -3174782.36949  -2464848.59745  24019966.193    24019974.147
  22588386.354     1533074.33249   1177478.31746  22588385.326    22588392.173
  23032232.197     1819825.82049   1400866.08046  23032232.247    23032238.808
  21287855.339    -2228772.05949  -1733350.69647  21287854.665    21287859.229
  22934336.198    -2091311.79149  -1623580.54546  22934335.870    22934342.015
  24159502.897    -3021258.27549  -2339728.14245  24159502.275    24159508.675
  20271958.501    -1374736.10849  -1071449.95848  20271958.125    20271963.363
  20882411.176    -1525196.20549  -1187991.29047  20882410.438    20882416.609
  22650982.763    -3294081.41649  -2552966.50545  22650982.620    22650989.487
  23131600.783    -3864197.83849  -2991254.83846  23131600.226    23131606.553
 03  6  7 16 32 30.0000000  0 10G15G10G30G21G29G16G 6G17G26G18
  24004885.932    -3254034.37549  -2526603.35745  24004885.044    24004892.842
  22605890.889     1625061.22949   1249156.37746  22605889.938    22605896.789
  23051341.035     1920243.11249   1479113.26046  23051341.099    23051347.620
  21280004.937    -2270026.27749  -1765496.81547  21280004.289    21280008.843
  22927868.430    -2125299.78849  -1650064.66746  22927868.147    22927874.219
  24146546.256    -3089344.85849  -2392782.57945  24146545.734    24146552.263
  20270382.607    -1383017.55949  -1077903.03748  20270382.246    20270387.499
  20879249.301    -1541812.23449  -1200938.83447  20879248.547    20879254.709
  22636133.105    -3372116.84749  -2613773.28246  22636132.971    22636139.863
  23112629.413    -3963892.81849  -3068939.16446  23112628.880    23112635.173
 03  6  7 16 33  0.0000000  0 10G15G10G30G21G29G16G 6G17G26G18
  23989822.636    -3333192.01949  -2588284.58245  23989821.722    23989829.533
  22623446.239     1717314.54449   1321042.04146  22623445.215    22623452.126
  23070477.978     2020808.01249   1557475.45746  23070477.981    23070484.555
  21272193.314    -2311076.78349  -1797484.20447  21272192.647    21272197.193
  22921489.233    -2158822.23449  -1676186.00646  22921489.004    22921495.099
  24133670.721    -3157005.89149  -2445505.42745  24133670.198    24133676.687
  20268888.623    -1390868.47549  -1084020.63148  20268888.261    20268893.520
  20876126.537    -1558222.63149  -1213726.15147  20876125.799    20876131.929
  22621348.692    -3449808.77549  -2674312.39646  22621348.626    22621355.458
  23093701.086    -4063361.79949  -3146447.38946  23093700.484    23093706.785
 03  6  7 16 33 30.0000000  0 10G15G10G30G21G29G16G 6G17G26G18
  23974777.333    -3412255.23949  -2649892.20445  23974776.428    23974784.140
  22641051.666     1809831.23949   1393132.93846  22641050.636    22641057.544
  23089642.400     2121517.43849   1635950.26646  23089642.393    23089648.974
  21264420.434    -2351923.77149  -1829312.99647  21264419.719    21264424.279
  22915198.977    -2191877.16949  -1701943.05846  22915198.718    22915204.964
  24120876.477    -3224239.47149  -2497895.18845  24120876.005    24120882.310
  20267476.791    -1398287.79049  -1089801.91148  20267476.438    20267481.663
  20873042.932    -1574427.26349  -1226353.12347  20873042.184    20873048.337
  22606630.439    -3527153.63949  -2734581.05746  22606630.425    22606637.198
  23074816.084    -4162602.98449  -3223778.10146  23074815.487    23074821.760
 03  6  7 16 34  0.0000000  0 10G15G10G30G21G29G16G 6G17G26G18
  23959750.172    -3491223.31249  -2711425.69345  23959749.331    23959757.126
  22658706.780     1902609.03349   1465427.27346  22658705.724    22658712.603
  23108833.807     2222368.76249   1714535.65246  23108833.877    23108840.389
  21256686.283    -2392566.89249  -1860982.93447  21256685.593    21256690.162
  22908998.145    -2224462.41749  -1727334.12346  22908997.921    22909004.246
  24108163.942    -3291043.32449  -2549950.11245  24108163.606    24108169.685
  20266147.439    -1405273.69849  -1095245.46948  20266147.088    20266152.281
  20869998.408    -1590426.38249  -1238819.96247  20869997.691    20870003.823
  22591979.023    -3604147.49049  -2794576.22246  22591978.949    22591985.717
  23055974.861    -4261613.96949  -3300929.44046  23055974.222    23055980.516
 03  6  7 16 34 30.0000000  0 10G15G10G30G21G29G16G 6G17G26G18
  23944741.053    -3570096.67949  -2772885.37145  23944740.272    23944748.128
  22676411.003     1995644.55949   1537922.45246  22676409.898    22676416.720
  23128051.639     2323358.70549   1793229.02746  23128051.685    23128058.167
  21248990.821    -2433006.67149  -1892494.43447  21248990.160    21248994.735
  22902887.030    -2256576.53549  -1752358.07246  22902886.851    22902893.134
  24095533.422    -3357415.81249  -2601668.88345  24095533.110    24095539.293
  20264900.669    -1411825.51649  -1100350.77948  20264900.341    20264905.518
  20866992.853    -1606220.96249  -1251127.41547  20866992.132    20866998.265
  22577394.858    -3680787.56649  -2854295.70046  22577394.755    22577401.609
  23037177.809    -4360392.90159  -3377899.93946  23037177.146    23037183.548
 03  6  7 16 35  0.0000000  0 10G15G10G30G21G29G16G 6G17G26G18
  23929749.807    -3648875.70849  -2834271.57245  23929749.020    23929756.809
  22694163.666     2088934.92249   1610616.21146  22694162.538    22694169.313
  23147295.218     2424483.59249   1872027.60146  23147295.291    23147301.703
  21241333.992    -2473243.60249  -1923847.85647  21241333.311    21241337.890
  22896865.855    -2288218.05949  -1777013.77246  22896865.700    22896871.916
  24082985.782    -3423355.13149  -2653050.11445  24082985.336    24082991.417
  20263736.722    -1417942.39449  -1105117.16248  20263736.377    20263741.559
  20864026.193    -1621810.93049  -1263275.43147  20864025.446    20864031.590
  22562878.695    -3757070.76149  -2913737.10345  22562878.485    22562885.414
  23018425.058    -4458938.57249  -3454688.47946  23018424.457    23018430.922
 03  6  7 16 35 30.0000000  0 10G15G10G30G21G29G16G 6G17G26G18
  23914776.698    -3727559.54349  -2895583.55045  23914775.826    23914783.925
  22711964.336     2182478.03449   1683506.90546  22711963.245    22711970.049
  23166564.126     2525741.43049   1950929.73346  23166564.170    23166570.479
  21233715.932    -2513276.96149  -1955042.65647  21233715.245    21233719.793
  22890935.138    -2319384.42949  -1801299.20346  22890934.916    22890941.181
  24070521.033    -3488858.36249  -2704091.56745  24070520.536    24070526.394
  20262655.832    -1423622.50249  -1109543.21348  20262655.485    20262660.695
  20861098.437    -1637196.42249  -1275264.11547  20861097.703    20861103.852
  22548431.194    -3832992.87849  -2972897.14945  22548430.996    22548437.922
  22999717.195    -4557248.95249  -3531293.90146  22999716.597    22999722.940
 03  6  7 16 36  0.0000000  0 10G15G10G30G21G29G16G 6G17G26G18
  23899821.655    -3806148.07249  -2956821.30145  23899820.899    23899829.043
  22729812.503     2276270.77649   1756592.10946  22729811.439    22729818.236
  23185857.707     2627129.06649   2029933.02646  23185857.795    23185864.021
  21226136.520    -2553106.80049  -1986078.87147  21226135.852    21226140.420
  22885095.076    -2350074.01949  -1825213.14646  22885094.928    22885101.115
  24058139.556    -3553923.82349  -2754791.88045  24058139.186    24058144.765
  20261658.300    -1428864.67249  -1113628.01648  20261657.956    20261663.186
  20858209.543    -1652377.69749  -1287093.67247  20858208.812    20858214.951
  22534052.994    -3908550.48749  -3031773.14945  22534052.930    22534059.750
  22981054.454    -4655321.85349  -3607714.27246  22981053.888    22981060.174
 03  6  7 16 36 30.0000000  0 10G15G10G30G21G29G16G 6G17G26G18
  23884884.645    -3884641.45649  -3017984.91945  23884883.950    23884892.154
  22747707.593     2370310.14749   1829869.49346  22747706.530    22747713.304
  23205175.347     2728643.10449   2109034.80746  23205175.421    23205181.579
  21218595.778    -2592733.60549  -2016956.88247  21218595.132    21218599.673
  22879346.096    -2380285.44449  -1848754.49646  22879345.958    22879352.116
  24045841.679    -3618549.95149  -2805149.84245  24045841.270    24045846.779
  20260744.207    -1433668.21449  -1117371.04048  20260743.869    20260749.128
  20855359.437    -1667355.26149  -1298764.49347  20855358.686    20855364.815
  22519744.834    -3983740.82949  -3090362.97246  22519744.755    22519751.424
  22962437.301    -4753155.34949  -3683948.08446  22962436.726    22962442.966
 03  6  7 16 37  0.0000000  0 10G15G10G30G21G29G16G 6G17G26G18
  23869965.779    -3963039.59449  -3079074.30145  23869965.157    23869973.287
  22765649.127     2464593.53749   1903337.02646  22765648.090    22765654.912
  23224516.458     2830280.78049   2188232.94046  23224516.522    23224522.669
  21211093.708    -2632157.38249  -2047676.68247  21211093.056    21211097.584
  22873688.492    -2410016.62349  -1871921.62746  22873688.255    22873694.405
  24033627.816    -3682734.61549  -2855163.81745  24033627.316    24033632.726
  20259913.820    -1438031.86249  -1120771.28248  20259913.514    20259918.766
  20852548.008    -1682129.39449  -1310276.79547  20852547.312    20852553.408
  22505507.200    -4058560.09749  -3148663.64346  22505507.112    22505513.800
  22943866.009    -4850747.56649  -3759993.90046  22943865.473    22943871.644
 03  6  7 16 37 30.0000000  0 10G15G10G30G21G29G16G 6G17G26G18
  23855065.111    -4041342.06649  -3140089.12745  23855064.512    23855072.742
  22783636.615     2559118.71349   1976992.96946  22783635.578    22783642.476
  23243880.535     2932039.45549   2267525.35346  23243880.566    23243886.736
  21203630.331    -2671377.74449  -2078237.98047  21203629.693    21203634.201
  22868122.653    -2439265.56749  -1894712.97846  22868122.428    22868128.497
  24021498.435    -3746475.38449  -2904831.90745  24021497.913    24021503.277
  20259167.498    -1441953.98749  -1123827.47848  20259167.170    20259172.416
  20849775.354    -1696699.86849  -1321630.40447  20849774.671    20849780.724
  22491340.989    -4133004.48349  -3206672.20746  22491340.909    22491347.561
  22925341.126    -4948096.26549  -3835849.96346  22925340.627    22925346.725
 03  6  7 16 38  0.0000000  0 10G15G10G30G21G29G16G 6G17G26G18
  23840182.519    -4119550.00749  -3201030.31245  23840181.886    23840190.109
  22801669.350     2653881.68949   2050834.20146  22801668.364    22801675.285
  23263266.907     3033915.06049   2346908.87446  23263266.975    23263273.181
  21196205.473    -2710395.95449  -2108641.76047  21196204.823    21196209.317
  22862648.643    -2468031.51449  -1917127.98446  22862648.478    22862654.486
  24009453.604    -3809771.54849  -2954153.53645  24009452.922    24009458.539
  20258505.132    -1445434.90049  -1126539.87448  20258504.809    20258510.043
  20847041.182    -1711068.20849  -1332826.50547  20847040.464    20847046.526
  22477246.377    -4207071.85949  -3264386.99246  22477246.317    22477253.002
  22906862.713    -5045200.67149  -3911515.66046  22906862.219    22906868.315
 03  6  7 16 38 30.0000000  0 10G15G10G30G21G29G16G 6G17G26G18
  23825318.426    -4197661.30449  -3261896.19345  23825317.796    23825325.842
  22819747.275     2748881.75049   2124860.17846  22819746.289    22819753.241
  23282675.302     3135906.64949   2426382.78346  23282675.399    23282681.680
  21188819.425    -2749210.07949  -2138886.51247  21188818.756    21188823.248
  22857267.325    -2496310.92149  -1939163.85546  22857267.053    22857273.073
  23997494.238    -3872618.95449  -3003125.51845  23997493.471    23997499.032
  20257927.312    -1448471.32149  -1128905.90948  20257926.979    20257932.234
  20844345.764    -1725232.70449  -1343863.76447  20844345.060    20844351.122
  22463224.475    -4280756.73949  -3321803.71246  22463224.453    22463231.146
  22888431.563    -5142056.75049  -3986987.85746  22888431.078    22888437.189
 03  6  7 16 39  0.0000000  0 10G15G10G30G21G29G16G 6G17G26G18
  23810472.640    -4275677.03849  -3322687.62545  23810472.053    23810479.645
  22837869.519     2844114.77449   2199067.69446  22837868.532    22837875.516
  23302104.936     3238009.89449   2505943.69746  23302104.979    23302111.323
  21181471.953    -2787821.41349  -2168973.24447  21181471.282    21181475.727
  22851978.565    -2524103.29849  -1960820.24046  22851978.275    22851984.263
  23985620.249    -3935017.14149  -3051747.43645  23985619.651    23985625.131
  20257434.030    -1451063.48949  -1130925.77448  20257433.691    20257438.971
  20841688.815    -1739194.87749  -1354743.36647  20841688.150    20841694.222
  22449275.911    -4354057.05449  -3378920.79846  22449275.820    22449282.499
  22870047.882    -5238664.08749  -4062266.22146  22870047.306    22870053.333
 03  6  7 16 39 30.0000000  0 10G15G10G30G21G29G16G 6G17G26G18
  23795645.052    -4353596.97449  -3383404.39845  23795644.359    23795651.926
  22856035.574     2939578.42749   2273454.91646  22856034.627    22856041.699
  23321555.257     3340222.29949   2585589.66146  23321555.333    23321561.801
  21174163.121    -2826229.57649  -2198901.66347  21174162.472    21174166.905
  22846782.788    -2551406.55449  -1982095.48246  22846782.532    22846788.560
  23973832.177    -3996964.00449  -3100017.69145  23973831.582    23973837.002
  20257025.561    -1453209.95049  -1132598.33348  20257025.233    20257030.552
  20839070.323    -1752955.02149  -1365465.54747  20839069.633    20839075.738
  22435401.171    -4426968.98149  -3435735.22046  22435401.075    22435407.787
  22851711.808    -5335020.43749  -4137349.01946  22851711.270    22851717.272
 03  6  7 16 40  0.0000000  0 10G15G10G30G21G29G16G 6G17G26G18
  23780835.569    -4431420.78349  -3444046.23945  23780834.881    23780842.609
  22874245.199     3035270.04349   2348019.73946  22874244.240    22874251.264
  23341025.811     3442540.80649   2665318.31145  23341025.924    23341032.434
  21166892.900    -2864434.76249  -2228671.92147  21166892.245    21166896.663
  22841680.409    -2578219.26249  -2002988.49146  22841680.244    22841686.303
  23962130.260    -4058457.39649  -3147934.58945  23962129.683    23962135.366
  20256702.146    -1454909.62449  -1133922.75248  20256701.827    20256707.131
  20836490.242    -1766513.10349  -1376030.27347  20836489.559    20836495.724
  22421601.012    -4499488.91249  -3492244.18045  22421601.088    22421607.736
  22833423.812    -5431123.85449  -4212234.74946  22833423.341    22833429.268
 03  6  7 16 40 30.0000000  0 10G15G10G30G21G29G16G 6G17G26G18
  23766044.599    -4509148.31849  -3504613.10545  23766043.970    23766051.499
  22892497.707     3131187.06949   2422760.25846  22892496.714    22892503.768
  23360516.066     3544962.60549   2745127.42246  23360516.190    23360522.778
  21159661.295    -2902437.14549  -2258284.14847  21159660.661    21159665.025
  22836671.894    -2604539.44549  -2023497.69546  22836671.711    22836677.763
  23950515.080    -4119495.26049  -3195496.51945  23950514.534    23950520.311
  20256463.999    -1456161.28049  -1134898.06348  20256463.672    20256468.936
  20833948.635    -1779869.21249  -1386437.62247  20833947.948    20833954.138
  22407876.061    -4571614.68749  -3548446.07246  22407875.980    22407882.528
  22815184.259    -5526973.53649  -4286922.94246  22815183.787    22815189.595
 03  6  7 16 41  0.0000000  0 10G15G10G30G21G29G16G 6G17G26G18
  23751271.962    -4586779.95749  -3565105.21945  23751271.237    23751278.632
  22910792.458     3227326.22849   2497673.83446  22910791.449    22910798.544
  23380025.377     3647484.10049   2825014.22145  23380025.426    23380032.146
  21152468.261    -2940237.05749  -2287738.60747  21152467.602    21152471.924
  22831757.272    -2630366.19649  -2043622.43046  22831757.093    22831763.067
  23938986.875    -4180076.25549  -3242702.46645  23938986.225    23938992.186
  20256311.213    -1456964.32849  -1135523.81148  20256310.888    20256316.155
  20831445.140    -1793024.92249  -1396688.82347  20831444.461    20831450.698
  22394226.646    -4643342.21849  -3604337.59346  22394226.620    22394233.239
  22796993.565    -5622566.04449  -4361410.54346  22796993.080    22796998.909
 03  6  7 16 41 30.0000000  0 10G15G10G30G21G29G16G 6G17G26G18
  23736517.608    -4664315.29649  -3625522.29745  23736516.921    23736524.290
  22929128.938     3323685.05849   2572758.58746  22929128.005    22929135.091
  23399553.158     3750102.95649   2904976.88946  23399553.216    23399559.924
  21145313.797    -2977833.98549  -2317034.90047  21145313.125    21145317.407
  22826936.896    -2655697.57049  -2063361.13446  22826936.701    22826942.705
  23927545.859    -4240198.41549  -3289550.89045  23927545.255    23927551.343
  20256244.071    -1457317.33949  -1135798.89048  20256243.744    20256248.992
  20828980.000    -1805979.32349  -1406783.15847  20828979.328    20828985.597
  22380653.780    -4714668.07249  -3659916.13746  22380653.696    22380660.283
  22778852.120    -5717900.14849  -4435696.78746  22778851.599    22778857.400
 03  6  7 16 42  0.0000000  0 10G15G10G30G21G29G16G 6G17G26G18
  23721781.485    -4741754.12749  -3685864.17545  23721780.733    23721788.257
  22947506.665     3420260.91349   2648012.45146  22947505.792    22947512.940
  23419098.862     3852815.99249   2985012.94746  23419098.946    23419105.699
  21138197.940    -3015228.17049  -2346173.21147  21138197.290    21138201.517
  22822211.082    -2680531.94449  -2082712.57746  22822210.853    22822216.900
  23916192.690    -4299859.63649  -3336040.11545  23916192.065    23916198.170
  20256262.725    -1457219.26449  -1135722.46048  20256262.411    20256267.634
  20826553.152    -1818732.49749  -1416720.68847  20826552.488    20826558.746
  22367157.818    -4785588.91549  -3715179.07646  22367157.829    22367164.431
  22760760.216    -5812974.03649  -4509780.27446  22760759.654    22760765.398
 03  6  7 16 42 30.0000000  0 10G15G10G30G21G29G16G 6G17G26G18
  23707063.576    -4819096.16249  -3746130.61545  23707062.902    23707070.616
  22965925.326     3517051.37049   2723433.54246  22965924.471    22965931.621
  23438662.039     3955620.80749   3065120.51246  23438662.132    23438668.873
  21131120.678    -3052419.25949  -2375153.26647  21131120.020    21131124.261
  22817580.190    -2704867.23849  -2101675.12546  22817580.008    22817586.041
  23904927.480    -4359057.91749  -3382168.59945  23904926.864    23904933.096
  20256367.485    -1456668.72449  -1135293.47148  20256367.179    20256372.408
  20824164.668    -1831284.27849  -1426501.29047  20824163.981    20824170.210
  22353739.783    -4856101.18049  -3770123.65746  22353739.817    22353746.331
  22742718.138    -5907785.48949  -4583659.26246  22742717.554    22742723.400
 03  6  7 16 43  0.0000000  0 10G15G10G30G21G29G16G 6G17G26G18
  23692364.032    -4896341.87249  -3806322.01145  23692363.389    23692371.161
  22984384.317     3614053.47049   2799019.53846  22984383.402    22984390.564
  23458242.032     4058513.90749   3145296.87046  23458242.186    23458248.872
  21124082.032    -3089407.40849  -2403975.18647  21124081.393    21124085.654
  22813044.419    -2728702.63049  -2120248.13346  22813044.259    22813050.333
  23893750.835    -4417791.94749  -3427935.34345  23893750.301    23893756.435
  20256558.442    -1455665.25849  -1134511.54748  20256558.147    20256563.387
  20821814.307    -1843635.77549  -1436125.83247  20821813.618    20821819.799
  22340400.146    -4926201.87149  -3824747.51846  22340400.123    22340406.505
  22724726.300    -6002333.07349  -4657332.63446  22724725.760    22724731.557
 03  6  7 16 43 30.0000000  0 10G15G10G30G21G29G16G 6G17G26G18
  23677683.136    -4973490.73149  -3866437.94645  23677682.412    23677690.162
  23002883.058     3711264.64149   2874768.45046  23002882.146    23002889.317
  23477838.369     4161492.69149   3225539.99846  23477838.441    23477845.122
  21117082.003    -3126192.68349  -2432639.02947  21117081.379    21117085.616
  22808604.092    -2752036.17049  -2138430.10246  22808603.982    22808610.071
  23882662.929    -4476059.47649  -3473338.58745  23882662.377    23882668.467
  20256835.816    -1454207.63449  -1133375.73448  20256835.515    20256840.766
  20819502.091    -1855786.57749  -1445593.98747  20819501.409    20819507.596
  22327139.298    -4995887.59749  -3879048.02846  22327139.323    22327145.781
  22706784.984    -6096614.87849  -4730798.92146  22706784.520    22706790.354
 03  6  7 16 44  0.0000000  0 10G15G10G30G21G29G16G 6G17G26G18
  23663020.569    -5050542.95749  -3926478.59145  23663019.843    23663027.581
  23021420.979     3808681.77649   2950677.85346  23021420.062    23021427.210
  23497450.331     4264553.80349   3305847.27446  23497450.413    23497457.146
  21110120.617    -3162775.24149  -2461144.90447  21110119.988    21110124.206
  22804259.615    -2774866.92649  -2156220.27146  22804259.390    22804265.511
  23871663.937    -4533859.35749  -3518377.43445  23871663.381    23871669.536
  20257199.701    -1452295.22549  -1131885.54248  20257199.423    20257204.697
  20817227.884    -1867737.63949  -1454906.49747  20817227.243    20817233.408
  22313958.045    -5065155.44649  -3933022.92246  22313958.088    22313964.519
  22688894.550    -6190629.44449  -4804056.95446  22688894.075    22688899.940
 03  6  7 16 44 30.0000000  0 10G15G10G30G21G29G16G 6G17G26G18
  23648376.224    -5127498.52049  -3986443.87845  23648375.560    23648383.211
  23039997.755     3906302.48249   3026745.89346  23039996.801    23040003.898
  23517077.424     4367694.59849   3386216.62945  23517077.416    23517084.254
  21103197.738    -3199155.20749  -2489492.91947  21103197.121    21103201.295
  22800010.929    -2797192.87649  -2173617.11146  22800010.901    22800016.957
  23860754.327    -4591189.61749  -3563050.32745  23860753.764    23860759.886
  20257650.354    -1449926.85349  -1130040.05748  20257650.081    20257655.379
  20814991.685    -1879489.11449  -1464063.48647  20814991.041    20814997.179
  22300857.088    -5134001.78449  -3986669.37746  22300857.078    22300863.426
  22671055.465    -6284374.59649  -4877105.06746  22671054.995    22671060.798
 03  6  7 16 45  0.0000000  0 10G15G10G30G21G29G16G 6G17G26G18
  23633750.513    -5204357.02349  -4046333.57445  23633749.895    23633757.398
  23058612.771     4004124.44549   3102970.74046  23058611.835    23058618.887
  23536719.137     4470912.50249   3466646.08345  23536719.199    23536726.092
  21096313.468    -3235332.25049  -2517682.80947  21096312.856    21096317.036
  22795858.922    -2819012.49249  -2190619.38346  22795858.715    22795864.882
  23849934.599    -4648047.78949  -3607355.36745  23849934.045    23849940.070
  20258188.089    -1447101.13049  -1127838.19148  20258187.828    20258193.123
  20812793.596    -1891040.28149  -1473064.38847  20812792.953    20812799.064
  22287836.769    -5202423.07349  -4039984.62546  22287836.812    22287843.199
  22653268.064    -6377848.04849  -4949941.45546  22653267.519    22653273.394
 03  6  7 16 45 30.0000000  0 10G15G10G30G21G29G16G 6G17G26G18
  23619143.246    -5281118.71749  -4106147.83345  23619142.618    23619150.112
  23077265.398     4102144.37349   3179349.85846  23077264.492    23077271.532
  23556375.010     4574203.93149   3547132.82245  23556375.011    23556381.911
  21089467.752    -3271306.75749  -2545714.88447  21089467.136    21089471.297
  22791803.263    -2840325.00449  -2207226.52546  22791803.153    22791809.267
  23839204.788    -4704432.95649  -3651291.83345  23839204.223    23839210.131
  20258812.880    -1443817.92149  -1125279.84648  20258812.626    20258817.900
  20810633.358    -1902392.42949  -1481910.21447  20810632.739    20810638.840
  22274898.010    -5270416.70649  -4092966.63646  22274898.049    22274904.415
  22635532.368    -6471048.95649  -5022565.47446  22635531.917    22635537.750
 03  6  7 16 46  0.0000000  0 10G15G10G30G21G29G16G 6G17G26G18
  23604554.370    -5357782.87449  -4165886.05645  23604553.788    23604561.444
  23095955.442     4200360.32749   3255881.72946  23095954.483    23095961.486
  23576044.346     4677566.60449   3627675.06745  23576044.274    23576051.240
  21082660.626    -3307078.42649  -2573588.89947  21082660.018    21082664.194
  22787844.596    -2861128.34249  -2223436.88946  22787844.443    22787850.530
  23828565.416    -4760342.79649  -3694857.90345  23828564.988    23828570.809
  20259525.043    -1440075.57049  -1122363.72848  20259524.793    20259530.048
  20808511.057    -1913545.28449  -1490600.74247  20808510.448    20808516.516
  22262041.378    -5337978.86049  -4145612.43246  22262041.350    22262047.692
  22617849.222    -6563974.70349  -5094975.09046  22617848.719    22617854.465
 03  6  7 16 46 30.0000000  0 10G15G10G30G21G29G16G 6G17G26G18
  23589984.046    -5434350.08649  -4225548.74045  23589983.454    23589991.182
  23114682.146     4298769.12049   3332563.83946  23114681.089    23114688.149
  23595726.462     4780997.12049   3708270.16945  23595726.479    23595733.550
  21075892.080    -3342647.39449  -2601304.96347  21075891.454    21075895.648
  22783982.876    -2881421.65849  -2239249.84946  22783982.687    22783988.836
  23818016.767    -4815776.22149  -3738052.72945  23818016.450    23818022.165
  20260324.639    -1435873.73049  -1119089.56648  20260324.379    20260329.629
  20806426.598    -1924499.47149  -1499136.46747  20806425.981    20806432.011
  22249267.418    -5405106.78349  -4197919.86646  22249267.353    22249273.614
  22600218.542    -6656624.32249  -5167169.53246  22600218.035    22600223.757
 03  6  7 16 47  0.0000000  0 10G15G10G30G21G29G16G 6G17G26G18
  23575432.433    -5510819.58349  -4285135.31345  23575431.877    23575439.414
  23133445.048     4397368.56049   3409394.51646  23133443.961    23133451.056
  23615421.117     4884493.04149   3788916.22945  23615421.114    23615428.210
  21069162.107    -3378013.58449  -2628863.02647  21069161.513    21069165.698
  22780218.408    -2901202.94049  -2254663.81846  22780218.393    22780224.598
  23807559.100    -4870731.02149  -3780874.62145  23807558.801    23807564.608
  20261211.939    -1431210.99249  -1115456.26648  20261211.675    20261216.938
  20804379.909    -1935254.76149  -1507517.20947  20804379.298    20804385.326
  22236576.811    -5471796.78049  -4249886.03746  22236576.728    22236582.975
  22582640.938    -6748995.25749  -5239146.82346  22582640.443    22582646.114
 03  6  7 16 47 30.0000000  0 10G15G10G30G21G29G16G 6G17G26G18
  23560899.372    -5587191.65249  -4344645.96845  23560898.849    23560906.302
  23152243.554     4496155.68549   3486371.44546  23152242.546    23152249.662
  23635127.540     4988051.26149   3869610.85145  23635127.641    23635134.695
  21062470.719    -3413177.06549  -2656263.13047  21062470.105    21062474.304
  22776552.102    -2920471.22549  -2269678.04246  22776551.791    22776557.937
  23797192.863    -4925205.69649  -3823322.37645  23797192.556    23797198.417
  20262187.048    -1426086.84949  -1111463.42348  20262186.770    20262192.029
  20802371.023    -1945811.55049  -1515743.27447  20802370.409    20802376.434
  22223969.937    -5538045.90149  -4301508.67246  22223969.826    22223976.182
  22565116.706    -6841086.07049  -5310905.83846  22565116.135    22565121.768
 03  6  7 16 48  0.0000000  0 10G15G10G30G21G29G16G 6G17G26G18
  23546384.690    -5663466.50449  -4404080.83745  23546384.178    23546391.651
  23171077.369     4595127.67149   3563492.41346  23171076.378    23171083.492
  23654845.202     5091668.63549   3950351.55745  23654845.410    23654852.495
  21055817.864    -3448138.15849  -2683505.52747  21055817.251    21055821.460
  22772983.380    -2939225.45849  -2284291.71846  22772983.052    22772989.083
  23786918.358    -4979198.80849  -3865394.89145  23786917.980    23786923.945
  20263250.081    -1420500.55449  -1107110.46648  20263249.804    20263255.091
  20800399.891    -1956170.01749  -1523814.80347  20800399.273    20800405.282
  22211447.457    -5603851.19549  -4352785.47146  22211447.405    22211453.841
  22547645.925    -6932895.41249  -5382445.51446  22547645.360    22547651.027
 03  6  7 16 48 30.0000000  0 10G15G10G30G21G29G16G 6G17G26G18
  23531888.544    -5739643.77749  -4463439.67345  23531887.973    23531895.561
  23189945.822     4694282.03349   3640755.48946  23189944.855    23189951.999
  23674573.730     5195342.38449   4031136.18845  23674573.963    23674581.130
  21049203.620    -3482896.33149  -2710589.80547  21049203.000    21049207.205
  22769512.598    -2957464.17849  -2298503.69546  22769512.325    22769518.308
  23776735.853    -5032708.72549  -3907090.89145  23776735.528    23776741.317
  20264401.270    -1414451.05449  -1102396.56748  20264401.007    20264406.305
  20798466.414    -1966330.43149  -1531732.00847  20798465.812    20798471.829
  22199010.282    -5669209.21249  -4403713.76846  22199010.255    22199016.560
  22530229.129    -7024421.28249  -5453764.31746  22530228.597    22530234.164
 03  6  7 16 49  0.0000000  0 11G15G10G23G30G21G29G16G 6G17G26G18
  23517411.025    -5815723.49849  -4522722.50945  23517410.425    23517418.016
  23208848.496     4793616.19649   3718158.67746  23208847.549    23208854.721
  24534046.954    -2072389.69048  -1599895.01144  24534046.324    24534055.553
  23694312.674     5299069.76549   4111962.61945  23694312.818    23694319.836
  21042627.890    -3517451.90049  -2737516.21147  21042627.282    21042631.491
  22766140.307    -2975186.01849  -2312312.90146  22766139.980    22766145.937
  23766645.379    -5085733.75149  -3948409.04945  23766645.025    23766650.958
  20265640.753    -1407937.49549  -1097321.07048  20265640.509    20265645.784
  20796570.570    -1976293.14149  -1539495.15547  20796569.974    20796575.968
  22186658.618    -5734117.10649  -4454291.29746  22186658.576    22186664.972
  22512866.535    -7115661.99749  -5524860.91546  22512866.017    22512871.581
 03  6  7 16 49 30.0000000  0 11G15G10G23G30G21G29G16G 6G17G26G18
  23502951.490    -5891708.91749  -4581931.87145  23502950.876    23502958.457
  23227784.195     4893124.22649   3795697.34346  23227783.410    23227790.519
  24514682.174    -2174150.59649  -1679189.02544  24514681.810    24514690.788
  23714060.477     5402844.36049   4192825.83945  23714060.587    23714067.546
  21036090.058    -3551808.51749  -2764287.58847  21036089.448    21036093.625
  22762865.920    -2992393.24649  -2325721.11246  22762865.506    22762871.428
  23756646.796    -5138275.66749  -3989350.75945  23756646.457    23756652.556
  20266968.045    -1400962.63549  -1091886.11348  20266967.790    20266973.059
  20794711.716    -1986061.54749  -1547106.89347  20794711.091    20794717.092
  22174392.740    -5798574.71749  -4504517.96746  22174392.697    22174399.105
  22495557.826    -7206619.02349  -5595736.46346  22495557.340    22495562.965
 03  6  7 16 50  0.0000000  0 11G15G10G23G30G21G29G16G 6G17G26G18
  23488510.778    -5967594.81049  -4641063.67545  23488510.183    23488517.634
  23246753.621     4992808.64449   3873373.44146  23246752.748    23246759.919
  24495347.197    -2275756.00749  -1758361.92945  24495346.825    24495356.034
  23733817.735     5506668.55449   4273727.70345  23733817.730    23733824.725
  21029591.177    -3585960.56949  -2790899.56847  21029590.547    21029594.710
  22759690.479    -3009079.34049  -2338723.25146  22759690.224    22759696.192
  23746741.554    -5190327.75849  -4029910.79845  23746741.183    23746747.300
  20268384.274    -1393520.39649  -1086086.96348  20268384.020    20268389.288
  20792890.831    -1995630.45949  -1554563.18747  20792890.212    20792896.198
  22162214.018    -5862574.04949  -4554387.53346  22162214.058    22162220.452
  22478304.408    -7297285.72549  -5666385.77546  22478303.934    22478309.605
 03  6  7 16 50 30.0000000  0 11G15G10G23G30G21G29G16G 6G17G26G18
  23474088.909    -6043381.92949  -4700118.51245  23474088.317    23474095.748
  23265755.950     5092665.95249   3951184.27646  23265755.003    23265762.175
  24476042.242    -2377204.92849  -1837412.86645  24476041.619    24476050.656
  23753583.549     5610538.52149   4354665.23845  23753583.566    23753590.631
  21023131.013    -3619908.76849  -2817352.69947  21023130.390    21023134.567
  22756614.388    -3025244.03749  -2351319.09746  22756614.204    22756620.199
  23736929.804    -5241889.23849  -4070088.53145  23736929.425    23736935.561
  20269889.441    -1385610.81449  -1079923.65048  20269889.178    20269894.450
  20791107.669    -2005001.01349  -1561864.91647  20791107.066    20791113.038
  22150123.038    -5926112.71949  -4603898.14146  22150123.109    22150129.405
  22461106.512    -7387661.11049  -5736808.09946  22461106.020    22461111.675
 03  6  7 16 51  0.0000000  0 11G15G10G23G30G21G29G16G 6G17G26G18
  23459685.892    -6119070.34349  -4759096.44445  23459685.318    23459692.574
  23284790.591     5192693.42649   4029127.70546  23284789.655    23284796.819
  24456767.284    -2478495.62649  -1916340.54245  24456766.583    24456775.650
  23773357.498     5714451.26349   4435636.09645  23773357.586    23773364.645
  21016709.574    -3653653.71049  -2843647.45047  21016708.965    21016713.123
  22753637.873    -3040886.30749  -2363507.86546  22753637.585    22753643.546
  23727211.550    -5292958.83449  -4109883.00045  23727211.094    23727217.205
  20271483.577    -1377233.52649  -1073395.89648  20271483.304    20271488.583
  20789362.174    -2014173.83049  -1569012.56547  20789361.544    20789367.514
  22138120.211    -5989187.65349  -4653047.40746  22138120.308    22138126.558
  22443964.303    -7477743.51649  -5807002.12846  22443963.837    22443969.479
 03  6  7 16 51 30.0000000  0 11G15G10G23G30G21G29G16G 6G17G26G18
  23445301.465    -6194660.38349  -4817997.70745  23445300.936    23445308.210
  23303856.960     5292888.11649   4107201.42446  23303856.096    23303863.289
  24437522.502    -2579626.68949  -1995143.83744  24437521.787    24437530.706
  23793139.202     5818403.49549   4516637.72945  23793139.152    23793146.195
  21010326.832    -3687195.43749  -2869783.85347  21010326.184    21010330.336
  22750761.021    -3056005.50849  -2375289.03746  22750760.476    22750766.426
  23717587.113    -5343535.40449  -4149293.28145  23717586.696    23717592.791
  20273166.783    -1368388.17849  -1066503.41948  20273166.529    20273171.805
  20787654.210    -2023149.45749  -1576006.56147  20787653.567    20787659.549
  22126206.161    -6051796.52249  -4701833.49146  22126206.176    22126212.385
  22426878.093    -7567532.09149  -5876967.18946  22426877.596    22426883.226
 03  6  7 16 52  0.0000000  0 11G15G10G23G30G21G29G16G 6G17G26G18
  23430935.904    -6270152.16049  -4876822.41145  23430935.351    23430942.632
  23322954.664     5393247.15649   4185403.21546  23322953.845    23322961.040
  24418308.316    -2680596.53849  -2073821.53344  24418307.757    24418316.764
  23812927.655     5922392.10249   4597667.69345  23812927.673    23812934.861
  21003982.575    -3720534.59049  -2895762.40747  21003981.936    21003986.110
  22747983.705    -3070600.56649  -2386661.78346  22747983.179    22747989.094
  23708056.737    -5393617.80349  -4188318.48545  23708056.304    23708062.453
  20274939.209    -1359073.99249  -1059245.61148  20274938.962    20274944.236
  20785983.683    -2031928.05149  -1582847.02547  20785983.053    20785989.061
  22114381.377    -6113936.27849  -4750254.04746  22114381.362    22114387.617
  22409848.063    -7657025.24149  -5946702.05446  22409847.615    22409853.212
 03  6  7 16 52 30.0000000  0 11G15G10G23G30G21G29G16G 6G17G26G18
  23416588.999    -6345545.20949  -4935570.17745  23416588.513    23416595.707
  23342083.239     5493768.29249   4263731.31846  23342082.393    23342089.660
  24399125.114    -2781403.11149  -2152371.97644  24399124.748    24399133.943
  23832722.424     6026414.62249   4678724.09645  23832722.499    23832729.822
  20997676.884    -3753670.89749  -2921582.90047  20997676.291    20997680.499
  22745306.255    -3084670.21949  -2397625.12846  22745305.812    22745311.698
  23698620.825    -5443204.16849  -4226957.18245  23698620.396    23698626.451
  20276801.101    -1349289.88649  -1051621.63148  20276800.843    20276806.100
  20784350.661    -2040509.58549  -1589533.93747  20784350.024    20784356.049
  22102646.425    -6175603.60849  -4798306.47346  22102646.426    22102652.718
  22392874.673    -7746220.86349  -6016205.07746  22392874.206    22392879.829
 03  6  7 16 53  0.0000000  0 11G15G10G23G30G21G29G16G 6G17G26G18
  23402261.045    -6420839.23849  -4994240.78845  23402260.502    23402267.697
  23361242.212     5594448.94649   4342183.72246  23361241.429    23361248.606
  24379973.657    -2882044.47249  -2230793.64845  24379973.166    24379982.334
  23852523.261     6130468.20949   4759804.71145  23852523.342    23852530.615
  20991409.955    -3786603.64649  -2947244.77847  20991409.350    20991413.588
  22742728.963    -3098213.20749  -2408178.06846  22742728.626    22742734.533
  23689279.628    -5492292.67849  -4265207.95545  23689279.124    23689285.181
  20278752.533    -1339035.12249  -1043630.90048  20278752.282    20278757.548
  20782755.074    -2048894.36849  -1596067.53647  20782754.448    20782760.499
  22091001.993    -6236795.37549  -4845988.33646  22091001.988    22091008.301
  22375958.263    -7835117.05249  -6085474.77946  22375957.797    22375963.365
 03  6  7 16 53 30.0000000  0 11G15G10G23G30G21G29G16G 6G17G26G18
  23387951.646    -6496035.16849  -5052834.95045  23387951.108    23387958.345
  23380430.850     5695285.84649   4420757.85946  23380430.125    23380437.266
  24360854.019    -2982519.70349  -2309085.93345  24360853.273    24360862.292
  23872329.418     6234549.29049   4840906.73545  23872329.460    23872336.717
  20985181.574    -3819334.10749  -2972749.02347  20985180.971    20985185.205
  22740251.997    -3111229.16949  -2418320.37146  22740251.722    22740257.692
  23680033.180    -5540883.15149  -4303070.63545  23680032.764    23680038.638
  20280793.458    -1328309.92949  -1035273.60348  20280793.189    20280798.470
  20781196.818    -2057083.22749  -1602448.46847  20781196.187    20781202.194
  22079448.434    -6297509.33849  -4893297.87146  22079448.416    22079454.815
  22359098.978    -7923713.11649  -6154510.61546  22359098.519    22359104.029
 03  6  7 16 54  0.0000000  0 11G15G10G23G30G21G29G16G 6G17G26G18
  23373661.118    -6571132.39749  -5111352.21245  23373660.571    23373667.766
  23399648.927     5796276.86249   4499452.10546  23399648.121    23399655.265
  24341766.268    -3082826.39149  -2387246.89345  24341765.696    24341774.489
  23892140.344     6338655.44649   4922028.29445  23892140.356    23892147.523
  20978991.781    -3851861.57849  -2998095.09547  20978991.157    20978995.411
  22737875.578    -3123716.70649  -2428050.88446  22737875.316    22737881.343
  23670881.988    -5588973.35949  -4340543.50245  23670881.540    23670887.405
  20282924.138    -1317113.08349  -1026548.79148  20282923.884    20282929.181
  20779675.920    -2065075.90149  -1608676.52647  20779675.270    20779681.280
  22067986.522    -6357741.98849  -4940232.37246  22067986.501    22067992.876
  22342297.137    -8012007.05149  -6223311.02746  22342296.670    22342302.203
 03  6  7 16 54 30.0000000  0 11G15G10G23G30G21G29G16G 6G17G26G18
  23359389.303    -6646130.65949  -5169792.35545  23359388.752    23359395.924
  23418895.847     5897419.81549   4578264.74145  23418894.996    23418902.203
  24322710.885    -3182962.67149  -2465275.02245  24322710.358    24322719.125
  23911955.313     6442783.88849   5003167.23245  23911955.487    23911962.666
  20972840.609    -3884186.18049  -3023283.08947  20972840.015    20972844.279
  22735600.105    -3135674.75949  -2437368.83546  22735599.812    22735605.806
  23661826.244    -5636562.00849  -4377625.54245  23661825.789    23661831.483
  20285144.700    -1305443.90149  -1017455.92348  20285144.447    20285149.754
  20778192.304    -2072872.21249  -1614751.57447  20778191.677    20778197.680
  22056616.786    -6417490.20449  -4986789.39146  22056616.752    22056623.057
  22325553.150    -8099997.24249  -6291874.75646  22325552.681    22325558.202
 03  6  7 16 55  0.0000000  0 11G15G10G23G30G21G29G16G 6G17G26G18
  23345136.469    -6721029.87149  -5228155.30345  23345135.879    23345143.046
  23438171.206     5998711.76149   4657193.47345  23438170.362    23438177.421
  24303688.371    -3282926.55349  -2543168.81945  24303687.837    24303696.753
  23931774.088     6546931.94049   5084321.44545  23931774.347    23931781.544
  20966728.135    -3916307.54549  -3048312.72247  20966727.517    20966731.752
  22733425.595    -3147102.20749  -2446273.31546  22733425.247    22733431.264
  23652866.147    -5683647.49249  -4414315.51245  23652865.712    23652871.376
  20287455.313    -1293301.70349  -1007994.47548  20287455.057    20287460.374
  20776746.012    -2080472.54249  -1620673.90847  20776745.369    20776751.390
  22045339.864    -6476751.02549  -5032966.61346  22045339.809    22045346.076
  22308867.308    -8187681.71749  -6360200.26346  22308866.863    22308872.366
 03  6  7 16 55 30.0000000  0 11G15G10G23G30G21G29G16G 6G17G26G18
  23330902.387    -6795830.61349  -5286441.52745  23330901.813    23330908.929
  23457474.345     6100149.63149   4736235.92345  23457473.439    23457480.570
  24284698.793    -3382716.95049  -2620927.46345  24284698.294    24284707.069
  23951596.088     6651096.31049   5165488.36845  23951596.304    23951603.549
  20960654.192    -3948226.34749  -3073184.51047  20960653.591    20960657.789
  22731352.174    -3157998.69949  -2454764.07446  22731351.653    22731357.753
  23644001.897    -5730229.11549  -4450612.86145  23644001.508    23644007.068
  20289855.915    -1280686.37549   -998164.34848  20289855.685    20289861.002
  20775336.857    -2087877.72349  -1626444.17847  20775336.244    20775342.255
  22034156.034    -6535522.15449  -5078762.24846  22034155.982    22034162.272
  22292239.772    -8275059.82249  -6428287.04646  22292239.374    22292244.805
 03  6  7 16 56  0.0000000  0 11G15G10G23G30G21G29G16G 6G17G26G18
  23316687.041    -6870532.33249  -5344650.59045  23316686.434    23316693.627
  23476804.913     6201731.62849   4815390.66845  23476803.877    23476810.997
  24265742.468    -3482331.68049  -2698549.22345  24265741.907    24265750.945
  23971420.707     6755274.32149   5246665.93545  23971420.821    23971428.126
  20954618.855    -3979942.20549  -3097898.15947  20954618.240    20954622.430
  22729379.836    -3168362.90749  -2462840.04646  22729379.418    22729385.492
  23635233.992    -5776305.03849  -4486516.15645  23635233.589    23635239.074
  20292346.771    -1267596.78849   -987964.67548  20292346.541    20292351.860
  20773964.914    -2095087.16849  -1632061.92847  20773964.314    20773970.331
  22023066.041    -6593800.15649  -5124173.63646  22023066.018    22023072.304
  22275670.997    -8362129.02649  -6496133.11946  22275670.584    22275676.044
 03  6  7 16 56 30.0000000  0 11G15G10G23G30G21G29G16G 6G17G26G18
  23302490.696    -6945134.40649  -5402781.99945  23302490.052    23302497.208
  23496162.348     6303455.48449   4894655.94045  23496161.376    23496168.527
  24246820.141    -3581768.53849  -2776032.36445  24246819.716    24246828.865
  23991247.336     6859463.73649   5327852.37545  23991247.435    23991254.850
  20948622.295    -4011454.47949  -3122453.17447  20948621.681    20948625.863
  22727509.026    -3178193.36749  -2470500.13346  22727508.733    22727514.775
  23626562.588    -5821873.52249  -4522024.04045  23626562.131    23626567.721
  20294928.081    -1254031.90949   -977394.63948  20294927.854    20294933.158
  20772630.335    -2102100.57149  -1637526.91947  20772629.708    20772635.741
  22012070.509    -6651581.64649  -5169198.13246  22012070.491    22012076.803
  22259161.417    -8448887.42349  -6563737.01446  22259161.004    22259166.411
 03  6  7 16 57  0.0000000  0 11G15G10G23G30G21G29G16G 6G17G26G18
  23288313.343    -7019636.84849  -5460835.78545  23288312.686    23288319.809
  23515546.310     6405318.61049   4974029.74945  23515545.276    23515552.453
  24227932.091    -3681025.75849  -2853375.57645  24227931.692    24227940.530
  24011075.583     6963661.70949   5409045.49045  24011075.718    24011083.104
  20942664.497    -4042762.91749  -3146849.35147  20942663.905    20942668.093
  22725740.046    -3187489.19649  -2477743.60546  22725739.778    22725745.821
  23617988.042    -5866933.32849  -4557135.54645  23617987.478    23617993.197
  20297599.948    -1239991.31249   -966453.91248  20297599.704    20297605.018
  20771332.863    -2108918.64249  -1642839.70347  20771332.266    20771338.304
  22001169.989    -6708863.90949  -5213833.63346  22001170.017    22001176.310
  22242711.184    -8535333.79249  -6631097.76746  22242710.742    22242716.135
 03  6  7 16 57 30.0000000  0 11G15G10G23G30G21G29G16G 6G17G26G18
  23274154.871    -7094039.75949  -5518812.01045  23274154.248    23274161.406
  23534956.245     6507318.32549   5053510.00445  23534955.210    23534962.398
  24209078.425    -3780102.02849  -2930577.70945  24209077.935    24209086.939
  24030904.962     7067864.96949   5490242.72745  24030905.020    24030912.430
  20936745.334    -4073868.51449  -3171087.47347  20936744.723    20936748.859
  22724072.766    -3196249.94349  -2484570.15446  22724072.672    22724078.674
  23609510.361    -5911483.53149  -4591849.97245  23609509.837    23609515.479
  20300362.381    -1225474.77649   -955142.33448  20300362.142    20300367.409
  20770072.590    -2115541.52549  -1648000.39247  20770071.978    20770078.011
  21990365.097    -6765644.19149  -5258077.96946  21990365.127    21990371.313
  22226320.629    -8621466.55749  -6698214.15246  22226320.189    22226325.566
 03  6  7 16 58  0.0000000  0 11G15G10G23G30G21G29G16G 6G17G26G18
  23260015.349    -7168343.03849  -5576710.59045  23260014.757    23260022.019
  23554391.691     6609452.15349   5133094.74145  23554390.674    23554397.896
  24190259.406    -3878995.44349  -3007637.39245  24190259.003    24190268.036
  24050734.770     7172071.02849   5571442.12145  24050734.923    24050742.285
  20930864.857    -4104770.67549  -3195167.07047  20930864.234    20930868.380
  22722507.552    -3204474.50849  -2490978.87146  22722507.506    22722513.600
  23601130.053    -5955522.64649  -4626166.14845  23601129.548    23601135.153
  20303215.504    -1210481.59149   -943459.33748  20303215.267    20303220.528
  20768849.419    -2121969.28949  -1653009.03547  20768848.815    20768854.834
  21979656.225    -6821919.54549  -5301928.84946  21979656.250    21979662.415
  22209990.108    -8707284.10349  -6765084.90746  22209989.664    22209994.961
 03  6  7 16 58 30.0000000  0 11G15G10G23G30G21G29G16G 6G17G26G18
  23245894.779    -7242546.60749  -5634531.49745  23245894.153    23245901.463
  23573852.126     6711717.73849   5212782.17045  23573851.212    23573858.477
  24171475.747    -3977704.17849  -3084553.21245  24171475.296    24171484.230
  24070564.597     7276277.03449   5652641.50945  24070564.754    24070572.085
  20925023.032    -4135469.51149  -3219088.23647  20925022.418    20925026.572
  22721044.853    -3212162.33649  -2496969.37146  22721044.578    22721050.670
  23592847.087    -5999049.54249  -4660083.19745  23592846.602    23592852.239
  20306159.438    -1195011.16349   -931404.46248  20306159.189    20306164.447
  20767663.485    -2128201.54449  -1657865.34347  20767662.866    20767668.891
  21969044.005    -6877687.14049  -5345384.07346  21969044.017    21969050.184
  22193719.773    -8792785.24449  -6831709.11846  22193719.318    22193724.568
 03  6  7 16 59  0.0000000  0 11G15G10G23G30G21G29G16G 6G17G26G18
  23231793.255    -7316650.59749  -5692274.80945  23231792.605    23231799.853
  23593337.167     6814112.37749   5292570.12845  23593336.243    23593343.614
  24152727.451    -4076226.80549  -3161323.99045  24152726.965    24152735.812
  24090393.935     7380479.81949   5733838.38945  24090393.987    24090401.258
  20919219.867    -4165965.20449  -3242851.10947  20919219.266    20919223.407
  22719684.132    -3219312.69149  -2502541.07046  22719683.930    22719689.976
  23584661.826    -6042063.24249  -4693600.35145  23584661.359    23584667.050
  20309194.206    -1179063.36649   -918977.61248  20309193.968    20309199.222
  20766514.610    -2134238.98849  -1662569.84747  20766513.992    20766520.007
  21958528.888    -6932944.49649  -5388441.71346  21958528.887    21958535.000
  22177509.957    -8877968.63349  -6898085.72846  22177509.440    22177514.678
 03  6  7 16 59 30.0000000  0 11G15G10G23G30G21G29G16G 6G17G26G18
  23217710.666    -7390654.64949  -5749940.22645  23217710.063    23217717.381
  23612846.372     6916633.51449   5372456.68645  23612845.377    23612852.835
  24134014.958    -4174561.48849  -3237948.30045  24134014.420    24134023.171
  24110222.011     7484676.84949   5815030.74145  24110222.080    24110229.367
  20913455.461    -4196257.19049  -3266455.24947  20913454.856    20913459.010
  22718426.018    -3225924.78249  -2507693.32546  22718425.691    22718431.762
  23576574.574    -6084562.22349  -4726716.40845  23576574.068    23576579.846
  20312319.945    -1162637.53449   -906178.26948  20312319.704    20312324.978
  20765402.819    -2140081.53749  -1667122.48247  20765402.181    20765408.234
  21948111.454    -6987688.46449  -5431099.32646  21948111.429    21948117.544
  22161360.785    -8962832.62549  -6964213.46446  22161360.280    22161365.514
 03  6  7 17  0  0.0000000  0 11G15G10G23G30G21G29G16G 6G17G26G18
  23203647.269    -7464558.65649  -5807527.69945  23203646.590    23203653.864
  23632379.204     7019278.81849   5452439.97645  23632378.195    23632385.623
  24115338.564    -4272706.25449  -3314424.65545  24115337.979    24115346.754
  24130048.512     7588865.47549   5896216.57445  24130048.555    24130056.015
  20907729.847    -4226345.40149  -3289900.60347  20907729.250    20907733.426
  22717270.436    -3231997.52749  -2512425.32846  22717270.102    22717276.191
  23568585.358    -6126545.20949  -4759430.40445  23568584.948    23568590.757
  20315536.812    -1145732.85249   -893005.79248  20315536.557    20315541.851
  20764328.010    -2145729.47149  -1671523.46847  20764327.385    20764333.461
  21937792.237    -7041916.40949  -5473354.83146  21937792.143    21937798.293
  22145272.776    -9047375.08249  -7030090.64746  22145272.327    22145277.539
 03  6  7 17  0 30.0000000  0 11G15G10G23G30G21G29G16G 6G17G26G18
  23189602.808    -7538362.36849  -5865037.02545  23189602.203    23189609.330
  23651935.291     7122046.09949   5532518.32545  23651934.236    23651941.669
  24096698.610    -4370659.29049  -3390751.57345  24096698.014    24096706.854
  24149872.897     7693043.05749   5977393.80745  24149872.902    24149880.323
  20902043.039    -4256229.56849  -3313186.95947  20902042.457    20902046.650
  22716217.565    -3237530.22149  -2516736.50546  22716217.231    22716223.337
  23560694.607    -6168011.06049  -4791741.44245  23560694.181    23560700.024
  20318844.888    -1128348.94649   -879459.89848  20318844.637    20318849.933
  20763290.333    -2151182.59049  -1675772.65347  20763289.724    20763295.787
  21927571.685    -7095625.23649  -5515205.83246  21927571.608    21927577.805
  22129246.261    -9131594.69949  -7095716.26746  22129245.812    22129251.055
 03  6  7 17  1  0.0000000  0 11G15G10G23G30G21G29G16G 6G17G26G18
  23175577.472    -7612065.36149  -5922467.86945  23175576.942    23175583.942
  23671514.017     7224933.26349   5612690.08045  23671513.033    23671520.474
  24078095.549    -4468418.79449  -3466927.68045  24078094.882    24078103.771
  24169694.542     7797206.99449   6058560.38945  24169694.648    24169702.172
  20896395.085    -4285909.78949  -3336314.40147  20896394.497    20896398.708
  22715267.653    -3242521.77549  -2520626.01546  22715267.407    22715273.466
  23552902.438    -6208958.35849  -4823648.41045  23552902.066    23552908.063
  20322244.276    -1110485.02949   -865539.97048  20322244.013    20322249.326
  20762289.692    -2156441.01049  -1679870.12547  20762289.076    20762295.126
  21917450.567    -7148811.90249  -5556649.95446  21917450.525    21917456.705
  22113281.500    -9215489.87649  -7161089.07846  22113281.024    22113286.275
 03  6  7 17  1 30.0000000  0 11G15G10G23G30G21G29G16G 6G17G26G18
  23161571.299    -7685667.87849  -5979820.42445  23161570.819    23161577.763
  23691114.989     7327937.33849   5692952.93745  23691114.143    23691121.577
  24059529.522    -4565983.42649  -3542951.95745  24059528.815    24059537.728
  24189513.211     7901354.36649   6139714.05945  24189513.268    24189520.823
  20890785.922    -4315386.32549  -3359283.12347  20890785.350    20890789.515
  22714420.889    -3246972.04449  -2524093.74946  22714420.574    22714426.552
  23545209.229    -6249386.24349  -4855150.63845  23545208.841    23545214.826
  20325735.041    -1092140.98349   -851245.91648  20325734.807    20325740.112
  20761326.077    -2161504.83449  -1683815.96447  20761325.463    20761331.540
  21907429.291    -7201474.06749  -5597685.37246  21907429.243    21907435.433
  22097378.801    -9299059.20849  -7226207.99147  22097378.343    22097383.539
 03  6  7 17  2  0.0000000  0 11G15G10G23G30G21G29G16G 6G17G26G18
  23147584.319    -7759170.34249  -6037094.99945  23147583.791    23147590.661
  23710737.677     7431055.49549   5773304.68345  23710736.878    23710744.347
  24041000.989    -4663351.61749  -3618823.17145  24041000.342    24041009.095
  24209328.121     8005481.90649   6220852.26845  24209328.070    24209335.763
  20885215.486    -4344659.35949  -3382093.27447  20885214.906    20885219.041
  22713677.091    -3250880.41149  -2527139.22046  22713676.899    22713682.812
  23537615.173    -6289293.99849  -4886247.57845  23537614.718    23537620.518
  20329317.169    -1073316.73149   -836577.67648  20329316.927    20329322.221
  20760399.408    -2166374.59049  -1687610.57347  20760398.785    20760404.858
  21897508.190    -7253609.32349  -5638310.20646  21897508.180    21897514.415
  22081538.330    -9382301.53249  -7291072.08547  22081537.830    22081543.059
 03  6  7 17  2 30.0000000  0 11G15G10G23G30G21G29G16G 6G17G26G18
  23133616.461    -7832571.74449  -6094290.83745  23133615.891    23133622.788
  23730381.914     7534286.13749   5853744.10245  23730381.079    23730388.500
  24022510.172    -4760521.16349  -3694539.59545  24022509.533    24022518.193
  24229138.756     8109587.60949   6301973.48645  24229138.777    24229146.648
  20879683.832    -4373728.55649  -3404744.58747  20879683.256    20879687.390
  22713036.623    -3254245.83149  -2529761.60846  22713036.512    22713042.348
  23530120.349    -6328679.65049  -4916937.67345  23530119.897    23530125.654
  20332990.896    -1054011.22449   -821534.42948  20332990.644    20332995.943
  20759509.755    -2171049.72449  -1691253.53747  20759509.111    20759515.210
  21887688.043    -7305214.38949  -5678521.91046  21887688.049    21887694.255
  22065760.434    -9465214.68149  -7355679.68047  22065759.952    22065765.182
 03  6  7 17  3  0.0000000  0 11G15G10G23G30G21G29G16G 6G17G26G18
  23119667.729    -7905872.54949  -6151408.29945  23119667.147    23119674.041
  23750046.968     7637626.21049   5934268.77845  23750045.985    23750053.494
  24004057.344    -4857490.83949  -3770100.27945  24004056.677    24004065.262
  24248944.512     8213668.13049   6383075.06645  24248944.675    24248952.655
  20874191.044    -4402593.42449  -3427236.69147  20874190.449    20874194.589
  22712499.651    -3257068.17449  -2531960.83646  22712499.434    22712505.285
  23522724.888    -6367542.83149  -4947220.65345  23522724.447    23522730.263
  20336756.122    -1034224.81049   -806116.45548  20336755.867    20336761.177
  20758657.084    -2175530.65549  -1694745.17247  20758656.451    20758662.541
  21877969.135    -7356287.16149  -5718318.84746  21877969.227    21877975.371
  22050045.281    -9547797.98349  -7420030.25247  22050044.802    22050050.033
 03  6  7 17  3 30.0000000  0 11G15G10G23G30G21G29G16G 6G17G26G18
  23105738.197    -7979072.30949  -6208447.00145  23105737.601    23105744.548
  23769732.476     7741073.71949   6014877.16745  23769731.478    23769738.898
  23985643.089    -4954258.62249  -3845503.64645  23985642.475    23985650.874
  24268745.310     8317721.26549   6464155.29445  24268745.567    24268753.430
  20868737.160    -4431253.78649  -3449569.43847  20868736.574    20868740.695
  22712066.173    -3259346.36649  -2533736.04146  22712065.884    22712071.705
  23515429.073    -6405882.34549  -4977095.58345  23515428.638    23515434.441
  20340613.030    -1013956.61049   -790323.06248  20340612.787    20340618.105
  20757841.382    -2179817.12549  -1698085.28147  20757840.746    20757846.865
  21868352.194    -7406824.48649  -5757698.54346  21868352.245    21868358.372
  22034393.249    -9630049.50649  -7484122.29647  22034392.807    22034398.052
 03  6  7 17  4  0.0000000  0 11G15G10G23G30G21G29G16G 6G17G26G18
  23091827.975    -8052171.02049  -6265406.98645  23091827.341    23091834.285
  23789437.983     7844626.27549   6095567.41645  23789436.995    23789444.341
  23967267.422    -5050823.02849  -3920748.51745  23967266.817    23967275.223
  24288540.324     8421744.04049   6545211.86245  24288540.653    24288548.495
  20863322.121    -4459710.12049  -3471743.19947  20863321.533    20863325.648
  22711736.262    -3261080.04749  -2535086.96146  22711735.962    22711741.764
  23508233.241    -6443696.92549  -5006561.46445  23508232.809    23508238.476
  20344561.681     -993206.25049   -774153.95948  20344561.423    20344566.770
  20757062.524    -2183910.05049  -1701274.57547  20757061.895    20757068.008
  21858837.670    -7456823.76949  -5796658.98846  21858837.652    21858843.805
  22018804.624    -9711968.01649  -7547954.84447  22018804.179    22018809.392
 03  6  7 17  4 30.0000000  0 11G15G10G23G30G21G29G16G 6G17G26G18
  23077936.949    -8125168.71249  -6322288.23945  23077936.287    23077943.231
  23809162.826     7948281.21249   6176337.45045  23809161.930    23809169.248
  23948930.789    -5147182.49149  -3995833.71645  23948930.221    23948938.531
  24308328.874     8525733.71549   6626242.65645  24308329.263    24308337.111
  20857945.891    -4487962.31249  -3493757.88947  20857945.305    20857949.422
  22711510.069    -3262268.92249  -2536013.34846  22711509.699    22711515.496
  23501137.479    -6480985.86249  -5035617.76245  23501137.041    23501142.578
  20348602.112     -971973.67249   -757609.09548  20348601.856    20348607.203
  20756320.649    -2187808.76349  -1704312.53647  20756320.009    20756326.122
  21849425.989    -7506282.70449  -5835198.39146  21849425.857    21849432.060
  22003279.640    -9793552.11949  -7611526.81447  22003279.187    22003284.421
 03  6  7 17  5  0.0000000  0 11G15G10G23G30G21G29G16G 6G17G26G18
  23064065.300    -8198064.61549  -6379090.18146  23064064.630    23064071.615
  23828906.894     8052036.72749   6257185.84545  23828906.002    23828913.293
  23930633.382    -5243334.83649  -4070757.51745  23930632.858    23930641.368
  24328110.639     8629688.01749   6707245.85545  24328111.009    24328119.135
  20852608.638    -4516009.76349  -3515613.04247  20852608.070    20852612.160
  22711387.585    -3262911.83649  -2536514.31546  22711387.393    22711393.187
  23494141.952    -6517747.67349  -5064263.31045  23494141.474    23494147.021
  20352734.483     -950258.06149   -740687.85048  20352734.235    20352739.604
  20755615.691    -2191513.25349  -1707199.15647  20755615.067    20755621.182
  21840117.537    -7555198.12049  -5873314.26146  21840117.501    21840123.693
  21987818.675    -9874799.91449  -7674836.73347  21987818.220    21987823.459
 03  6  7 17  5 30.0000000  0 11G15G10G23G30G21G29G16G 6G17G26G18
  23050212.935    -8270859.04249  -6435813.05646  23050212.300    23050219.212
  23848669.642     8155890.33249   6338110.66345  23848668.670    23848676.027
  23912375.642    -5339278.74749  -4145518.89545  23912375.167    23912383.648
  24347885.478     8733603.92949   6788219.16445  24347885.749    24347893.855
  20847310.419    -4543852.20349  -3537308.44947  20847309.838    20847313.935
  22711369.308    -3263008.54349  -2536589.67146  22711368.997    22711374.815
  23487246.909    -6553981.64749  -5092497.56645  23487246.478    23487251.970
  20356958.742     -928059.45149   -723390.24048  20356958.481    20356963.849
  20754947.655    -2195023.88049  -1709934.71147  20754947.039    20754953.145
  21830913.103    -7603567.65349  -5911004.78446  21830913.103    21830919.291
  21972421.881    -9955710.21449  -7737883.66947  21972421.469    21972426.689
 03  6  7 17  6  0.0000000  0 11G15G10G23G30G21G29G16G 6G17G26G18
  23036379.905    -8343552.09649  -6492456.94445  23036379.227    23036386.093
  23868450.544     8259839.26649   6419109.78645  23868449.536    23868456.881
  23894157.975    -5435012.89449  -4220116.82145  23894157.499    23894165.989
  24367652.398     8837478.51549   6869160.27145  24367652.535    24367660.767
  20842051.101    -4571489.98649  -3558844.37947  20842050.509    20842054.618
  22711454.894    -3262558.84249  -2536239.24346  22711454.557    22711460.392
  23480452.452    -6589687.10349  -5120319.99245  23480451.971    23480457.360
  20361274.909     -905377.79649   -705716.23548  20361274.663    20361280.034
  20754316.484    -2198340.96549  -1712519.45147  20754315.846    20754321.962
  21821813.035    -7651389.07849  -5948268.19346  21821813.033    21821819.113
  21957089.520   -10036282.16649  -7800666.95047  21957089.103    21957094.291
 03  6  7 17  6 30.0000000  0 11G15G10G23G30G21G29G16G 6G17G26G18
  23022566.169    -8416143.39249  -6549021.51746  23022565.470    23022572.416
  23888249.229     8363881.52249   6500181.60445  23888248.150    23888255.575
  23875980.786    -5530535.16849  -4294549.65145  23875980.133    23875988.562
  24387410.827     8941309.37249   6950067.29145  24387410.946    24387419.261
  20836830.723    -4598923.10149  -3580220.82947  20836830.153    20836834.258
  22711644.379    -3261561.96249  -2535462.45646  22711644.276    22711650.075
  23473758.628    -6624862.85349  -5147729.65645  23473758.205    23473763.532
  20365683.098     -882212.53949   -687665.40148  20365682.861    20365688.248
  20753722.194    -2201463.92649  -1714952.93247  20753721.568    20753727.655
  21812817.638    -7698659.67849  -5985102.39346  21812817.681    21812823.759
  21941821.980   -10116513.85149  -7863185.09847  21941821.493    21941826.708
 03  6  7 17  7  0.0000000  0 11G15G10G23G30G21G29G16G 6G17G26G18
  23008771.829    -8488632.91649  -6605506.82146  23008771.199    23008778.039
  23908065.252     8468014.60249   6581324.19745  23908064.091    23908071.528
  23857843.954    -5625844.03449  -4368816.19245  23857843.489    23857851.865
  24407160.457     9045093.92649   7030938.23345  24407160.663    24407168.996
  20831649.370    -4626151.27249  -3601437.57947  20831648.810    20831652.911
  22711938.232    -3260017.58349  -2534259.03946  22711938.083    22711943.926
  23467165.825    -6659508.00049  -5174725.86545  23467165.419    23467170.752
  20370183.418     -858563.34649   -669237.46648  20370183.186    20370188.586
  20753164.839    -2204392.81749  -1717235.18547  20753164.243    20753170.309
  21803927.614    -7745376.81349  -6021505.31246  21803927.645    21803933.763
  21926619.356   -10196403.86749  -7925436.99947  21926618.888    21926624.107
 03  6  7 17  7 30.0000000  0 11G15G10G23G30G21G29G16G 6G17G26G18
  22994996.787    -8561020.35349  -6661912.56445  22994996.136    22995003.088
  23927898.137     8572236.45549   6662535.97445  23927897.032    23927904.305
  23839748.216    -5720937.79949  -4442915.13345  23839747.567    23839755.865
  24426900.758     9148829.47249   7111771.00345  24426900.798    24426909.456
  20826507.135    -4653174.00349  -3622494.25347  20826506.569    20826510.639
  22712336.507    -3257925.18249  -2532628.60146  22712336.287    22712342.140
  23460674.253    -6693621.51349  -5201307.81445  23460673.774    23460679.134
  20374775.872     -834429.92949   -650432.21748  20374775.626    20374781.038
  20752644.356    -2207128.09549  -1719366.57247  20752643.764    20752649.806
  21795143.425    -7791537.84649  -6057474.90746  21795143.516    21795149.611
  21911482.028   -10275950.90449  -7987421.65447  21911481.587    21911486.774
 03  6  7 17  8  0.0000000  0 11G15G10G23G30G21G29G16G 6G17G26G18
  22981241.251    -8633305.81849  -6718238.84345  22981240.618    22981247.544
  23947747.279     8676544.54949   6743814.94345  23947746.200    23947753.529
  23821693.577    -5815815.09149  -4516845.37345  23821692.866    23821701.335
  24446631.291     9252513.05049   7192563.24945  24446631.348    24446640.048
  20821403.907    -4679991.63949  -3643391.11147  20821403.352    20821407.424
  22712838.994    -3255284.57849  -2530570.99546  22712838.759    22712844.593
  23454284.003    -6727202.80949  -5227475.05745  23454283.557    23454288.870
  20379460.442     -809812.32749   -631249.67948  20379460.183    20379465.593
  20752160.747    -2209669.49349  -1721346.88447  20752160.119    20752166.185
  21786465.520    -7837140.58149  -6093009.47246  21786465.584    21786471.674
  21896410.164   -10355153.88249  -8049138.21147  21896409.711    21896414.859
 03  6  7 17  8 30.0000000  0 11G15G10G23G30G21G29G16G 6G17G26G18
  22967505.376    -8705488.49749  -6774485.03446  22967504.747    22967511.626
  23967612.488     8780937.03249   6825159.66645  23967611.437    23967618.771
  23803680.565    -5910473.79149  -4590605.30545  23803679.935    23803688.247
  24466351.356     9356142.52349   7273313.35245  24466351.586    24466360.256
  20816339.817    -4706603.75149  -3664127.81847  20816339.248    20816343.330
  22713445.852    -3252095.08949  -2528085.67946  22713445.728    22713451.466
  23447995.128    -6760250.61349  -5253226.56645  23447994.671    23448000.087
  20384237.300     -784709.91749   -611689.37048  20384237.056    20384242.441
  20751714.029    -2212016.84649  -1723175.98647  20751713.428    20751719.494
  21777894.396    -7882182.31249  -6128106.89246  21777894.438    21777900.497
  21881404.192   -10434010.69449  -8110585.02447  21881403.730    21881408.849
 03  6  7 17  9  0.0000000  0 11G15G10G23G30G21G29G16G 6G17G26G18
  22953788.944    -8777568.69549  -6830651.36545  22953788.323    22953795.179
  23987493.290     8885410.89449   6906567.80645  23987492.095    23987499.692
  23785709.439    -6004912.91949  -4664194.11145  23785708.836    23785716.999
  24486060.646     9459714.82949   7354018.92145  24486060.873    24486069.268
  20811314.779    -4733010.47349  -3684704.48147  20811314.207    20811318.278
  22714157.308    -3248356.83649  -2525172.75046  22714157.076    22714162.861
  23441807.864    -6792764.57749  -5278562.12545  23441807.374    23441812.856
  20389106.310     -759123.00749   -591751.52048  20389106.076    20389111.470
  20751304.173    -2214170.68749  -1724854.30547  20751303.571    20751309.649
  21769430.421    -7926660.83549  -6162765.44646  21769430.467    21769436.406
  21866464.196   -10512520.74249  -8171761.62847  21866463.702    21866468.802
 03  6  7 17  9 30.0000000  0 11G15G10G23G30G21G29G16G 6G17G26G18
  22940092.096    -8849546.14049  -6886737.64046  22940091.456    22940098.227
  24007389.174     8989964.09849   6988037.78945  24007388.060    24007395.562
  23767780.229    -6099130.66949  -4737610.45945  23767779.689    23767787.790
  24505758.631     9563227.54149   7434678.05845  24505758.757    24505767.283
  20806328.931    -4759211.36349  -3705120.75647  20806328.349    20806332.435
  22714973.307    -3244069.17449  -2521831.69946  22714973.011    22714978.866
  23435722.447    -6824743.68849  -5303480.89545  23435721.987    23435727.520
  20394067.647     -733051.15149   -571435.78948  20394067.431    20394072.825
  20750931.211    -2216130.59649  -1726381.50747  20750930.610    20750936.715
  21761074.064    -7970573.66649  -6196983.19646  21761074.122    21761080.038
  21851590.435   -10590682.39149  -8232666.76247  21851590.009    21851595.070
 03  6  7 17 10  0.0000000  0 11G15G10G23G30G21G29G16G 6G17G26G18
  22926414.814    -8921420.61349  -6942743.67146  22926414.194    22926420.860
  24027299.797     9094594.54149   7069567.95145  24027298.607    24027306.202
  23749893.373    -6193125.44849  -4810853.02045  23749892.772    23749901.173
  24525444.550     9666678.03949   7515288.67045  24525444.568    24525453.208
  20801382.267    -4785206.15949  -3725376.43847  20801381.713    20801385.779
  22715893.808    -3239231.75349  -2518062.28046  22715893.464    22715899.382
  23429738.952    -6856187.37249  -5327982.45245  23429738.489    23429744.018
  20399121.273     -706494.10149   -550741.99848  20399121.062    20399126.461
  20750595.097    -2217896.97349  -1727757.90847  20750594.502    20750600.596
  21752825.829    -8013918.32849  -6230758.20946  21752825.892    21752831.808
  21836783.261   -10668494.44049  -8293299.47747  21836782.800    21836787.856
 03  6  7 17 10 30.0000000  0 11G15G10G23G30G21G29G16G 6G17G26G18
  22912757.215    -8993191.97449  -6998669.34746  22912756.528    22912763.154
  24047224.679     9199299.91849   7151156.49245  24047223.393    24047231.043
  23732049.349    -6286895.83649  -4883920.74745  23732048.735    23732057.204
  24545118.323     9770063.65649   7595848.77645  24545118.358    24545127.109
  20796474.769    -4810995.08649  -3745471.69947  20796474.191    20796478.288
  22716918.982    -3233844.38949  -2513864.33146  22716918.675    22716924.629
  23423857.573    -6887094.66949  -5352066.04945  23423857.091    23423862.696
  20404267.289     -679451.78949   -529670.07848  20404267.090    20404272.485
  20750295.821    -2219469.52649  -1728983.27747  20750295.230    20750301.332
  21744686.146    -8056692.49649  -6264088.69246  21744686.237    21744692.150
  21822042.892   -10745955.51449  -8353658.70447  21822042.414    21822047.465
 03  6  7 17 11  0.0000000  0 11G15G10G23G30G21G29G16G 6G17G26G18
  22899119.183    -9064860.10349  -7054514.59146  22899118.450    22899125.175
  24067163.369     9304078.12849   7232801.78445  24067162.050    24067169.755
  23714248.498    -6380439.94449  -4956812.16245  23714247.888    23714256.215
  24564779.386     9873381.93449   7676356.36645  24564779.386    24564788.099
  20791606.527    -4836577.90349  -3765406.35947  20791605.951    20791610.045
  22718048.846    -3227906.71449  -2509237.55646  22718048.582    22718054.526
  23418078.360    -6917464.58949  -5375730.90345  23418077.882    23418083.529
  20409505.651     -651924.03849   -508219.89348  20409505.453    20409510.838
  20750033.520    -2220847.94549  -1730057.37447  20750032.921    20750039.028
  21736655.569    -8098893.62949  -6296972.65346  21736655.616    21736661.536
  21807369.521   -10823064.38049  -8413743.48447  21807369.052    21807374.117
 03  6  7 17 11 30.0000000  0 11G15G10G23G30G21G29G16G 6G17G26G18
  22885500.682    -9136424.88149  -7110279.30946  22885500.058    22885506.825
  24087115.432     9408927.09949   7314502.20945  24087114.247    24087121.870
  23696490.809    -6473756.19749  -5029526.01245  23696490.191    23696498.539
  24584426.859     9976630.26049   7756809.41545  24584427.016    24584435.777
  20786777.562    -4861954.20749  -3785180.09747  20786777.004    20786781.108
  22719283.511    -3221418.57749  -2504181.86746  22719283.218    22719289.159
  23412401.512    -6947296.61449  -5398976.63745  23412400.962    23412406.554
  20414836.467     -623910.64649   -486391.29348  20414836.243    20414841.602
  20749808.091    -2222032.43649  -1730980.35547  20749807.487    20749813.611
  21728734.400    -8140519.50349  -6329408.36346  21728734.430    21728740.350
  21792763.495   -10899819.16149  -8473552.36247  21792763.014    21792768.101
 03  6  7 17 12  0.0000000  0 11G15G10G23G30G21G29G16G 6G17G26G18
  22871901.975    -9207886.14949  -7165963.37446  22871901.352    22871908.162
  24107080.602     9513844.21049   7396255.74645  24107079.356    24107086.982
  23678776.929    -6566843.16549  -5102061.21345  23678776.245    23678784.631
  24604060.472    10079805.70749   7837205.69545  24604060.773    24604069.506
  20781987.907    -4887123.81149  -3804792.76947  20781987.359    20781991.467
  22720622.871    -3214379.88249  -2498697.15446  22720622.590    22720628.562
  23406827.177    -6976590.10049  -5421802.73045  23406826.661    23406832.079
  20420259.657     -595411.80749   -464184.41448  20420259.429    20420264.740
  20749619.554    -2223023.30549  -1731752.46147  20749618.978    20749625.077
  21720923.227    -8181567.91949  -6361394.12046  21720923.198    21720929.066
  21778225.003   -10976219.13249  -8533084.75647  21778224.529    21778229.618
 03  6  7 17 12 30.0000000  0 11G15G10G23G30G21G29G16G 6G17G26G18
  22858323.031    -9279243.80349  -7221566.70146  22858322.403    22858329.228
  24127058.281     9618827.27649   7478060.66445  24127057.096    24127064.624
  23661107.001    -6659699.35749  -5174416.60545  23661106.277    23661114.639
  24623679.897    10182905.97849   7917543.43345  24623680.290    24623688.919
  20777237.566    -4912086.79749  -3824244.44047  20777237.028    20777241.176
  22722067.020    -3206790.31249  -2492783.19446  22722066.811    22722072.840
  23401355.399    -7005344.47449  -5444208.72045  23401354.938    23401360.281
  20425775.260     -566427.23749   -441599.03948  20425775.030    20425780.330
  20749467.871    -2223820.49349  -1732373.64847  20749467.283    20749473.379
  21713222.217    -8222036.63249  -6392928.13246  21713222.159    21713228.080
  21763754.292   -11052262.99349  -8592339.66547  21763753.827    21763758.915
 03  6  7 17 13  0.0000000  0 11G15G10G23G30G21G29G16G 6G17G26G18
  22844763.863    -9350497.47349  -7277088.98746  22844763.250    22844770.106
  24147048.041     9723874.11149   7559915.26845  24147046.877    24147054.479
  23643481.236    -6752323.22749  -5246590.95445  23643480.559    23643488.922
  24643284.447    10285928.45949   7997820.55045  24643284.849    24643293.455
  20772526.701    -4936842.63649  -3843534.69847  20772526.149    20772530.295
  22723616.019    -3198649.77249  -2486439.92246  22723615.968    22723621.946
  23395986.353    -7033558.94049  -5466194.02445  23395985.926    23395991.189
  20431383.285     -536956.99349   -418635.22948  20431383.048    20431388.348
  20749353.060    -2224423.84449  -1732843.79347  20749352.492    20749358.553
  21705631.950    -8261923.34949  -6424008.64946  21705631.884    21705637.901
  21749351.655   -11127949.33149  -8651315.98647  21749351.188    21749356.234
 03  6  7 17 13 30.0000000  0 11G15G10G23G30G21G29G16G 6G17G26G18
  22831224.487    -9421647.11149  -7332530.22246  22831223.823    22831230.729
  24167049.507     9828982.64449   7641817.95745  24167048.371    24167056.060
  23625899.922    -6844713.27849  -5318583.12045  23625899.280    23625907.522
  24662873.741    10388870.51449   8078034.96545  24662874.038    24662882.835
  20767855.179    -4961391.66349  -3862663.80547  20767854.613    20767858.772
  22725269.904    -3189958.28049  -2479667.32946  22725269.973    22725275.824
  23390720.057    -7061232.95649  -5487758.17145  23390719.642    23390725.016
  20437083.685     -507001.09449   -395292.97448  20437083.461    20437088.730
  20749275.193    -2224833.15649  -1733162.73447  20749274.616    20749280.670
  21698153.029    -8301225.77049  -6454633.88346  21698152.861    21698158.867
  21735017.247   -11203277.11949  -8710012.91547  21735016.751    21735021.793
 03  6  7 17 14  0.0000000  0 11G15G10G23G30G21G29G16G 6G17G26G18
  22817705.076    -9492692.08149  -7387889.90946  22817704.412    22817711.177
  24187062.264     9934150.96049   7723767.22445  24187061.246    24187068.871
  23608363.402    -6936867.64949  -5390391.62245  23608362.731    23608371.044
  24682447.316    10491729.81149   8158184.88945  24682447.687    24682456.469
  20763223.057    -4985733.68149  -3881631.60847  20763222.500    20763226.673
  22727028.861    -3180715.41949  -2472465.08946  22727028.845    22727034.647
  23385556.804    -7088365.73649  -5508900.58845  23385556.397    23385561.811
  20442876.578     -476559.32749   -371572.13148  20442876.361    20442881.652
  20749234.246    -2225048.47349  -1733330.51347  20749233.665    20749239.690
  21690785.628    -8339941.63449  -6484802.06146  21690785.482    21690791.476
  21720751.282   -11278245.12249  -8768429.50047  21720750.827    21720755.820
 03  6  7 17 14 30.0000000  0 11G15G10G23G30G21G29G16G 6G17G26G18
  22804205.503    -9563632.81349  -7443168.34646  22804204.778    22804211.605
  24207086.084    10039376.42149   7805761.01745  24207085.083    24207092.787
  23590871.891    -7028785.33849  -5462015.69545  23590871.359    23590879.585
  24702004.666    10594503.09949   8238267.80745  24702005.017    24702013.771
  20758630.358    -5009868.49249  -3900437.95247  20758629.800    20758633.979
  22728892.572    -3170921.62849  -2464833.53746  22728892.555    22728898.257
  23380496.659    -7114957.08449  -5529621.09945  23380496.249    23380501.627
  20448761.858     -445632.00149   -347472.92848  20448761.627    20448766.932
  20749230.211    -2225069.75249  -1733347.09647  20749229.607    20749235.636
  21683530.160    -8378069.18249  -6514511.80446  21683530.105    21683536.025
  21706553.944   -11352852.27749  -8826564.90247  21706553.506    21706558.512
 03  6  7 17 15  0.0000000  0 11G15G10G23G30G21G29G16G 6G17G26G18
  22790725.737    -9634469.43949  -7498365.68546  22790724.979    22790731.721
  24227120.291    10144656.37249   7887797.27245  24227119.304    24227126.981
  23573425.891    -7120465.19549  -5533454.47245  23573425.407    23573433.356
  24721545.185    10697187.81849   8318281.72645  24721545.580    24721554.355
  20754077.109    -5033795.95149  -3919082.72347  20754076.552    20754080.728
  22730861.095    -3160577.11049  -2456772.88646  22730861.032    22730866.753
  23375539.583    -7141006.89049  -5549919.64745  23375539.201    23375544.521
  20454739.422     -414219.63549   -322995.76848  20454739.199    20454744.489
  20749262.938    -2224897.78949  -1733213.09847  20749262.335    20749268.360
  21676387.031    -8415606.47949  -6543761.61746  21676386.940    21676392.859
  21692425.483   -11427097.68349  -8884418.42347  21692425.047    21692430.045
 03  6  7 17 15 30.0000000  0 11G15G10G23G30G21G29G16G 6G17G26G18
  22777265.886    -9705201.31349  -7553481.38746  22777265.157    22777271.870
  24247164.595    10249989.60949   7969875.05845  24247163.558    24247171.168
  23556025.455    -7211905.11649  -5604706.26345  23556024.943    23556032.803
  24741068.373    10799781.91849   8398225.01045  24741068.655    24741077.464
  20749563.381    -5057515.61649  -3937565.57647  20749562.827    20749567.009
  22732934.617    -3149681.02649  -2448282.42346  22732934.377    22732940.203
  23370685.840    -7166513.76749  -5569795.13145  23370685.411    23370690.647
  20460809.442     -382321.41649   -298140.01448  20460809.226    20460814.527
  20749332.564    -2224531.94549  -1732928.02647  20749331.947    20749337.952
  21669356.714    -8452550.93249  -6572549.46346  21669356.607    21669362.544
  21678366.176   -11500979.59849  -8941988.70347  21678365.750    21678370.756
 03  6  7 17 16  0.0000000  0 11G15G10G23G30G21G29G16G 6G17G26G18
  22763825.990    -9775828.26849  -7608515.34546  22763825.292    22763831.982
  24267218.454    10355373.58049   8051992.37245  24267217.575    24267225.208
  23538670.908    -7303103.71549  -5675770.02745  23538670.299    23538678.098
  24760573.951    10902282.87849   8478095.72545  24760574.180    24760582.887
  20745089.242    -5081027.40349  -3955886.45147  20745088.694    20745092.883
  22735112.991    -3138233.84049  -2439362.53946  22735112.669    22735118.608
  23365935.274    -7191477.51249  -5589247.39945  23365934.980    23365940.167
  20466971.881     -349937.57149   -272905.85848  20466971.650    20466976.951
  20749439.075    -2223972.08549  -1732491.77947  20749438.483    20749444.501
  21662439.600    -8488900.38249  -6600873.68246  21662439.505    21662445.459
  21664376.274   -11574496.90149  -8999274.86547  21664375.845    21664380.844
 03  6  7 17 16 30.0000000  0 11G15G10G23G30G21G29G16G 6G17G26G18
  22750406.112    -9846349.78349  -7663467.14646  22750405.432    22750412.209
  24287281.618    10460806.57849   8134147.88545  24287280.845    24287288.494
  23521362.437    -7394059.31449  -5746644.42245  23521361.801    23521369.679
  24780061.499    11004688.46249   8557892.09145  24780061.540    24780070.077
  20740654.783    -5104330.69449  -3974044.85547  20740654.224    20740658.427
  22737396.178    -3126234.97949  -2430012.76946  22737395.948    22737401.935
  23361288.263    -7215897.34749  -5608275.83445  23361287.996    23361293.229
  20473226.766     -317067.88149   -247293.13247  20473226.540    20473231.846
  20749582.638    -2223217.65849  -1731903.91547  20749582.053    20749588.089
  21655636.081    -8524652.42649  -6628732.38646  21655636.095    21655642.062
  21650456.006   -11647648.35649  -9056275.95347  21650455.572    21650460.548
 03  6  7 17 17  0.0000000  0 11G15G10G23G30G21G29G16G 6G17G26G18
  22737006.296    -9916766.10949  -7718336.96446  22737005.629    22737012.447
  24307353.728    10566285.62749   8216339.27845  24307352.810    24307360.583
  23504100.440    -7484770.84649  -5817328.65345  23504099.871    23504107.729
  24799530.200    11106995.59749   8637611.76845  24799530.252    24799538.719
  20736259.922    -5127425.81349  -3992041.05147  20736259.356    20736263.557
  22739784.249    -3113685.15349  -2420233.67446  22739784.135    22739790.092
  23356744.842    -7239773.19249  -5626880.39145  23356744.502    23356749.766
  20479574.021     -283712.92249   -221302.27247  20479573.786    20479579.128
  20749763.073    -2222269.46749  -1731165.06747  20749762.488    20749768.526
  21648946.668    -8559805.61749  -6656124.45646  21648946.636    21648952.604
  21636605.450   -11720433.23249  -9112991.40547  21636605.040    21636610.029
 03  6  7 17 17 30.0000000  0 10G15G10G23G21G29G16G 6G17G26G18
  22723627.214    -9987073.73649  -7773122.09446  22723626.561    22723633.307
  24327434.722    10671812.03549   8298567.57645  24327433.798    24327441.706
  23486885.825    -7575233.66749  -5887819.08045  23486885.228    23486893.167
  20731905.338    -5150309.29449  -4009872.33447  20731904.771    20731908.997
  22742278.020    -3100581.02749  -2410022.66346  22742277.759    22742283.737
  23352305.737    -7263101.26049  -5645058.10945  23352305.385    23352310.644
  20486014.189     -249869.62749   -194930.88647  20486013.978    20486019.312
  20749981.109    -2221123.77749  -1730272.32247  20749980.527    20749986.535
  21642372.058    -8594354.70849  -6683045.80246  21642372.068    21642378.072
  21622825.530   -11792846.98649  -9169417.66347  21622825.120    21622830.096
 03  6  7 17 18  0.0000000  0 10G15G10G23G21G29G16G 6G17G26G18
  22710268.042   -10057276.78149  -7827825.73046  22710267.409    22710274.063
  24347523.628    10777379.97049   8380828.23045  24347522.861    24347530.779
  23469718.007    -7665450.28949  -5958117.65145  23469717.453    23469725.422
  20727590.328    -5172984.96649  -4027541.68247  20727589.758    20727593.923
  22744876.410    -3086927.00749  -2399383.16546  22744876.070    22744882.064
  23347970.056    -7285885.36649  -5662811.96645  23347969.656    23347974.982
  20492546.513     -215542.13849   -168182.20748  20492546.305    20492551.636
  20750235.903    -2219785.02949  -1729229.14647  20750235.311    20750241.327
  21635912.164    -8628301.69349  -6709497.96846  21635912.160    21635918.171
  21609115.701   -11864892.55249  -9225557.02647  21609115.271    21609120.229
 03  6  7 17 18 30.0000000  0 10G15G10G23G21G29G16G 6G17G26G18
  22696928.835   -10127374.44749  -7882447.25646  22696928.234    22696934.822
  24367620.119    10882987.86449   8463120.03745  24367619.368    24367627.402
  23452597.435    -7755418.85449  -6028222.93245  23452596.905    23452604.891
  20723314.968    -5195452.24149  -4045048.65247  20723314.398    20723318.539
  22747579.246    -3072722.51149  -2388314.73646  22747579.108    22747585.141
  23343738.077    -7308124.69749  -5680141.30545  23343737.676    23343743.047
  20499171.001     -180730.15549   -141055.99447  20499170.779    20499176.135
  20750527.618    -2218252.01949  -1728034.59547  20750527.029    20750533.079
  21629567.285    -8661644.29149  -6735479.18146  21629567.262    21629573.244
  21595476.139   -11936568.53149  -9281408.39447  21595475.713    21595480.707
 03  6  7 17 19  0.0000000  0 10G15G10G23G21G29G16G 6G17G26G18
  22683609.778   -10197366.43349  -7936986.43546  22683609.145    22683615.692
  24387723.769    10988633.27349   8545441.06945  24387723.060    24387730.982
  23435524.465    -7845137.87749  -6098133.78145  23435523.884    23435531.778
  20719079.312    -5217710.69949  -4062392.90347  20719078.780    20719082.894
  22750386.981    -3057967.82049  -2376817.56946  22750386.815    22750392.860
  23339609.860    -7329818.60749  -5697045.63945  23339609.394    23339614.865
  20505887.704     -145433.81349   -113552.36747  20505887.460    20505892.847
  20750856.327    -2216524.70649  -1726688.63947  20750855.732    20750861.795
  21623337.831    -8694380.28949  -6760987.72446  21623337.805    21623343.720
  21581907.193   -12007873.46249  -9336970.63847  21581906.787    21581911.764
 03  6  7 17 19 30.0000000  0 10G15G10G23G21G29G16G 6G17G26G18
  22670310.872   -10267252.34249  -7991442.94446  22670310.261    22670316.823
  24407834.153    11094314.23149   8627789.78445  24407833.518    24407841.463
  23418499.315    -7934605.95649  -6167849.05545  23418498.711    23418506.604
  20714883.456    -5239760.12249  -4079574.26847  20714882.935    20714887.018
  22753299.546    -3042663.03649  -2364891.75646  22753299.289    22753305.290
  23335585.500    -7350966.93749  -5713524.85645  23335585.070    23335590.414
  20512696.497     -109653.32749    -85671.46947  20512696.256    20512701.673
  20751221.933    -2214603.45649  -1725191.56247  20751221.338    20751227.390
  21617224.085    -8726507.97749  -6786022.26447  21617224.098    21617230.050
  21568409.097   -12078806.19149  -9392242.84547  21568408.701    21568413.685
 03  6  7 17 20  0.0000000  0 10G15G10G23G21G29G16G 6G17G26G18
  22657032.308   -10337031.31949  -8045816.14746  22657031.743    22657038.335
  24427951.292    11200029.20949   8710165.01045  24427950.441    24427958.411
  23401522.212    -8023820.84149  -6237367.05745  23401521.604    23401529.523
  20710727.545    -5261599.64649  -4096592.07647  20710727.022    20710731.116
  22756316.636    -3026807.55849  -2352536.83246  22756316.440    22756322.471
  23331665.236    -7371568.51149  -5729578.01445  23331664.774    23331670.060
  20519597.554      -73388.06749    -57412.83747  20519597.318    20519602.742
  20751624.640    -2212487.21349  -1723542.54447  20751624.030    20751630.093
  21611226.588    -8758024.73249  -6810580.74546  21611226.609    21611232.572
  21554982.128   -12149365.15949  -9447223.81547  21554981.747    21554986.723
 03  6  7 17 20 30.0000000  0 10G15G10G23G21G29G16G 6G17G26G18
  22643773.987   -10406704.06349  -8100106.55946  22643773.442    22643779.998
  24448074.238    11305775.51549   8792564.65545  24448073.461    24448081.428
  23384593.263    -8112782.01749  -6306687.36445  23384592.773    23384600.638
  20706611.476    -5283229.81849  -4113446.75347  20706610.941    20706615.031
  22759438.316    -3010402.46449  -2339753.64446  22759438.169    22759444.192
  23327848.748    -7391623.83549  -5745205.53045  23327848.397    23327853.688
  20526590.644      -36639.20049    -28777.36447  20526590.407    20526595.839
  20752064.208    -2210177.17749  -1721742.51947  20752063.605    20752069.666
  21605345.697    -8788929.49449  -6834662.35947  21605345.631    21605351.518
  21541626.442   -12219549.83549  -9501913.13547  21541626.033    21541630.969
 03  6  7 17 21  0.0000000  0 10G15G10G23G21G29G16G 6G17G26G18
  22630536.206   -10476269.30749  -8154313.22046  22630535.606    22630542.150
  24468202.971    11411552.16649   8874987.96445  24468202.125    24468210.158
  23367713.089    -8201487.20749  -6375808.20245  23367712.640    23367720.549
  20702535.443    -5304649.47049  -4130137.38947  20702534.903    20702538.984
  22762664.778    -2993446.94249  -2326541.55046  22762664.705    22762670.697
  23324136.541    -7411131.85849  -5760406.59045  23324136.157    23324141.483
  20533675.931         594.08849       235.57247  20533675.712    20533681.110
  20752540.965    -2207671.81549  -1719790.29647  20752540.375    20752546.446
  21599581.662    -8819219.42649  -6858264.88447  21599581.661    21599587.462
  21528342.347   -12289358.36249  -9556309.35147  21528341.909    21528346.804
 03  6  7 17 21 30.0000000  0 10G15G10G23G21G29G16G 6G17G26G18
  22617318.650   -10545727.65949  -8208436.56446  22617318.037    22617324.681
  24488336.942    11517356.23249   8957432.62145  24488336.008    24488343.848
  23350881.763    -8289935.82849  -6444729.11145  23350881.311    23350889.307
  20698499.407    -5325859.11349  -4146664.38147  20698498.857    20698502.937
  22765995.798    -2975942.10849  -2312901.42846  22765995.799    22766001.732
  23320528.382    -7430092.99049  -5775181.50445  23320527.925    23320533.324
  20540853.192       38310.80949     29625.21447  20540852.983    20540858.357
  20753054.749    -2204971.78949  -1717686.38547  20753054.140    20753060.237
  21593934.935    -8848893.40249  -6881387.43447  21593934.960    21593940.688
  21515129.812   -12358790.76449  -9610412.48547  21515129.356    21515134.192
 03  6  7 17 22  0.0000000  0 10G15G10G23G21G29G16G 6G17G26G18
  22604121.640   -10615078.31649  -8262476.00746  22604121.042    22604127.688
  24508475.641    11623186.12249   9039897.38345  24508474.875    24508482.662
  23334099.672    -8378126.06449  -6513448.69445  23334099.139    23334107.144
  20694503.405    -5346858.21049  -4163027.31347  20694502.844    20694506.928
  22769431.576    -2957887.74849  -2298833.09646  22769431.450    22769437.402
  23317024.357    -7448506.88749  -5789529.99445  23317023.841    23317029.299
  20548122.468       76510.94549     59391.53747  20548122.241    20548127.626
  20753605.665    -2202076.62449  -1715430.42047  20753605.068    20753611.179
  21588405.728    -8877949.40649  -6904028.44747  21588405.768    21588411.468
  21501989.091   -12427845.51749  -9664221.34047  21501988.643    21501993.484
 03  6  7 17 22 30.0000000  0 10G15G10G23G21G29G16G 6G17G26G18
  22590945.180   -10684320.96649  -8316431.30346  22590944.584    22590951.167
  24528619.078    11729039.96649   9122380.82945  24528618.351    24528626.099
  23317367.107    -8466056.42749  -6581965.75545  23317366.523    23317374.544
  20690547.533    -5367646.36249  -4179225.87147  20690546.992    20690551.051
  22772971.708    -2939284.21749  -2284336.82246  22772971.590    22772977.516
  23313624.521    -7466372.97849  -5803451.61145  23313624.024    23313629.578
  20555483.674      115194.34549     89534.43347  20555483.455    20555488.851
  20754193.811    -2198986.08249  -1713022.21347  20754193.211    20754199.308
  21582994.599    -8906385.40649  -6926186.35347  21582994.594    21583000.199
  21488920.481   -12496521.30549  -9717734.91147  21488920.070    21488924.889
 03  6  7 17 23  0.0000000  0 10G15G10G23G21G29G16G 6G17G26G18
  22577789.241   -10753455.74549  -8370302.53046  22577788.642    22577795.254
  24548766.374    11834915.27149   9204880.99045  24548765.804    24548773.626
  23300684.105    -8553725.99449  -6650279.62445  23300683.512    23300691.510
  20686631.853    -5388223.50749  -4195260.00947  20686631.303    20686635.361
  22776616.269    -2920132.19549  -2269413.18046  22776616.067    22776622.086
  23310328.989    -7483691.57749  -5816946.62545  23310328.486    23310333.978
  20562936.752      154360.46749    120053.48347  20562936.535    20562941.916
  20754818.986    -2195700.67149  -1710462.15947  20754818.418    20754824.475
  21577701.597    -8934200.19049  -6947860.19147  21577701.598    21577707.194
  21475924.031   -12564817.89149  -9770952.99047  21475923.597    21475928.435
 03  6  7 17 23 30.0000000  0 10G15G10G23G21G29G16G 6G17G26G18
  22564653.931   -10822481.99649  -8424089.18246  22564653.375    22564660.005
  24568917.645    11940810.46949   9287396.63345  24568916.962    24568924.841
  23284050.983    -8641133.01249  -6718388.88945  23284050.458    23284058.445
  20682756.376    -5408589.22449  -4211129.39547  20682755.816    20682759.894
  22780365.021    -2900431.48949  -2254061.98946  22780364.941    22780370.999
  23307137.598    -7500462.11349  -5830014.57145  23307137.125    23307142.660
  20570481.691      194009.34749    150948.70247  20570481.482    20570486.858
  20755481.423    -2192219.60349  -1707749.64447  20755480.840    20755486.882
  21572527.274    -8961391.68949  -6969048.35147  21572527.240    21572532.812
  21463000.086   -12632733.56149  -9823874.25347  21462999.665    21463004.494
 03  6  7 17 24  0.0000000  0 10G15G10G23G21G29G16G 6G17G26G18
  22551539.342   -10891399.87049  -8477791.40146  22551538.774    22551545.375
  24589072.528    12046723.39349   9369926.10645  24589071.650    24589079.604
  23267468.009    -8728276.46849  -6786292.78545  23267467.478    23267475.458
  20678921.124    -5428743.45449  -4226833.99247  20678920.581    20678924.645
  22784218.255    -2880182.95449  -2238283.91046  22784218.105    22784224.175
  23304050.516    -7516684.65449  -5842655.51045  23304050.122    23304055.650
  20578118.356      234140.23749    182219.50847  20578118.125    20578123.500
  20756181.104    -2188542.94949  -1704884.72647  20756180.515    20756186.551
  21567471.769    -8987958.41149  -6989749.67647  21567471.730    21567477.334
  21450148.698   -12700267.69949  -9876498.22147  21450148.281    21450153.128
 03  6  7 17 24 30.0000000  0 10G15G10G23G21G29G16G 6G17G26G18
  22538445.413   -10960209.01149  -8531408.88846  22538444.809    22538451.383
  24609230.377    12152652.26249   9452468.00745  24609229.504    24609237.311
  23250935.563    -8815154.94549  -6853990.21845  23250935.053    23250942.949
  20675126.284    -5448685.60649  -4242373.33247  20675125.748    20675129.783
  22788175.652    -2859386.59649  -2222078.96946  22788175.545    22788181.520
  23301067.806    -7532358.91849  -5854869.22645  23301067.457    23301072.953
  20585846.692      274753.02849    213865.82447  20585846.475    20585851.871
  20756917.959    -2184670.82149  -1701867.49047  20756917.365    20756923.401
  21562535.480    -9013898.70849  -7009962.87747  21562535.408    21562541.019
  21437370.198   -12767419.07449  -9928823.93847  21437369.798    21437374.621
 03  6  7 17 25  0.0000000  0 10G15G10G23G21G29G16G 6G17G26G18
  22525372.256   -11028909.00549  -8584941.31846  22525371.609    22525378.231
  24629390.654    12258595.02249   9535020.73545  24629389.808    24629397.749
  23234453.707    -8901767.01449  -6921480.06345  23234453.233    23234461.121
  20671371.812    -5468415.36049  -4257747.16747  20671371.288    20671375.331
  22792237.304    -2838042.99149  -2205447.57946  22792237.112    22792243.105
  23298189.470    -7547484.76649  -5866655.61345  23298189.039    23298194.595
  20593666.722      315847.44549    245887.43047  20593666.511    20593671.914
  20757692.123    -2180602.59049  -1698697.45047  20757691.539    20757697.565
  21557718.710    -9039210.74749  -7029686.52447  21557718.662    21557724.289
  21424664.722   -12834186.71249  -9980850.63947  21424664.343    21424669.131
 03  6  7 17 25 30.0000000  0 10G15G10G23G21G29G16G 6G17G26G18
  22512319.864   -11097499.70749  -8638388.57646  22512319.246    22512325.883
  24649553.186    12364549.71449   9617582.77845  24649552.380    24649560.508
  23218022.852    -8988111.63449  -6988761.50145  23218022.377    23218030.174
  20667657.779    -5487932.88949  -4272955.62947  20667657.269    20667661.276
  22796402.961    -2816152.53949  -2188390.09446  22796402.759    22796408.728
  23295415.325    -7562062.50849  -5878014.89045  23295414.930    23295420.565
  20601578.263      357422.89849    278283.88247  20601578.044    20601583.474
  20758503.599    -2176338.33849  -1695374.66547  20758502.997    20758509.044
  21553021.730    -9063893.22149  -7048919.59047  21553021.704    21553027.360
  21412032.395   -12900569.99549 -10032577.83647  21412032.009    21412036.833
 03  6  7 17 26  0.0000000  0 10G15G10G23G21G29G16G 6G17G26G18
  22499288.317   -11165980.88349  -8691750.50846  22499287.677    22499294.240
  24669717.652    12470514.48649   9700152.65145  24669716.860    24669724.766
  23201643.302    -9074187.35949  -7055833.41745  23201642.737    23201650.387
  20663984.246    -5507237.56849  -4287998.23547  20663983.702    20663987.721
  22800672.444    -2793715.78449  -2170906.90846  22800672.303    22800678.309
  23292745.525    -7576091.76849  -5888946.79045  23292745.129    23292750.809
  20609581.239      399479.04849    311054.89147  20609581.014    20609586.483
  20759352.440    -2171877.61749  -1691898.79047  20759351.860    20759357.888
  21548444.918    -9087944.38649  -7067660.73847  21548444.852    21548450.555
  21399473.433   -12966567.61349 -10084004.51847  21399473.033    21399477.891
 03  6  7 17 26 30.0000000  0 10G15G10G23G21G29G16G 6G17G26G18
  22486277.634   -11234352.09449  -8745026.74446  22486277.024    22486283.609
  24689883.741    12576487.32149   9782728.80745  24689882.720    24689890.763
  23185315.059    -9159992.63349  -7122694.58645  23185314.451    23185322.005
  20660351.274    -5526329.05749  -4302874.71947  20660350.747    20660354.740
  22805046.033    -2770732.95949  -2152998.22946  22805045.785    22805051.815
  23290180.114    -7589572.37549  -5899451.15645  23290179.744    23290185.562
  20617675.681      442015.55449    344200.20647  20617675.470    20617680.948
  20760238.653    -2167220.40449  -1688269.79747  20760238.076    20760244.122
  21543988.492    -9111362.54649  -7085908.64047  21543988.497    21543994.238
  21386988.013   -13032178.62449 -10135129.94747  21386987.637    21386992.512
 03  6  7 17 27  0.0000000  0 10G15G10G23G21G29G16G 6G17G26G18
  22473287.977   -11302613.14749  -8798217.15346  22473287.387    22473293.934
  24710050.790    12682466.30349   9865309.76145  24710049.869    24710058.009
  23169038.402    -9245526.48149  -7189344.26545  23169037.829    23169045.347
  20656758.907    -5545207.14549  -4317584.91747  20656758.374    20656762.365
  22809523.208    -2747204.89849  -2134664.67046  22809523.016    22809529.007
  23287719.180    -7602504.49649  -5909528.13645  23287718.808    23287724.709
  20625861.415      485031.75349    377719.30547  20625861.193    20625866.657
  20761162.273    -2162366.88949  -1684487.84947  20761161.687    20761167.747
  21539652.784    -9134146.56849  -7103662.40847  21539652.839    21539658.592
  21374576.290   -13097402.43049 -10185953.66147  21374575.939    21374580.819
 03  6  7 17 27 30.0000000  0  9G15G23G21G29G16G 6G17G26G18
  22460319.751   -11370761.71549  -8851319.90046  22460319.125    22460325.600
  23152814.109    -9330785.57149  -7255779.85046  23152813.521    23152821.006
  20653207.575    -5563869.45649  -4332126.97647  20653207.042    20653211.043
  22814104.440    -2723129.96649  -2115904.98446  22814104.384    22814110.305
  23285363.015    -7614886.23549  -5919176.24645  23285362.679    23285368.532
  20634138.720      528529.24649    411613.45047  20634138.493    20634143.999
  20762123.667    -2157314.57249  -1680550.98547  20762123.101    20762129.153
  21535438.534    -9156292.87149  -7120919.24547  21535438.536    21535444.289
  21362238.861   -13162235.99049 -10236473.29047  21362238.470    21362243.331
 03  6  7 17 28  0.0000000  0  9G15G23G21G29G16G 6G17G26G18
  22447372.896   -11438797.68949  -8904334.91646  22447372.228    22447378.781
  23136642.414    -9415768.71449  -7322000.40846  23136641.766    23136649.092
  20649697.300    -5582316.11949  -4346500.99247  20649696.772    20649700.764
  22818789.749    -2698508.97249  -2096719.79346  22818789.630    22818795.519
  23283111.488    -7626718.08449  -5928395.88545  23283111.147    23283117.055
  20642507.489      572507.47149    445882.17647  20642507.290    20642512.777
  20763122.930    -2152063.56449  -1676459.29347  20763122.330    20763128.391
  21531345.884    -9177800.28349  -7137678.24547  21531345.849    21531351.581
  21349975.807   -13226678.60049 -10286688.27947  21349975.420    21349980.229
 03  6  7 17 28 30.0000000  0  9G15G23G21G29G16G 6G17G26G18
  22434446.762   -11506724.71149  -8957265.04346  22434446.146    22434452.644
  23120522.531    -9500478.75349  -7388008.14846  23120521.896    23120529.273
  20646227.390    -5600550.55549  -4360709.63747  20646226.865    20646230.887
  22823578.111    -2673346.47849  -2077112.66346  22823577.926    22823583.815
  23280964.068    -7638003.65349  -5937189.83845  23280963.694    23280969.493
  20650966.909      616961.93149    480521.99247  20650966.723    20650972.183
  20764159.256    -2146617.60849  -1672215.69747  20764158.662    20764164.747
  21527374.257    -9198671.14149  -7153941.22147  21527374.219    21527379.940
  21337786.624   -13290733.36449 -10336601.05547  21337786.248    21337791.025
 03  6  7 17 29  0.0000000  0  9G15G23G21G29G16G 6G17G26G18
  22421541.697   -11574541.17449  -9010109.00846  22421541.050    22421547.580
  23104455.057    -9584913.19149  -7453801.14346  23104454.479    23104461.902
  20642798.182    -5618571.26349  -4374751.74547  20642797.639    20642801.653
  22828469.539    -2647641.76349  -2057083.02546  22828469.390    22828475.279
  23278920.693    -7648741.83349  -5945557.23845  23278920.298    23278926.049
  20659517.129      661893.40849    515533.51047  20659516.934    20659522.388
  20765232.925    -2140975.47949  -1667819.23647  20765232.339    20765238.436
  21523524.322    -9218902.81749  -7169706.14547  21523524.254    21523529.961
  21325671.548   -13354398.28249 -10386210.05147  21325671.145    21325675.948
 03  6  7 17 29 30.0000000  0  9G15G23G21G29G16G 6G17G26G18
  22408657.861   -11642246.57249  -9062866.44146  22408657.189    22408663.601
  23088440.347    -9669070.37149  -7519378.09746  23088439.796    23088447.269
  20639409.768    -5636377.49149  -4388626.73047  20639409.214    20639413.267
  22833464.148    -2621394.88049  -2036630.92246  22833464.072    22833469.921
  23276981.474    -7658932.48449  -5953498.02645  23276981.161    23276986.779
  20668158.062      707301.82349    550916.67247  20668157.872    20668163.342
  20766344.089    -2135136.30049  -1663269.23647  20766343.499    20766349.604
  21519796.244    -9238493.61049  -7184971.68547  21519796.225    21519801.912
  21313630.945   -13417671.98949 -10435514.21447  21313630.571    21313635.392
 03  6  7 17 30  0.0000000  0  9G15G23G21G29G16G 6G17G26G18
  22395795.028   -11709841.05949  -9115537.44646  22395794.374    22395800.767
  23072478.512    -9752949.72149  -7584738.54746  23072478.026    23072485.525
  20636062.118    -5653969.34349  -4402334.66347  20636061.582    20636065.635
  22838561.688    -2594607.20449  -2015757.41146  22838561.603    22838567.437
  23275146.406    -7668576.20249  -5961012.61745  23275146.062    23275151.570
  20676889.542      753185.99449    586670.55147  20676889.347    20676894.840
  20767492.684    -2129100.42549  -1658565.96047  20767492.104    20767498.196
  21516190.406    -9257442.81249  -7199737.27547  21516190.322    21516196.020
  21301664.841   -13480554.03449 -10484513.18047  21301664.465    21301669.291
 03  6  7 17 30 30.0000000  0  9G15G23G21G29G16G 6G17G26G18
  22382953.481   -11777323.16849  -9168120.88146  22382952.884    22382959.301
  23056570.115    -9836548.70049  -7649880.54646  23056569.589    23056577.135
  20632755.549    -5671345.39449  -4415874.43547  20632755.021    20632759.087
  22843762.167    -2567278.20249  -1994462.09146  22843762.133    22843768.000
  23273415.547    -7677671.97249  -5968100.22245  23273415.170    23273420.813
  20685711.698      799546.69349    622795.75547  20685711.510    20685717.033
  20768678.953    -2122866.41749  -1653708.29847  20768678.373    20768684.474
  21512706.949    -9275747.84249  -7214000.91447  21512706.983    21512712.701
  21289773.638   -13543042.56949 -10533205.52047  21289773.267    21289778.065
 03  6  7 17 31  0.0000000  0  9G15G23G21G29G16G 6G17G26G18
  22370133.450   -11844692.92949  -9220616.77646  22370132.800    22370139.269
  23040715.235    -9919866.38249  -7714803.34546  23040714.755    23040722.190
  20629490.028    -5688505.66949  -4429246.07447  20629489.502    20629493.573
  22849065.590    -2539408.73649  -1972745.63846  22849065.461    22849071.366
  23271788.864    -7686220.52249  -5974761.44645  23271788.515    23271794.064
  20694624.389      846382.95549    659291.52947  20694624.190    20694629.720
  20769902.892    -2116434.51349  -1648696.43047  20769902.316    20769908.440
  21509346.431    -9293407.62349  -7227761.76147  21509346.439    21509352.190
  21277957.382   -13605136.98349 -10581590.75347  21277957.047    21277961.869
 03  6  7 17 31 30.0000000  0 10G15G23G21G29G16G 6G17G26G18G 2
  22357334.071   -11911953.97649  -9273027.96146  22357333.460    22357339.966
  23024913.273   -10002905.77449  -7779509.28746  23024912.805    23024920.284
  20626264.898    -5705453.79949  -4442452.40747  20626264.374    20626268.438
  22854470.762    -2511003.65349  -1950611.82346  22854470.729    22854476.662
  23270265.534    -7694225.84649  -5980999.36345  23270265.151    23270270.720
  20703626.635      893690.08749    696154.21247  20703626.428    20703631.958
  20771163.823    -2109808.32849  -1643533.17847  20771163.243    20771169.366
  21506107.935    -9310425.22649  -7241022.21647  21506108.071    21506113.768
  21266215.557   -13666840.64649 -10629671.50647  21266215.226    21266220.007
  25236750.612    -2472741.50049  -1915208.51545  25236749.892    25236758.447
 03  6  7 17 32  0.0000000  0 10G15G23G21G29G16G 6G17G26G18G 2
  22344556.392   -11979101.01049  -9325350.30346  22344555.786    22344562.299
  23009165.460   -10085660.77649  -7843993.63746  23009165.037    23009172.490
  20623081.099    -5722184.82849  -4455489.56747  20623080.568    20623084.633
  22859978.937    -2482058.83149  -1928057.42246  22859978.726    22859984.723
  23268846.408    -7701683.25249  -5986810.34145  23268846.073    23268851.613
  20712719.305      941472.28449    733387.06747  20712719.103    20712724.630
  20772462.706    -2102982.75649  -1638214.55947  20772462.144    20772468.228
  21502993.055    -9326794.45849  -7253777.45447  21502993.148    21502998.746
  21254549.165   -13728147.75649 -10677443.25647  21254548.812    21254553.635
  25228964.818    -2513656.20149  -1947090.10345  25228964.091    25228972.591
 03  6  7 17 32 30.0000000  0 10G15G23G21G29G16G 6G17G26G18G 2
  22331800.630   -12046133.15549  -9377583.13246  22331800.017    22331806.470
  22993472.133   -10168129.78449  -7908255.13446  22993471.661    22993479.131
  20619938.810    -5738697.65649  -4468356.70747  20619938.284    20619942.376
  22865589.424    -2452574.61349  -1905082.72446  22865589.401    22865595.346
  23267531.616    -7708592.73049  -5992194.35445  23267531.253    23267536.813
  20721902.374      989729.35949    770989.95747  20721902.166    20721907.692
  20773799.620    -2095957.30549  -1632740.19247  20773799.048    20773805.142
  21500001.693    -9342513.72049  -7266026.21347  21500001.849    21500007.416
  21242958.436   -13789057.17349 -10724905.11447  21242958.106    21242962.939
  25221256.210    -2554165.88849  -1978656.10645  25221255.429    25221263.890
 03  6  7 17 33  0.0000000  0 10G15G23G21G29G16G 6G17G26G18G 2
  22319066.619   -12113050.87549  -9429726.78346  22319066.012    22319072.411
  22977833.173   -10250312.25649  -7972293.33446  22977832.737    22977840.203
  20616838.043    -5754992.28349  -4481053.81647  20616837.490    20616841.598
  22871302.663    -2422552.28849  -1881688.70946  22871302.447    22871308.394
  23266320.946    -7714955.12449  -5997152.07045  23266320.581    23266326.046
  20731175.552     1038460.10649    808961.94547  20731175.326    20731180.850
  20775174.421    -2088732.58249  -1627110.54447  20775173.847    20775179.965
  21497134.138    -9357582.37749  -7277768.01247  21497134.324    21497139.924
  21231443.471   -13849568.85149 -10772057.05047  21231443.098    21231447.891
  25213624.559    -2594270.12649  -2009906.16445  25213623.891    25213632.256
 03  6  7 17 33 30.0000000  0 10G15G23G21G29G16G 6G17G26G18G 2
  22306354.293   -12179854.52249  -9481781.55046  22306353.693    22306360.103
  22962248.974   -10332207.54549  -8036107.78646  22962248.566    22962255.949
  20613778.731    -5771069.09749  -4493581.20747  20613778.188    20613782.297
  22877117.784    -2391993.14849  -1857876.40846  22877117.661    22877123.650
  23265214.183    -7720771.56349  -6001684.37745  23265213.847    23265219.264
  20740538.613     1087663.33849    847302.11247  20740538.384    20740543.942
  20776587.117    -2081308.72149  -1621325.72247  20776586.568    20776592.677
  21494390.642    -9371999.91849  -7289002.44447  21494390.693    21494396.356
  21220004.269   -13909682.28449 -10818898.66847  21220003.897    21220008.654
  25206070.337    -2633968.57249  -2040840.00445  25206069.561    25206077.814
 03  6  7 17 34  0.0000000  0 10G15G23G21G29G16G 6G17G26G18G 2
  22293663.804   -12246543.71849  -9533747.12746  22293663.168    22293669.573
  22946719.728   -10413814.80349  -8099697.80246  22946719.257    22946726.524
  20610760.856    -5786928.05649  -4505938.83947  20610760.318    20610764.432
  22883034.983    -2360898.21749  -1833646.61146  22883034.844    22883040.816
  23264211.203    -7726042.27349  -6005791.43345  23264210.882    23264216.210
  20749991.425     1137338.23649    886009.80847  20749991.220    20749996.801
  20778037.758    -2073685.61749  -1615385.65147  20778037.224    20778043.330
  21491771.171    -9385765.38249  -7299728.76647  21491771.137    21491776.893
  21208640.861   -13969397.21749 -10865429.76247  21208640.484    21208645.258
  25198593.287    -2673260.52249  -2071457.11345  25198592.418    25198600.835
 03  6  7 17 34 30.0000000  0 10G15G23G21G29G16G 6G17G26G18G 2
  22280995.128   -12313118.09849  -9585623.24646  22280994.429    22281000.882
  22931245.376   -10495132.96649  -8163062.52946  22931244.830    22931252.077
  20607784.473    -5802569.07549  -4518126.64647  20607783.938    20607788.053
  22889053.914    -2329268.45549  -1809000.05746  22889053.768    22889059.774
  23263311.928    -7730767.62949  -6009473.53945  23263311.595    23263316.946
  20759533.863     1187484.01749    925084.42547  20759533.644    20759539.244
  20779526.431    -2065862.73549  -1609289.90847  20779525.854    20779531.981
  21489275.830    -9398877.79149  -7309946.22447  21489275.944    21489281.650
  21197353.475   -14028712.92949 -10911649.77647  21197353.078    21197357.855
  25191193.805    -2712145.33449  -2101756.95745  25191192.960    25191201.332
 03  6  7 17 35  0.0000000  0 10G15G23G21G29G16G 6G17G26G18G 2
  22268348.391   -12379576.65049  -9637409.11646  22268347.724    22268354.159
  22915826.318   -10576160.34549  -8226200.68946  22915825.824    22915832.995
  20604849.811    -5817990.93649  -4530143.68547  20604849.270    20604853.366
  22895174.595    -2297104.09849  -1783936.95346  22895174.480    22895180.436
  23262516.515    -7734947.71949  -6012730.76545  23262516.155    23262521.530
  20769165.818     1238100.48949    964525.80547  20769165.626    20769171.233
  20781053.314    -2057839.01849  -1603037.67247  20781052.757    20781058.881
  21486905.009    -9411335.75949  -7319653.72747  21486905.205    21486910.924
  21186142.280   -14087628.23049 -10957557.78447  21186141.889    21186146.640
  25183871.893    -2750621.53349  -2131738.40645  25183870.979    25183879.634
 03  6  7 17 35 30.0000000  0 10G15G23G21G29G16G 6G17G26G18G 2
  22255723.728   -12445919.41649  -9689104.76746  22255723.084    22255729.488
  22900462.741   -10656896.20049  -8289111.69146  22900462.200    22900469.428
  20601956.858    -5833193.50049  -4541989.84147  20601956.312    20601960.442
  22901396.833    -2264406.53349  -1758458.35046  22901396.662    22901402.615
  23261824.813    -7738583.06149  -6015563.52245  23261824.403    23261829.845
  20778887.181     1289186.49349   1004333.05947  20778886.996    20778892.625
  20782618.241    -2049615.33049  -1596629.61247  20782617.673    20782623.793
  21484659.110    -9423138.57249  -7328850.70947  21484659.210    21484664.894
  21175007.287   -14146142.83249 -11003153.56047  21175006.868    21175011.663
  25176628.017    -2788688.80849  -2161401.18845  25176627.223    25176635.696
 03  6  7 17 36  0.0000000  0 10G15G23G21G29G16G 6G17G26G18G 2
  22243121.027   -12512146.89549  -9740710.56646  22243120.378    22243126.823
  22885154.662   -10737340.09349  -8351795.19046  22885154.178    22885161.322
  20599105.550    -5848177.23949  -4553665.48047  20599104.996    20599109.112
  22907720.258    -2231177.30849  -1732565.46546  22907720.025    22907725.978
  23261236.555    -7741674.81449  -6017972.69045  23261236.091    23261241.468
  20788697.585     1340740.40849   1044504.91447  20788697.384    20788703.015
  20784221.190    -2041191.84349  -1590065.86347  20784220.623    20784226.713
  21482537.861    -9434285.82749  -7337536.88547  21482537.978    21482543.654
  21163948.527   -14204256.80349 -11048437.15647  21163948.114    21163952.916
  25169461.832    -2826346.81549  -2190745.08545  25169461.045    25169469.326
 03  6  7 17 36 30.0000000  0 10G15G23G21G29G16G 6G17G26G18G 2
  22230540.488   -12578258.10949  -9792225.78246  22230539.817    22230546.241
  22869902.508   -10817490.32449  -8414249.88046  22869901.927    22869909.127
  20596296.060    -5862941.25249  -4565169.91147  20596295.521    20596299.641
  22914144.633    -2197416.64949  -1706258.47846  22914144.459    22914150.371
  23260751.662    -7744223.03349  -6019958.32745  23260751.227    23260756.637
  20798597.003     1392762.15749   1085041.32647  20798596.811    20798602.443
  20785862.343    -2032567.62849  -1583345.70447  20785861.767    20785867.889
  21480541.787    -9444776.17849  -7345711.18147  21480541.741    21480547.440
  21152966.224   -14261968.89549 -11093407.59847  21152965.827    21152970.647
  25162373.794    -2863594.13349  -2219768.95745  25162373.002    25162381.318
 03  6  7 17 37  0.0000000  0 10G15G23G21G29G16G 6G17G26G18G 2
  22217982.063   -12644253.09949  -9843650.42646  22217981.382    22217987.856
  22854706.299   -10897346.31449  -8476475.25946  22854705.776    22854713.058
  20593528.395    -5877485.44349  -4576503.04847  20593527.857    20593531.958
  22920669.921    -2163126.17149  -1679538.64946  22920669.721    22920675.586
  23260370.003    -7746228.65649  -6021521.17345  23260369.591    23260375.000
  20808585.204     1445250.56249   1125941.35447  20808585.036    20808590.664
  20787541.587    -2023743.26749  -1576469.58847  20787541.005    20787547.129
  21478670.882    -9454609.14549  -7353373.22647  21478670.556    21478676.322
  21142060.512   -14319278.66049 -11138064.53847  21142060.136    21142064.927
  25155364.029    -2900430.69849  -2248472.77745  25155363.184    25155371.420
 03  6  7 17 37 30.0000000  0 10G15G23G21G29G16G 6G17G26G18G 2
  22205445.809   -12710131.25749  -9894984.04246  22205445.201    22205451.681
  22839566.494   -10976906.56949  -8538470.20946  22839565.878    22839573.196
  20590802.709    -5891809.18149  -4587664.40247  20590802.144    20590806.256
  22927295.902    -2128306.03149  -1652406.10046  22927295.784    22927301.693
  23260091.610    -7747691.67949  -6022661.20745  23260091.154    23260096.562
  20818662.192     1498205.26349   1167204.73947  20818662.010    20818667.634
  20789259.137    -2014717.59749  -1569436.60747  20789258.566    20789264.682
  21476924.805    -9463783.39049  -7360521.99247  21476924.744    21476930.532
  21131231.610   -14376185.11649 -11182407.21147  21131231.203    21131235.972
  25148432.848    -2936855.14849  -2276855.45145  25148431.853    25148439.952
 03  6  7 17 38  0.0000000  0 10G15G23G21G29G16G 6G17G26G18G 2
  22192931.949   -12775891.76449  -9946225.96846  22192931.373    22192937.899
  22824483.067   -11056169.77049  -8600233.66646  22824482.490    22824489.885
  20588119.099    -5905911.54949  -4598653.26447  20588118.532    20588122.654
  22934022.569    -2092957.28749  -1624861.64646  22934022.457    22934028.380
  23259916.442    -7748612.18649  -6023378.49745  23259915.995    23259921.409
  20828827.767     1551625.60949   1208830.96247  20828827.603    20828833.233
  20791015.044    -2005490.17449  -1562246.41847  20791014.480    20791020.608
  21475304.435    -9472297.74049  -7367156.53847  21475304.526    21475310.296
  21120479.517   -14432687.61649 -11226435.11347  21120479.097    21120483.922
  25141580.001    -2972866.46449  -2304916.21245  25141579.017    25141587.350
 03  6  7 17 38 30.0000000  0 10G15G23G21G29G16G 6G17G26G18G 2
  22180440.581   -12841534.83549  -9997376.39846  22180439.941    22180446.413
  22809456.417   -11135135.49649  -8661765.33646  22809455.872    22809463.155
  20585477.529    -5919793.04649  -4609470.01747  20585476.991    20585481.104
  22940849.550    -2057081.62649  -1596906.60546  22940849.380    22940855.327
  23259844.284    -7748991.53149  -6023674.10745  23259843.796    23259849.245
  20839081.694     1605510.06649   1250818.81947  20839081.504    20839087.142
  20792809.216    -1996061.78949  -1554899.63447  20792808.658    20792814.760
  21473809.833    -9480152.10649  -7373276.81547  21473809.911    21473815.671
  21109804.344   -14488786.01849 -11270148.13447  21109803.937    21109808.739
  25134806.014    -3008464.50949  -2332654.94845  25134805.126    25134813.218
 03  6  7 17 39  0.0000000  0 10G15G23G21G29G16G 6G17G26G18G 2
  22167971.461   -12907059.88549 -10048434.85346  22167970.813    22167977.373
  22794486.615   -11213802.55749  -8723064.29846  22794486.105    22794493.284
  20582878.135    -5933452.93549  -4620114.08547  20582877.590    20582881.722
  22947776.524    -2020679.70949  -1568541.49046  22947776.455    22947782.482
  23259874.894    -7748830.14049  -6023548.36245  23259874.504    23259879.887
  20849423.815     1659858.07049   1293167.88247  20849423.614    20849429.257
  20794641.784    -1986431.60149  -1547395.59747  20794641.229    20794647.333
  21472440.971    -9487345.53149  -7378882.07647  21472441.058    21472446.794
  21099206.285   -14544479.44249 -11313545.58947  21099205.854    21099210.627
  25128110.784    -3043648.43949  -2360070.98745  25128109.881    25128118.092
 03  6  7 17 39 30.0000000  0 10G15G23G21G29G16G 6G17G26G18G 2
  22155524.835   -12972467.10849 -10099401.50546  22155524.229    22155530.791
  22779573.709   -11292170.62449  -8784130.25246  22779573.149    22779580.309
  20580320.867    -5946891.33049  -4630585.56447  20580320.351    20580324.483
  22954803.554    -1983753.02249  -1539767.48246  22954803.370    22954809.456
  23260008.400    -7748128.96849  -6023002.00545  23260007.972    23260013.293
  20859853.833     1714668.20349   1335877.05447  20859853.634    20859859.289
  20796512.744    -1976599.63249  -1539734.33547  20796512.194    20796518.316
  21471197.722    -9493877.83049  -7383972.17747  21471197.999    21471203.745
  21088685.249   -14599767.84849 -11356627.45047  21088684.837    21088689.570
  25121494.503    -3078418.13149  -2387164.22245  25121493.571    25121501.638
 03  6  7 17 40  0.0000000  0 10G15G23G21G29G16G 6G17G26G18G 2
  22143100.853   -13037755.65249 -10150275.66746  22143100.241    22143106.862
  22764717.850   -11370238.20949  -8844962.09146  22764717.324    22764724.469
  20577805.836    -5960107.85149  -4640884.15547  20577805.322    20577809.453
  22961930.217    -1946302.32849  -1510585.14246  22961929.987    22961936.135
  23260244.479    -7746888.42649  -6022035.36945  23260244.058    23260249.397
  20870371.718     1769939.97249   1378945.94847  20870371.542    20870377.209
  20798422.218    -1966565.46149  -1531915.51147  20798421.662    20798427.788
  21470080.648    -9499747.75449  -7388546.14847  21470081.002    21470086.749
  21078241.477   -14654650.36449 -11399393.03147  21078241.037    21078245.752
  25114957.146    -3112772.45049  -2413933.81745  25114956.208    25114964.379
 03  6  7 17 40 30.0000000  0 10G15G23G21G29G16G 6G17G26G18G 2
  22130699.547   -13102924.87149 -10201056.85446  22130698.906    22130705.516
  22749919.363   -11448004.30449  -8905558.98846  22749918.869    22749926.018
  20575333.302    -5973101.20549  -4651008.84647  20575332.774    20575336.908
  22969156.273    -1908328.76849  -1480995.37646  22969156.104    22969162.340
  23260583.123    -7745108.81449  -6020648.68045  23260582.664    23260588.021
  20880977.300     1825672.68749   1422374.01947  20880977.140    20880982.818
  20800370.241    -1956328.52249  -1523938.68647  20800369.684    20800375.795
  21469089.908    -9504954.70449  -7392603.51347  21469090.138    21469095.859
  21067875.040   -14709126.22449 -11441841.73347  21067874.614    21067879.343
  25108498.857    -3146710.61249  -2440379.11645  25108497.939    25108506.197
 03  6  7 17 41  0.0000000  0 10G15G23G21G29G16G 6G17G26G18G 2
  22118320.959   -13167974.61949 -10251744.95846  22118320.315    22118326.926
  22735178.521   -11525467.90749  -8965920.20246  22735178.004    22735185.078
  20572903.216    -5985871.37149  -4660959.62447  20572902.696    20572906.824
  22976481.896    -1869833.42849  -1450999.02946  22976481.623    22976487.760
  23261024.116    -7742791.02949  -6018842.63645  23261023.728    23261029.041
  20891670.438     1881865.35849   1466160.49647  20891670.268    20891675.957
  20802356.843    -1945888.93949  -1515803.96147  20802356.308    20802362.394
  21468225.573    -9509498.06249  -7396143.79747  21468225.577    21468231.277
  21057586.068   -14763195.20149 -11483973.39247  21057585.637    21057590.344
  25102119.740    -3180232.05049  -2466499.70945  25102119.174    25102127.349
 03  6  7 17 41 30.0000000  0 10G15G23G21G29G16G 6G17G26G18G 2
  22105965.223   -13232904.56149 -10302339.69246  22105964.619    22105971.145
  22720495.360   -11602628.33949  -9026045.17146  22720494.789    22720501.839
  20570515.661    -5998418.07649  -4670736.27747  20570515.129    20570519.294
  22983906.408    -1830817.76949  -1420597.24246  22983906.123    22983912.202
  23261567.306    -7739936.41749  -6016618.27945  23261566.882    23261572.346
  20902450.828     1938516.61149   1510304.30947  20902450.674    20902456.369
  20804382.085    -1935246.41749  -1507511.09747  20804381.526    20804387.613
  21467487.286    -9513377.59249  -7399166.80247  21467487.358    21467493.012
  21047374.535   -14816857.15949 -11525787.88647  21047374.106    21047378.756
  25095820.300    -3213336.61349  -2492295.47045  25095819.586    25095827.898
 03  6  7 17 42  0.0000000  0 10G15G23G21G29G16G 6G17G26G18G 2
  22093632.441   -13297714.10549 -10352840.62046  22093631.797    22093638.233
  22705869.951   -11679484.52149  -9085933.06046  22705869.474    22705876.581
  20568170.719    -6010740.77649  -4680338.38247  20568170.202    20568174.355
  22991429.714    -1791282.56649  -1389790.60946  22991429.455    22991435.510
  23262212.690    -7736545.16649  -6013975.76845  23262212.276    23262217.840
  20913318.292     1995625.62149   1554804.80447  20913318.131    20913323.857
  20806445.980    -1924400.64049  -1499059.85447  20806445.418    20806451.493
  21466875.783    -9516592.24549  -7401671.72647  21466875.641    21466881.274
  21037240.663   -14870110.97749 -11567284.35147  21037240.232    21037244.852
  25089600.301    -3246023.10049  -2517765.45045  25089599.561    25089608.015
 03  6  7 17 42 30.0000000  0 10G15G23G21G29G16G 6G17G26G18G 2
  22081322.549   -13362402.58049 -10403247.20546  22081321.939    22081328.427
  22691302.741   -11756035.15049  -9145582.84746  22691302.288    22691309.475
  20565868.469    -6022839.15949  -4689765.69347  20565867.936    20565872.108
  22999051.709    -1751228.64749  -1358579.77746  22999051.438    22999057.571
  23262960.026    -7732617.63149  -6010915.37445  23262959.618    23262965.323
  20924272.805     2053191.74549   1599661.49347  20924272.627    20924278.343
  20808548.707    -1913350.71549  -1490449.52947  20808548.142    20808554.221
  21466390.680    -9519141.18149  -7403657.91147  21466390.597    21466396.244
  21027184.598   -14922955.88149 -11608462.18247  21027184.173    21027188.790
  25083460.066    -3278290.55249  -2542908.92345  25083459.382    25083467.811
 03  6  7 17 43  0.0000000  0 10G15G23G21G29G16G 6G17G26G18G 2
  22069035.773   -13426969.98549 -10453559.44946  22069035.135    22069041.643
  22676793.905   -11832279.48849  -9204993.98446  22676793.413    22676800.509
  20563609.059    -6034712.54849  -4699017.68647  20563608.530    20563612.703
  23006772.178    -1710657.69449  -1326966.08146  23006771.823    23006778.022
  23263809.194    -7728155.05449  -6007438.06945  23263808.760    23263814.652
  20935314.057     2111213.84749   1644873.49647  20935313.884    20935319.623
  20810690.313    -1902096.53349  -1481680.04647  20810689.749    20810695.847
  21466032.149    -9521024.31349  -7405125.30247  21466032.235    21466037.866
  21017206.312   -14975391.97349 -11649321.45547  21017205.881    21017210.526
  25077399.594    -3310138.84149  -2567725.78345  25077398.748    25077407.191
 03  6  7 17 43 30.0000000  0 10G15G23G21G29G16G 6G17G26G18G 2
  22056771.967   -13491416.32049 -10503777.35046  22056771.325    22056777.884
  22662343.496   -11908217.14049  -9264166.13946  22662343.006    22662350.047
  20561392.434    -6046361.05849  -4708094.44947  20561391.904    20561396.055
  23014590.646    -1669571.36249  -1294950.79146  23014590.320    23014596.435
  23264759.931    -7723158.57149  -6003544.73445  23264759.611    23264765.488
  20946441.795     2169690.43749   1690439.64947  20946441.620    20946447.350
  20812870.724    -1890638.38149  -1472751.62747  20812870.170    20812876.273
  21465800.516    -9522241.68849  -7406073.91047  21465800.625    21465806.206
  21007305.876   -15027419.04849 -11689862.02347  21007305.455    21007310.088
  25071418.494    -3341568.16949  -2592216.17145  25071417.719    25071426.247
 03  6  7 17 44  0.0000000  0 10G15G23G21G29G16G 6G17G26G18G 2
  22044531.606   -13555739.93049 -10553899.62946  22044530.909    22044537.559
  22647951.694   -11983846.15949  -9323097.80646  22647951.259    22647958.294
  20559218.846    -6057783.30049  -4716994.89747  20559218.299    20559222.472
  23022507.146    -1627969.65449  -1262533.88646  23022506.911    23022512.995
  23265812.492    -7717627.89449  -5999235.13645  23265812.143    23265817.849
  20957656.005     2228621.26049   1736359.74047  20957655.827    20957661.554
  20815090.191    -1878974.99549  -1463663.28347  20815089.633    20815095.742
  21465695.725    -9522791.66649  -7406502.47347  21465695.958    21465701.523
  20997483.592   -15079035.42549 -11730082.56147  20997483.185    20997487.831
  25065517.849    -3372576.49249  -2616378.50645  25065517.034    25065525.311
 03  6  7 17 44 30.0000000  0 10G15G23G21G29G16G 6G17G26G18G 2
  22032314.413   -13619941.28349 -10603926.63646  22032313.776    22032320.379
  22633618.689   -12059166.66049  -9381789.05846  22633618.252    22633625.348
  20557088.274    -6068979.57649  -4725719.27247  20557087.734    20557091.914
  23030521.290    -1585855.01649  -1229717.31346  23030521.072    23030527.144
  23266966.264    -7711564.83149  -5994510.69545  23266965.904    23266971.552
  20968956.211     2288004.26849   1782632.18347  20968956.024    20968961.778
  20817348.661    -1867106.79449  -1454415.34347  20817348.080    20817354.187
  21465717.905    -9522674.89649  -7406411.49147  21465718.143    21465723.740
  20987739.232   -15130241.95149 -11769983.73947  20987738.831    20987743.499
  25059697.285    -3403164.24249  -2640213.13145  25059696.363    25059704.378
 03  6  7 17 45  0.0000000  0 10G15G23G21G29G16G 6G17G26G18G 2
  22020120.687   -13684019.65049 -10653857.81646  22020120.048    22020126.667
  22619344.617   -12134177.47449  -9440239.00546  22619344.134    22619351.256
  20555000.720    -6079949.68649  -4734267.41547  20555000.200    20555004.378
  23038632.907    -1543228.44549  -1196501.82346  23038632.647    23038638.713
  23268221.243    -7704970.04849  -5989371.92945  23268220.886    23268226.547
  20980342.363     2347838.79949   1829256.46447  20980342.201    20980347.955
  20819646.150    -1855033.29649  -1445007.43147  20819645.579    20819651.696
  21465867.216    -9521890.64249  -7405800.39347  21465867.419    21465873.005
  20978073.035   -15181037.86449 -11809564.95847  20978072.653    20978077.361
  25053956.763    -3433330.78249  -2663719.51845  25053955.917    25053963.851
 03  6  7 17 45 30.0000000  0 10G15G23G21G29G16G 6G17G26G18G 2
  22007950.262   -13747975.41949 -10703693.45646  22007949.663    22007956.228
  22605129.489   -12208878.30649  -9498447.40446  22605129.015    22605136.081
  20552956.249    -6090693.45749  -4742639.18447  20552955.735    20552959.911
  23046841.615    -1500091.66149  -1162888.76446  23046841.304    23046847.423
  23269577.222    -7697844.92349  -5983819.91745  23269576.788    23269582.456
  20991814.157     2408123.32949   1876231.40347  20991813.970    20991819.759
  20821982.710    -1842754.47149  -1435439.52147  20821982.152    20821988.257
  21466143.440    -9520439.18249  -7404669.39247  21466143.618    21466149.248
  20968484.991   -15231423.38849 -11848826.38947  20968484.600    20968489.335
  25048296.372    -3463076.31649  -2686897.88245  25048295.626    25048303.358
 03  6  7 17 46  0.0000000  0 10G15G23G21G29G16G 6G17G26G18G 2
  21995803.521   -13811807.04249 -10753432.36846  21995802.892    21995809.469
  22590973.707   -12283267.32449  -9556412.84046  22590973.235    22590980.276
  20550955.067    -6101209.72349  -4750833.68547  20550954.560    20550958.748
  23055147.281    -1456445.08049  -1128878.47246  23055146.964    23055153.126
  23271033.926    -7690189.42949  -5977854.61645  23271033.539    23271039.300
  21003371.539     2468857.63349   1923556.79847  21003371.378    21003377.163
  20824358.565    -1830269.42249  -1425710.92547  20824358.007    20824364.099
  21466546.781    -9518319.18049  -7403017.45647  21466547.009    21466552.679
  20958975.310   -15281397.00949 -11887766.86547  20958974.943    20958979.678
  25042716.400    -3492399.31249  -2709746.97445  25042715.669    25042723.527
 03  6  7 17 46 30.0000000  0 10G15G23G21G29G16G 6G17G26G18G 2
  21983680.378   -13875514.78749 -10803074.75446  21983679.745    21983686.255
  22576877.212   -12357344.56649  -9614135.32046  22576876.733    22576883.828
  20548997.303    -6111497.78449  -4758850.36047  20548996.806    20549000.990
  23063549.551    -1412290.76749  -1094472.53046  23063549.277    23063555.380
  23272591.200    -7682005.56649  -5971477.61345  23272590.881    23272596.706
  21015014.124     2530039.80249   1971231.18547  21015013.978    21015019.775
  20826773.550    -1817578.49749  -1415821.89947  20826773.005    20826779.124
  21467077.390    -9515531.22449  -7400845.02747  21467077.541    21467083.188
  20949543.908   -15330959.22049 -11926386.75247  20949543.543    20949548.302
  25037216.967    -3521300.14949  -2732267.11745  25037216.055    25037223.991
 03  6  7 17 47  0.0000000  0 10G15G23G21G29G16G 6G17G26G18G 2
  21971580.969   -13939097.62049 -10852619.80146  21971580.312    21971586.858
  22562840.418   -12431108.62349  -9671613.77846  22562839.931    22562846.985
  20547082.982    -6121557.50249  -4766689.10247  20547082.481    20547086.698
  23072048.234    -1367629.60449  -1059671.64846  23072048.014    23072054.121
  23274248.981    -7673293.47049  -5964688.99345  23274248.643    23274254.565
  21026741.862     2591669.20449   2019254.06447  21026741.700    21026747.511
  20829227.926    -1804680.58249  -1405771.58347  20829227.396    20829233.530
  21467735.291    -9512074.38349  -7398151.39147  21467735.356    21467741.023
  20940190.985   -15380109.04149 -11964685.30547  20940190.658    20940195.364
  25031797.646    -3549777.72349  -2754457.44945  25031797.077    25031804.775
 03  6  7 17 47 30.0000000  0 10G15G23G21G29G16G 6G17G26G18G 2
  21959505.310   -14002555.26949 -10902067.31246  21959504.721    21959511.223
  22548863.213   -12504558.90449  -9728847.72946  22548862.727    22548869.840
  20545212.197    -6131388.53849  -4774349.65547  20545211.706    20545215.927
  23080643.133    -1322463.11349  -1024477.00746  23080642.883    23080649.005
  23276007.129    -7664054.38749  -5957489.72645  23276006.805    23276012.684
  21038554.400     2653744.51649   2067624.41447  21038554.232    21038560.069
  20831721.690    -1791575.57749  -1395559.89747  20831721.170    20831727.343
  21468520.455    -9507948.70149  -7394936.58447  21468520.493    21468526.157
  20930916.549   -15428846.61249 -12002662.62447  20930916.218    20930920.896
  25026459.094    -3577831.63149  -2776317.61645  25026458.603    25026466.392
 03  6  7 17 48  0.0000000  0 10G15G23G21G29G16G 6G17G26G18G 2
  21947453.671   -14065886.88249 -10951416.60246  21947453.094    21947459.563
  22534946.034   -12577694.24949  -9785836.27246  22534945.521    22534952.631
  20543385.030    -6140990.37749  -4781831.61147  20543384.531    20543388.752
  23089334.022    -1276792.45049   -988889.50546  23089333.717    23089339.872
  23277865.445    -7654289.06549  -5949880.41745  23277865.159    23277870.836
  21050451.668     2716264.92149   2116341.58647  21050451.496    21050457.346
  20834254.999    -1778262.86249  -1385186.36447  20834254.496    20834260.692
  21469432.783    -9503153.69649  -7391200.23147  21469432.961    21469438.632
  20921720.803   -15477170.82249 -12040317.84547  20921720.434    20921725.078
  25021201.317    -3605461.26649  -2797847.21245  25021200.793    25021208.662
 03  6  7 17 48 30.0000000  0 10G15G23G21G29G16G 6G17G26G18G 2
  21935426.008   -14129092.68549 -11000667.86946  21935425.431    21935431.862
  22521088.741   -12650514.53949  -9842579.31146  22521088.285    22521095.319
  20541601.648    -6150362.19449  -4789134.32947  20541601.136    20541605.361
  23098120.423    -1230619.65849   -952910.72846  23098120.124    23098126.317
  23279823.718    -7643998.93849  -5941862.17045  23279823.404    23279829.029
  21062433.287     2779228.56649   2165404.13147  21062433.081    21062438.967
  20836827.835    -1764742.69749  -1374651.17647  20836827.315    20836833.518
  21470472.520    -9497689.84749  -7386942.69147  21470472.731    21470478.392
  20912603.526   -15525082.37749 -12077651.51647  20912603.176    20912607.819
  25016024.182    -3632667.02049  -2819046.50745  25016023.768    25016031.659
 03  6  7 17 49  0.0000000  0 10G15G23G21G29G16G 6G17G26G18G 2
  21923422.547   -14192171.57549 -11049820.23646  21923421.941    21923428.351
  22507291.731   -12723018.46349  -9899075.83746  22507291.256    22507298.289
  20539862.054    -6159503.82849  -4796257.68147  20539861.530    20539865.749
  23107002.162    -1183945.49249   -916541.27346  23107001.975    23107008.173
  23281881.642    -7633184.77049  -5933435.56945  23281881.299    23281886.921
  21074499.085     2842634.74049   2214811.50647  21074498.908    21074504.786
  20839440.272    -1751014.20949  -1363953.65947  20839439.746    20839445.958
  21471639.683    -9491556.49549  -7382163.47047  21471639.833    21471645.560
  20903565.009   -15572580.15749 -12114662.76447  20903564.653    20903569.292
  25010928.072    -3659447.81149  -2839914.67645  25010927.495    25010935.367
 03  6  7 17 49 30.0000000  0 10G15G23G21G29G16G 6G17G26G18G 2
  21911443.155   -14255123.67949 -11098873.81046  21911442.584    21911448.937
  22493554.957   -12795205.75049  -9955325.64646  22493554.436    22493561.456
  20538166.212    -6168415.50849  -4803201.85147  20538165.714    20538169.887
  23115978.996    -1136772.17349   -879782.87346  23115978.781    23115985.017
  23284038.941    -7621848.16549  -5924601.88145  23284038.566    23284044.147
  21086648.715     2906481.62149   2264562.29647  21086648.537    21086654.429
  20842092.341    -1737077.42249  -1353093.83147  20842091.830    20842098.065
  21472934.180    -9484754.11149  -7376862.92247  21472934.277    21472940.013
  20894605.150   -15619664.43649 -12151351.80047  20894604.806    20894609.435
  25005912.747    -3685803.89149  -2860451.87345  25005912.227    25005919.911
 03  6  7 17 50  0.0000000  0 10G15G23G21G29G16G 6G17G26G18G 2
  21899487.961   -14317948.32449 -11147828.06746  21899487.410    21899493.785
  22479878.478   -12867075.44449 -10011327.97046  22479878.004    22479885.089
  20536514.383    -6177095.89749  -4809965.79547  20536513.877    20536518.063
  23125050.453    -1089100.84549   -842636.41146  23125050.301    23125056.636
  23286295.443    -7609990.12649  -5915361.89045  23286295.013    23286300.743
  21098882.049     2970768.14349   2314655.66147  21098881.888    21098887.768
  20844784.091    -1722932.09249  -1342071.50547  20844783.577    20844789.846
  21474356.027    -9477282.51149  -7371040.91447  21474356.083    21474361.861
  20885724.049   -15666335.00249 -12187718.46147  20885723.684    20885728.335
  25000978.346    -3711734.74749  -2880657.74145  25000977.744    25000985.421
 03  6  7 17 50 30.0000000  0 10G15G23G21G29G16G 6G17G26G18G 2
  21887557.300   -14380644.50849 -11196682.22746  21887556.740    21887563.015
  22466262.797   -12938626.46349 -10067081.97246  22466262.290    22466269.365
  20534906.693    -6185544.42349  -4816549.06547  20534906.200    20534910.378
  23134216.541    -1040932.69249   -805102.80446  23134216.445    23134222.728
  23288651.046    -7597611.26449  -5905716.05045  23288650.703    23288656.346
  21111198.938     3035493.52149   2365090.98747  21111198.761    21111204.637
  20847515.738    -1708577.46949  -1330886.08947  20847515.215    20847521.459
  21475905.366    -9469141.25049  -7364697.08347  21475905.340    21475911.133
  20876921.795   -15712591.00849 -12223762.09447  20876921.438    20876926.103
  24996124.902    -3737239.76749  -2900531.78445  24996124.353    24996132.203
 03  6  7 17 51  0.0000000  0 10G15G23G21G29G16G 6G17G26G18G 2
  21875651.079   -14443212.03649 -11245436.12946  21875650.502    21875656.790
  22452707.794   -13009858.33049 -10122587.28446  22452707.284    22452714.370
  20533343.141    -6193760.87849  -4822951.50647  20533342.663    20533346.850
  23143476.822     -992269.44249   -767183.42446  23143476.804    23143483.055
  23291105.565    -7584713.13049  -5895665.58045  23291105.223    23291110.781
  21123599.000     3100656.33749   2415867.18347  21123598.827    21123604.722
  20850287.173    -1694013.55849  -1319537.59647  20850286.647    20850292.872
  21477581.957    -9460330.68649  -7357831.71947  21477581.959    21477587.757
  20868198.429   -15758432.40949 -12259482.65647  20868198.077    20868202.757
  24991352.469    -3762318.84449  -2920073.91445  24991351.918    24991359.581
 03  6  7 17 51 30.0000000  0 10G15G23G21G29G16G 6G17G26G18G 2
  21863769.351   -14505650.81249 -11294089.71646  21863768.768    21863775.087
  22439213.628   -13080770.79949 -10177843.72546  22439213.076    22439220.088
  20531823.766    -6201745.23749  -4829173.08647  20531823.304    20531827.478
  23152831.002     -943113.08549   -728879.78646  23152830.959    23152837.226
  23293658.606    -7571297.15149  -5885211.60145  23293658.236    23293663.790
  21136081.987     3166254.71249   2466982.77147  21136081.815    21136087.687
  20853098.521    -1679240.00649  -1308025.74647  20853097.991    20853104.225
  21479385.937    -9450851.21349  -7350445.12447  21479385.861    21479391.643
  20859553.869   -15803859.77149 -12294880.58847  20859553.512    20859558.177
  24986661.072    -3786972.23649  -2939284.32445  24986660.365    24986668.261
 03  6  7 17 52  0.0000000  0 10G15G23G21G29G16G 6G17G26G18G 2
  21851912.365   -14567959.59149 -11342641.99946  21851911.776    21851918.148
  22425780.542   -13151362.19049 -10232849.96946  22425780.006    22425786.895
  20530348.868    -6209496.08249  -4835212.71047  20530348.405    20530352.583
  23162278.929     -893464.10649   -690192.30446  23162278.878    23162285.183
  23296310.032    -7557363.75249  -5874354.45245  23296309.681    23296315.196
  21148647.777     3232288.20149   2518437.40147  21148647.616    21148653.493
  20855949.958    -1664255.63349  -1296349.62147  20855949.427    20855955.676
  21481317.247    -9440701.84549  -7342536.53747  21481317.273    21481323.048
  20850988.427   -15848871.64849 -12329954.76847  20850988.061    20850992.692
  24982050.825    -3811198.75349  -2958162.12445  24982050.266    24982058.261
 03  6  7 17 52 30.0000000  0 10G15G23G21G29G16G 6G17G26G18G 2
  21840080.078   -14630138.50049 -11391093.08846  21840079.508    21840085.908
  22412408.497   -13221632.49049 -10287606.01346  22412408.013    22412414.878
  20528918.392    -6217013.41549  -4841070.37847  20528917.886    20528922.080
  23171820.194     -843324.82349   -651122.77046  23171820.083    23171826.363
  23299059.640    -7542914.53249  -5863095.35545  23299059.297    23299064.799
  21161295.958     3298754.86549   2570229.56647  21161295.800    21161301.689
  20858841.508    -1649060.50849  -1284509.27547  20858840.995    20858847.221
  21483375.840    -9429883.41949  -7334106.60947  21483375.939    21483381.712
  20842501.915   -15893468.68549 -12364705.69847  20842501.546    20842506.143
  24977521.890    -3834998.81049  -2976707.61745  24977521.272    24977529.331
 03  6  7 17 53  0.0000000  0 10G15G23G21G29G16G 6G17G26G18G 2
  21828272.839   -14692186.28949 -11439442.00146  21828272.202    21828278.623
  22399097.797   -13291580.62149 -10342111.02446  22399097.357    22399104.103
  20527532.414    -6224296.82849  -4846745.76347  20527531.905    20527536.112
  23181454.478     -792696.33849   -611672.02746  23181454.423    23181460.696
  23301907.252    -7527950.60549  -5851435.18445  23301906.885    23301912.460
  21174026.487     3365653.95749   2622358.70047  21174026.317    21174032.201
  20861773.309    -1633653.86049  -1272504.10047  20861772.785    20861779.023
  21485561.753    -9418395.76749  -7325155.19647  21485561.915    21485567.718
  20834094.534   -15937649.91949 -12399132.62447  20834094.177    20834098.751
  24973074.093    -3858371.51349  -2994920.12545  24973073.701    24973081.717
 03  6  7 17 53 30.0000000  0 10G15G23G21G29G16G 6G17G26G18G 2
  21816490.413   -14754103.30549 -11487689.01946  21816489.808    21816496.185
  22385848.387   -13361206.74649 -10396365.11446  22385847.920    22385854.668
  20526191.049    -6231345.82149  -4852238.49147  20526190.544    20526194.743
  23191181.522     -741581.03149   -571841.95846  23191181.369    23191187.674
  23304852.422    -7512473.77949  -5839375.32345  23304852.047    23304857.617
  21186838.857     3432983.19149   2674822.99447  21186838.687    21186844.568
  20864745.207    -1618036.52549  -1260334.75847  20864744.678    20864750.939
  21487875.109    -9406239.55749  -7315682.84047  21487875.213    21487880.978
  20825766.100   -15981416.11249 -12433236.14147  20825765.732    20825770.328
  24968707.798    -3881317.32649  -3012799.96945  24968707.303    24968715.385
 03  6  7 17 54  0.0000000  0 10G15G23G21G29G16G 6G17G26G18G 2
  21804733.030   -14815888.80449 -11535833.54246  21804732.418    21804738.779
  22372660.418   -13430510.10949 -10450367.69546  22372659.900    22372666.650
  20524894.316    -6238160.11249  -4857548.33047  20524893.822    20524897.997
  23201000.854     -689980.37549   -531633.67646  23201000.681    23201006.923
  23307894.914    -7496485.21849  -5826916.75945  23307894.570    23307900.217
  21199732.866     3500741.22749   2727621.43047  21199732.660    21199738.550
  20867757.342    -1602207.79949  -1248000.69747  20867756.783    20867763.025
  21490315.608    -9393415.19049  -7305689.83547  21490315.634    21490321.379
  20817516.680   -16024766.93149 -12467015.98847  20817516.323    20817520.950
  24964422.640    -3903836.11849  -3030347.06945  24964422.110    24964430.258
 03  6  7 17 54 30.0000000  0 10G15G23G21G29G16G 6G17G26G18G 2
  21793000.860   -14877541.76649 -11583874.78746  21793000.250    21793006.657
  22359534.009   -13499489.50149 -10504117.84446  22359533.487    22359540.266
  20523642.457    -6244738.79849  -4862674.58347  20523641.948    20523646.146
  23210912.323     -637895.66349   -491048.22046  23210912.100    23210918.292
  23311034.754    -7479985.86449  -5814060.14845  23311034.366    23311039.943
  21212708.277     3568927.33749   2780753.42747  21212708.078    21212713.936
  20870809.864    -1586166.72049  -1235501.15947  20870809.329    20870815.561
  21492883.236    -9379922.27449  -7295175.88347  21492883.276    21492888.966
  20809346.443   -16067701.82649 -12500471.74047  20809346.059    20809350.707
  24960218.850    -3925927.24849  -3047560.94645  24960218.181    24960226.443
 03  6  7 17 55  0.0000000  0 10G15G23G21G29G16G 6G17G26G18G 2
  21781293.964   -14939061.89249 -11631812.53146  21781293.344    21781299.730
  22346469.331   -13568144.64949 -10557615.33346  22346468.842    22346475.625
  20522435.468    -6251081.51549  -4867616.96547  20522434.964    20522439.167
  23220915.538     -585328.71649   -450087.00246  23220915.285    23220921.478
  23314271.399    -7462977.56449  -5800806.96845  23314270.986    23314276.637
  21225764.819     3637539.67949   2834217.55347  21225764.629    21225770.492
  20873902.784    -1569913.16349  -1222836.05847  20873902.268    20873908.494
  21495577.914    -9365761.46949  -7284141.49547  21495577.981    21495583.669
  20801255.256   -16110221.31249 -12533603.79547  20801254.891    20801259.517
  24956096.162    -3947590.93149  -3064441.76545  24956095.684    24956103.893
 03  6  7 17 55 30.0000000  0 10G15G23G21G29G16G 6G17G26G18G 2
  21769612.505   -15000448.26549 -11679646.06246  21769611.891    21769618.293
  22333466.588   -13636474.39949 -10610859.26746  22333466.084    22333472.903
  20521273.514    -6257187.54849  -4872374.91847  20521273.028    20521277.245
  23231010.301     -532280.74949   -408750.95446  23231010.006    23231016.201
  23317604.885    -7445460.94949  -5787157.68545  23317604.418    23317609.999
  21238902.322     3706577.47449   2888013.20147  21238902.094    21238907.938
  20877036.394    -1553446.10449  -1210004.59447  20877035.839    20877042.114
  21498399.810    -9350932.49449  -7272586.45747  21498399.848    21498405.546
  20793243.331   -16152324.30749 -12566411.31247  20793242.947    20793247.546
  24952055.166    -3968826.47049  -3080988.92245  24952054.503    24952062.957
 03  6  7 17 56  0.0000000  0 10G15G23G21G29G16G 6G17G26G18G 2
  21757956.539   -15061700.75049 -11727375.25946  21757955.920    21757962.336
  22320525.749   -13704478.71049 -10663849.61646  22320525.272    22320532.083
  20520156.636    -6263056.90749  -4876948.44947  20520156.141    20520160.323
  23241196.192     -478753.75249   -367041.64346  23241195.865    23241202.083
  23321034.627    -7427437.90649  -5773113.78745  23321034.174    23321039.668
  21252120.403     3776038.84649   2942138.91147  21252120.183    21252126.003
  20880210.490    -1536766.09349  -1197007.19247  20880209.952    20880216.244
  21501348.713    -9335436.15649  -7260511.40247  21501348.736    21501354.393
  20785310.549   -16194011.34149 -12598894.70547  20785310.169    20785314.770
  24948095.612    -3989634.06949  -3097202.63645  24948095.073    24948103.481
 03  6  7 17 56 30.0000000  0 10G15G23G21G29G16G 6G17G26G18G 2
  21746326.097   -15122818.87349 -11774999.75946  21746325.482    21746331.930
  22307647.039   -13772157.07349 -10716585.97846  22307646.547    22307653.308
  20519084.953    -6268688.61849  -4881336.80347  20519084.454    20519088.648
  23251472.787     -424749.69649   -324960.60646  23251472.591    23251478.707
  23324560.503    -7408909.70549  -5758676.24945  23324560.003    23324565.555
  21265418.786     3845922.19349   2996593.42147  21265418.577    21265424.411
  20883425.248    -1519872.32449  -1183843.22747  20883424.716    20883431.012
  21504424.532    -9319272.95649  -7247916.70647  21504424.507    21504430.157
  20777456.915   -16235282.39149 -12631053.95647  20777456.516    20777461.110
  24944217.636    -4010013.70249  -3113082.88645  24944216.988    24944225.304
 03  6  7 17 57  0.0000000  0 10G15G23G21G29G16G 6G17G26G18G 2
  21734721.400   -15183801.97749 -11822519.04846  21734720.776    21734727.219
  22294830.400   -13839508.95949 -10769067.93546  22294829.900    22294836.636
  20518058.539    -6274082.27449  -4885539.65647  20518058.064    20518062.256
  23261839.979     -370270.32549   -282509.17546  23261839.743    23261845.824
  23328182.011    -7389878.01849  -5743846.39645  23328181.566    23328187.125
  21278797.160     3916225.94749   3051375.52747  21278796.975    21278802.808
  20886680.739    -1502764.51749  -1170512.48347  20886680.202    20886686.503
  21507627.128    -9302443.19549  -7234802.62547  21507627.119    21507632.833
  20769682.454   -16276137.28649 -12662888.92847  20769682.088    20769686.667
  24940420.911    -4029965.55349  -3128629.79145  24940420.376    24940428.642
 03  6  7 17 57 30.0000000  0 10G15G23G21G29G16G 6G17G26G18G 2
  21723142.609   -15244648.85949 -11869932.18946  21723142.012    21723148.412
  22282076.199   -13906532.95449 -10821294.40646  22282075.690    22282082.359
  20517077.707    -6279236.74649  -4889556.13147  20517077.213    20517081.409
  23272297.352     -315316.54849   -239688.09646  23272297.074    23272303.245
  23331899.204    -7370343.43649  -5728624.67945  23331898.833    23331904.496
  21292255.382     3986949.36449   3106484.64347  21292255.208    21292261.108
  20889977.215    -1485441.51849  -1157014.05247  20889976.680    20889982.971
  21510956.607    -9284946.62949  -7221168.94347  21510956.555    21510962.324
  20761987.328   -16316575.37049 -12694399.11247  20761986.965    20761991.522
  24936705.867    -4049488.56749  -3143842.53145  24936705.348    24936713.522
 03  6  7 17 58  0.0000000  0 10G15G23G21G29G16G 6G17G26G18G 2
  21711589.756   -15305359.22949 -11917238.95746  21711589.200    21711595.614
  22269384.324   -13973228.89849 -10873265.24746  22269383.827    22269390.459
  20516142.351    -6284152.10549  -4893386.28647  20516141.851    20516146.061
  23282844.645     -259890.31549   -196498.86346  23282844.381    23282850.533
  23335711.789    -7350307.93749  -5713012.63845  23335711.423    23335717.127
  21305793.096     4058090.50949   3161919.26547  21305792.946    21305798.873
  20893314.591    -1467903.57249  -1143348.13347  20893314.070    20893320.359
  21514412.776    -9266784.00449  -7207016.25547  21514412.822    21514418.582
  20754371.533   -16356596.82549 -12725584.65147  20754371.158    20754375.733
  24933072.303    -4068583.21949  -3158721.48245  24933071.803    24933079.926
 03  6  7 17 58 30.0000000  0 10G15G23G21G29G16G 6G17G26G18G 2
  21700062.999   -15365932.51649 -11964438.90846  21700062.429    21700068.912
  22256754.991   -14039596.27749 -10924980.06846  22256754.480    22256761.127
  20515252.567    -6288828.04749  -4897029.88347  20515252.076    20515256.272
  23293481.432     -203993.73449   -152943.12446  23293481.149    23293487.352
  23339619.538    -7329772.90049  -5697011.33745  23339619.168    23339624.926
  21319410.081     4129648.09749   3217678.37947  21319409.930    21319415.884
  20896692.993    -1450150.17949  -1129514.33447  20896692.441    20896698.737
  21517995.639    -9247956.05849  -7192345.14447  21517995.652    21518001.418
  20746834.987   -16396201.69849 -12756445.58347  20746834.615    20746839.154
  24929520.455    -4087249.38149  -3173266.56145  24929519.902    24929527.841
 03  6  7 17 59  0.0000000  0 10G15G23G21G29G16G 6G17G26G18G 2
  21688562.331   -15426368.72949 -12011532.05246  21688561.781    21688568.288
  22244188.149   -14105635.11449 -10976438.87546  22244187.660    22244194.250
  20514408.446    -6293263.84349  -4900486.35447  20514407.971    20514412.171
  23304207.292     -147628.95449   -109022.55246  23304207.043    23304213.191
  23343621.872    -7308740.36249  -5680622.39145  23343621.527    23343627.272
  21333105.848     4201619.96649   3273760.31347  21333105.758    21333111.672
  20900112.320    -1432181.39949  -1115512.69447  20900111.784    20900118.073
  21521704.913    -9228463.69249  -7177156.30347  21521704.934    21521710.713
  20739377.595   -16435390.56749 -12786982.35247  20739377.208    20739381.766
  24926049.948    -4105487.58549  -3187478.13845  24926049.246    24926057.112
 03  6  7 17 59 30.0000000  0 10G15G23G21G29G16G 6G17G26G18G 2
  21677087.970   -15486666.90849 -12058517.62246  21677087.375    21677093.884
  22231683.995   -14171344.53249 -11027640.99046  22231683.506    22231690.153
  20513610.223    -6297458.67049  -4903755.05647  20513609.733    20513613.926
  23315022.023      -90797.25649    -64738.14946  23315021.797    23315027.959
  23347718.661    -7287211.55849  -5663846.73745  23347718.351    23347724.059
  21346880.297     4274004.97949   3330164.18647  21346880.202    21346886.135
  20903572.811    -1413996.41449  -1101342.58447  20903572.288    20903578.574
  21525540.639    -9208307.01149  -7161449.80947  21525540.668    21525546.456
  20731999.449   -16474162.73049 -12817194.41747  20731999.056    20732003.631
  24922660.662    -4123297.70849  -3201356.16345  24922660.022    24922668.016
 03  6  7 18  0  0.0000000  0 10G15G23G21G29G16G 6G17G26G18G 2
  21665640.069   -15546825.92749 -12105394.77547  21665639.550    21665645.988
  22219242.814   -14236723.69149 -11078585.76846  22219242.298    22219248.919
  20512857.941    -6301412.08549  -4906835.64647  20512857.434    20512861.611
  23325925.245      -33500.35749    -20091.24746  23325925.078    23325931.248
  23351909.656    -7265187.77349  -5646685.38345  23351909.290    23351915.216
  21360733.126     4346801.91049   3386889.02747  21360733.052    21360738.965
  20907074.597    -1395594.50249  -1087003.44647  20907074.074    20907080.330
  21529502.617    -9187486.35749  -7145225.93047  21529502.705    21529508.536
  20724700.629   -16512518.19749 -12847081.78047  20724700.249    20724704.829
  24919352.963    -4140679.36049  -3214900.31245  24919352.291    24919360.510
 03  6  7 18  0 30.0000000  0 10G15G23G21G29G16G 6G17G26G18G 2
  21654218.769   -15606845.24849 -12152163.05847  21654218.197    21654224.642
  22206864.548   -14301772.09349 -11129272.80946  22206864.008    22206870.589
  20512151.754    -6305123.28749  -4909727.49547  20512151.233    20512155.409
  23336916.767       24259.97849     24916.78146  23336916.519    23336922.750
  23356194.662    -7242670.34949  -5629139.38145  23356194.303    23356200.222
  21374664.034     4420009.03649   3443933.50047  21374663.938    21374669.849
  20910617.769    -1376975.19349  -1072494.90747  20910617.251    20910623.473
  21533590.822    -9166002.50849  -7128485.28247  21533590.975    21533596.796
  20717481.076   -16550457.10249 -12876644.54947  20717480.697    20717485.299
  24916126.909    -4157632.48049  -3228110.54445  24916126.254    24916134.401
 03  6  7 18  1  0.0000000  0 10G15G23G21G29G16G 6G17G26G18G 2
  21642824.023   -15666725.14249 -12198822.70447  21642823.445    21642829.904
  22194549.046   -14366490.30249 -11179702.54946  22194548.504    22194555.182
  20511491.545    -6308592.59749  -4912430.85747  20511491.070    20511495.252
  23347995.932       82481.05349     70283.80946  23347995.638    23348001.868
  23360572.993    -7219661.90249  -5611210.75045  23360572.632    23360578.594
  21388672.569     4493624.04749   3501295.79847  21388672.450    21388678.360
  20914202.208    -1358138.69049  -1057817.12047  20914201.700    20914207.930
  21537805.020    -9143856.83049  -7111228.90847  21537805.128    21537810.946
  20710340.635   -16587980.15349 -12905883.28347  20710340.270    20710344.882
  24912982.045    -4174157.93849  -3240987.53845  24912981.542    24912989.636
 03  6  7 18  1 30.0000000  0 10G15G23G21G29G16G 6G17G26G18G 2
  21631456.055   -15726464.28749 -12245372.68047  21631455.445    21631461.882
  22182296.592   -14430877.05649 -11229874.03046  22182296.076    22182302.767
  20510877.519    -6311819.37749  -4914945.23647  20510877.025    20510881.221
  23359162.447      141161.81749    116009.04045  23359162.248    23359168.446
  23365044.647    -7196163.25349  -5592900.15845  23365044.267    23365050.265
  21402758.549     4567646.05249   3558975.23147  21402758.448    21402764.347
  20917828.248    -1339083.86449  -1042969.21347  20917827.719    20917833.975
  21542145.159    -9121049.31549  -7093456.82547  21542145.243    21542151.078
  20703279.504   -16625086.58949 -12934797.37947  20703279.148    20703283.759
  24909918.763    -4190255.10749  -3253530.80045  24909918.501    24909926.380
 03  6  7 18  2  0.0000000  0 10G15G23G21G29G16G 6G17G26G18G 2
  21620114.927   -15786062.36949 -12291812.72647  21620114.316    21620120.745
  22170107.323   -14494932.15249 -11279787.06246  22170106.805    22170113.495
  20510309.872    -6314802.40949  -4917269.67847  20510309.378    20510313.592
  23370416.073      200300.03249    162090.72745  23370415.878    23370422.181
  23369609.264    -7172176.40749  -5574209.13145  23369608.906    23369614.833
  21416921.607     4642073.19349   3616970.36447  21416921.504    21416927.392
  20921495.744    -1319810.90449  -1027951.33147  20921495.250    20921501.501
  21546611.028    -9097580.87749  -7075169.74447  21546611.152    21546617.021
  20696297.605   -16661776.86349 -12963387.19147  20696297.232    20696301.850
  24906937.192    -4205924.55249  -3265740.75345  24906936.667    24906944.587
 03  6  7 18  2 30.0000000  0 10G15G23G21G29G16G 6G17G26G18G 2
  21608800.791   -15845518.39149 -12338142.08147  21608800.219    21608806.608
  22157981.274   -14558654.81049 -11329441.05846  22157980.759    22157987.381
  20509788.629    -6317541.41449  -4919403.97447  20509788.139    20509792.362
  23381756.394      259893.82849    208527.41945  23381756.207    23381762.540
  23374266.496    -7147702.90849  -5555138.93145  23374266.172    23374271.990
  21431161.508     4716904.05349   3675280.08647  21431161.376    21431167.268
  20925204.897    -1300319.42949  -1012763.17747  20925204.392    20925210.627
  21551202.654    -9073452.26549  -7056368.23647  21551202.713    21551208.543
  20689394.836   -16698050.94449 -12991652.69147  20689394.490    20689399.127
  24904036.696    -4221166.20449  -3277617.38145  24904036.125    24904044.439
 03  6  7 18  3  0.0000000  0 10G15G23G21G29G16G 6G17G26G18G 2
  21597513.932   -15904831.47949 -12384360.05447  21597513.322    21597519.700
  22145918.606   -14622044.40549 -11378835.53046  22145918.100    22145924.753
  20509313.985    -6320035.79549  -4921347.65247  20509313.468    20509317.712
  23393183.198      319941.81149    255318.02245  23393182.986    23393189.325
  23379016.048    -7122744.03749  -5535690.49345  23379015.664    23379021.452
  21445477.919     4792137.22349   3733903.29047  21445477.795    21445483.682
  20928955.762    -1280608.55249   -997404.06647  20928955.256    20928961.484
  21555919.725    -9048663.77849  -7037052.54647  21555919.867    21555925.613
  20682571.374   -16733908.51249 -13019593.64547  20682571.014    20682575.654
  24901217.701    -4235979.78549  -3289160.45545  24901217.146    24901225.548
 03  6  7 18  3 30.0000000  0 10G15G23G21G29G16G 6G17G26G18G 2
  21586254.238   -15964001.56849 -12430466.60947  21586253.648    21586259.966
  22133919.251   -14685101.02149 -11427970.52946  22133918.787    22133925.431
  20508885.935    -6322285.18349  -4923100.42647  20508885.444    20508889.697
  23404695.911      380441.57149    302460.65345  23404695.746    23404702.093
  23383857.578    -7097301.82149  -5515865.42845  23383857.212    23383862.953
  21459870.499     4867770.61649   3792838.36247  21459870.381    21459876.300
  20932748.520    -1260677.77849   -981873.60147  20932748.010    20932754.209
  21560762.169    -9023216.76449  -7017223.71047  21560762.255    21560768.044
  20675827.048   -16769350.17349 -13047210.51447  20675826.693    20675831.314
  24898480.198    -4250365.74049  -3300370.30445  24898479.631    24898487.931
 03  6  7 18  4  0.0000000  0 10G15G23G21G29G16G 6G17G26G18G 2
  21575021.934   -16023027.86249 -12476461.10747  21575021.323    21575027.618
  22121983.425   -14747824.14949 -11476845.66646  22121982.940    22121989.552
  20508504.674    -6324288.69249  -4924661.60247  20508504.178    20508508.444
  23416294.246      441391.35649    349953.95445  23416294.047    23416300.490
  23388790.806    -7071378.01949  -5495665.11345  23388790.398    23388796.120
  21474338.887     4943802.66249   3852084.06847  21474338.794    21474344.731
  20936583.081    -1240526.86349   -966171.59247  20936582.595    20936588.798
  21565729.760    -8997111.93549  -6996882.29647  21565729.866    21565735.605
  20669161.879   -16804375.83649 -13074503.22847  20669161.527    20669166.152
  24895823.917    -4264324.27049  -3311247.07745  24895823.380    24895831.704
 03  6  7 18  4 30.0000000  0 10G15G23G21G29G16G 6G17G26G18G 2
  21563817.052   -16081910.03649 -12522343.30447  21563816.431    21563822.711
  22110111.109   -14810213.77149 -11525460.93546  22110110.589    22110117.177
  20508170.239    -6326046.08449  -4926031.00247  20508169.750    20508174.038
  23427977.866      502788.84649    397796.11645  23427977.599    23427984.106
  23393815.338    -7044974.70649  -5475091.13045  23393814.919    23393820.603
  21488882.758     5020231.33549   3911638.83747  21488882.706    21488888.670
  20940459.649    -1220155.52749   -950297.82947  20940459.132    20940465.339
  21570822.277    -8970350.55449  -6976029.27547  21570822.370    21570828.099
  20662575.729   -16838986.07549 -13101472.22947  20662575.397    20662580.044
  24893249.205    -4277855.96349  -3321791.26145  24893248.522    24893256.682
 03  6  7 18  5  0.0000000  0 10G15G23G21G29G16G 6G17G26G18G 2
  21552639.825   -16140646.71149 -12568112.13747  21552639.198    21552645.451
  22098302.330   -14872268.77149 -11573815.44746  22098301.854    22098308.482
  20507882.798    -6327556.50449  -4927207.95447  20507882.319    20507886.584
  23439746.224      564632.66849    445986.05945  23439746.101    23439752.638
  23398930.843    -7018092.91949  -5454144.31845  23398930.397    23398936.189
  21503501.953     5097055.61249   3971501.86147  21503501.885    21503507.894
  20944378.330    -1199562.71949   -934251.49947  20944377.819    20944384.042
  21576039.860    -8942932.59049  -6954664.64247  21576039.868    21576045.592
  20656068.792   -16873180.20949 -13128117.00247  20656068.461    20656073.100
  24890755.688    -4290960.19949  -3332002.38445  24890754.929    24890762.952
 03  6  7 18  5 30.0000000  0 10G15G23G21G29G16G 6G17G26G18G 2
  21541490.339   -16199237.49449 -12613767.27547  21541489.697    21541496.000
  22086557.383   -14933989.12749 -11621909.21646  22086556.905    22086563.477
  20507642.473    -6328819.35749  -4928191.99747  20507642.005    20507646.274
  23451599.257      626920.65449    494522.12245  23451599.155    23451605.661
  23404136.820    -6990734.63449  -5432826.22045  23404136.394    23404142.325
  21518196.090     5174273.59749   4031671.66847  21518196.013    21518202.048
  20948339.137    -1178748.73749   -918032.81847  20948338.617    20948344.830
  21581381.931    -8914859.53849  -6932789.54047  21581381.990    21581387.714
  20649640.937   -16906958.95949 -13154438.08947  20649640.591    20649645.214
  24888343.298    -4303637.50449  -3341880.80945  24888342.499    24888350.666
 03  6  7 18  6  0.0000000  0 10G15G23G21G29G16G 6G17G26G18G 2
  21530368.808   -16257681.31449 -12659307.90347  21530368.186    21530374.487
  22074876.220   -14995374.10149 -11669741.63746  22074875.682    22074882.327
  20507449.374    -6329834.19649  -4928982.78347  20507448.889    20507453.148
  23463536.444      689651.16249    543402.98645  23463536.402    23463542.897
  23409433.311    -6962901.45049  -5411138.07045  23409432.946    23409438.755
  21532964.906     5251883.89749   4092147.18647  21532964.789    21532970.826
  20952342.282    -1157711.97749   -901640.54847  20952341.776    20952348.038
  21586848.710    -8886131.79449  -6910404.28947  21586848.666    21586854.410
  20643292.186   -16940321.91549 -13180435.18947  20643291.827    20643296.449
  24886011.944    -4315887.85749  -3351426.53945  24886011.133    24886019.425
 03  6  7 18  6 30.0000000  0 10G15G23G21G29G16G 6G17G26G18G 2
  21519275.225   -16315978.34949 -12704734.15047  21519274.616    21519280.926
  22063258.692   -15056424.29249 -11717313.17946  22063258.184    22063264.902
  20507303.389    -6330601.14449  -4929580.40847  20507302.930    20507307.193
  23475557.413      752821.40649    592626.52745  23475557.350    23475563.813
  23414819.803    -6934595.81049  -5389081.75645  23414819.368    23414825.149
  21547807.885     5329883.85649   4152926.33347  21547807.743    21547813.786
  20956387.648    -1136453.49549   -885075.50747  20956387.125    20956393.387
  21592439.607    -8856751.42649  -6887510.51247  21592439.555    21592445.322
  20637022.321   -16973270.01649 -13206109.01647  20637021.967    20637026.617
  24883761.645    -4327712.41249  -3360640.49345  24883760.911    24883769.265
 03  6  7 18  7  0.0000000  0 10G15G23G21G29G16G 6G17G26G18G 2
  21508209.865   -16374127.08949 -12750044.84147  21508209.266    21508215.578
  22051705.122   -15117138.70549 -11764623.09146  22051704.633    22051711.283
  20507204.952    -6331118.61549  -4929983.63547  20507204.478    20507208.733
  23487661.752      816429.98449    642191.60545  23487661.710    23487668.192
  23420295.842    -6905818.89649  -5366658.23345  23420295.497    23420301.218
  21562724.797     5408272.45949   4214008.31347  21562724.656    21562730.725
  20960475.419    -1114972.16449   -868336.82247  20960474.885    20960481.190
  21598154.688    -8826718.53149  -6864108.26247  21598154.619    21598160.421
  20630831.517   -17005802.99249 -13231459.37347  20630831.163    20630835.774
  24881592.688    -4339110.83249  -3369522.39745  24881591.823    24881600.226
 03  6  7 18  7 30.0000000  0 10G15G23G21G29G16G 6G17G26G18G 2
  21497172.779   -16432127.44149 -12795239.90847  21497172.138    21497178.452
  22040215.424   -15177517.62849 -11811671.57446  22040214.907    22040221.547
  20507153.947    -6331386.74149  -4930192.56547  20507153.453    20507157.720
  23499849.102      880474.17249    692096.14345  23499848.983    23499855.474
  23425860.990    -6876573.33649  -5343869.52145  23425860.734    23425866.467
  21577715.190     5487047.33849   4275391.29747  21577715.049    21577721.137
  20964605.670    -1093267.53149   -851424.12847  20964605.156    20964611.442
  21603993.563    -8796035.02649  -6840199.04247  21603993.526    21603999.345
  20624719.522   -17037921.70249 -13256486.93147  20624719.164    20624723.766
  24879504.668    -4350084.04749  -3378072.94345  24879503.798    24879512.073
 03  6  7 18  8  0.0000000  0 10G15G23G21G29G16G 6G17G26G18G 2
  21486164.154   -16489978.00649 -12840318.25547  21486163.548    21486169.844
  22028789.729   -15237559.93449 -11858457.75346  22028789.227    22028795.852
  20507150.645    -6331404.18549  -4930206.16347  20507150.155    20507154.412
  23512118.977      944952.95049    742339.30145  23512118.889    23512125.419
  23431515.359    -6846860.03549  -5320716.33945  23431515.139    23431520.697
  21592778.901     5566207.51949   4337074.50947  21592778.760    21592784.846
  20968778.591    -1071338.58549   -834336.64347  20968778.067    20968784.394
  21609956.305    -8764700.85749  -6815782.82047  21609956.209    21609962.085
  20618686.520   -17069625.30349 -13281191.02047  20618686.171    20618690.786
  24877497.532    -4360631.40449  -3386291.69745  24877496.807    24877504.944
 03  6  7 18  8 30.0000000  0 10G15G23G21G29G16G 6G17G26G18G 2
  21475184.129   -16547678.66749 -12885279.79247  21475183.520    21475189.821
  22017428.079   -15297265.69349 -11904981.68546  22017427.562    22017434.196
  20507195.087    -6331170.80449  -4930024.30947  20507194.565    20507198.820
  23524471.158     1009863.77549    792919.13445  23524471.008    23524477.588
  23437258.224    -6816681.37349  -5297200.54245  23437258.003    23437263.575
  21607915.503     5645750.65849   4399056.12547  21607915.342    21607921.463
  20972994.194    -1049185.62349   -817074.59847  20972993.679    20972999.999
  21616042.503    -8732717.70849  -6790860.89147  21616042.405    21616048.302
  20612732.379   -17100914.62149 -13305572.29347  20612732.003    20612736.615
  24875571.277    -4370753.58949  -3394179.11945  24875570.661    24875578.883
 03  6  7 18  9  0.0000000  0 10G15G23G21G29G16G 6G17G26G18G 2
  21464232.787   -16605228.35549 -12930123.69047  21464232.181    21464238.471
  22006130.587   -15356634.40949 -11951242.99646  22006130.063    22006136.681
  20507287.359    -6330685.83649  -4929646.41247  20507286.851    20507291.102
  23536905.093     1075204.85849    843834.22045  23536904.900    23536911.638
  23443089.425    -6786038.85449  -5273323.29345  23443089.168    23443094.779
  21623124.656     5725675.42749   4461335.11647  21623124.542    21623130.715
  20977252.610    -1026807.48649   -799637.09847  20977252.100    20977258.427
  21622252.021    -8700086.48449  -6765433.96647  21622251.946    21622257.840
  20606857.043   -17131789.69749 -13329630.78047  20606856.670    20606861.257
  24873725.815    -4380450.75049  -3401735.34545  24873725.328    24873733.606
 03  6  7 18  9 30.0000000  0 10G15G23G21G29G16G 6G17G26G18G 2
  21453310.265   -16662626.72049 -12974849.67347  21453309.633    21453315.920
  21994897.206   -15415666.13749 -11997241.70946  21994896.660    21994903.299
  20507427.644    -6329948.75349  -4929072.06647  20507427.134    20507431.375
  23549420.519     1140973.90049    895082.78745  23549420.375    23549427.132
  23449008.288    -6754934.94249  -5249086.52345  23449008.050    23449013.787
  21638406.022     5805979.52849   4523909.69347  21638405.903    21638412.077
  20981553.881    -1004204.18049   -782024.14247  20981553.353    20981559.702
  21628584.658    -8666808.47849  -6739503.05747  21628584.533    21628590.459
  20601060.472   -17162250.83049 -13353366.71847  20601060.113    20601064.673
  24871961.246    -4389723.58749  -3408960.94745  24871960.849    24871969.006
 03  6  7 18 10  0.0000000  0 10G15G23G21G29G16G 6G17G26G18G 2
  21442416.661   -16719872.69649 -13019456.91747  21442416.085    21442422.358
  21983727.994   -15474360.45549 -12042977.51246  21983727.452    21983734.099
  20507615.989    -6328958.94849  -4928300.78847  20507615.483    20507619.730
  23562017.061     1207168.85049    946663.23045  23562016.865    23562023.608
  23455014.703    -6723371.27949  -5224491.50345  23455014.412    23455020.308
  21653759.290     5886661.41549   4586778.65347  21653759.184    21653765.344
  20985898.100     -981375.09149   -764235.24747  20985897.605    20985903.955
  21635040.098    -8632884.72449  -6713068.97647  21635040.044    21635045.939
  20595342.660   -17192298.12549 -13376780.18047  20595342.311    20595346.848
  24870277.585    -4398572.26449  -3415856.01045  24870276.976    24870285.177
 03  6  7 18 10 30.0000000  0 10G15G23G21G29G16G 6G17G26G18G 2
  21431552.255   -16776965.32149 -13063944.66247  21431551.695    21431558.005
  21972623.099   -15532717.02249 -12088450.13446  21972622.560    21972629.187
  20507852.591    -6327715.68149  -4927332.01547  20507852.089    20507856.308
  23574694.213     1273787.68949    998573.98045  23574694.089    23574700.776
  23461108.149    -6691349.82949  -5199539.77545  23461107.863    23461113.793
  21669184.148     5967719.25549   4649940.56047  21669184.016    21669190.160
  20990285.436     -958319.67449   -746269.99847  20990284.898    20990291.278
  21641618.200    -8598316.51749  -6686132.71646  21641618.120    21641624.064
  20589703.553   -17221931.83649 -13399871.37147  20589703.195    20589707.702
  24868674.197    -4406997.15049  -3422420.85545  24868673.805    24868682.146
 03  6  7 18 11  0.0000000  0 10G15G23G21G29G16G 6G17G26G18G 2
  21420717.126   -16833904.25149 -13108312.64447  21420716.536    21420722.848
  21961582.453   -15590735.92949 -12133659.64646  21961581.883    21961588.532
  20508137.461    -6326218.70549  -4926165.54347  20508136.962    20508141.173
  23587451.670     1340828.13049   1050813.23945  23587451.567    23587458.288
  23467288.315    -6658872.72849  -5174232.97645  23467288.005    23467293.993
  21684680.141     6049151.06149   4713393.86847  21684680.008    21684686.168
  20994715.855     -935037.57649   -728128.10547  20994715.311    20994721.687
  21648318.633    -8563105.34549  -6658695.43446  21648318.581    21648324.510
  20584142.957   -17251152.74649 -13422640.89847  20584142.615    20584147.110
  24867151.474    -4414999.02749  -3428656.09545  24867151.009    24867159.642
 03  6  7 18 11 30.0000000  0 10G15G23G21G29G16G 6G17G26G18G 2
  21409911.340   -16890688.73149 -13152560.28147  21409910.777    21409917.106
  21950606.117   -15648416.80649 -12178605.76046  21950605.572    21950612.196
  20508470.736    -6324467.52549  -4924800.99347  20508470.241    20508474.412
  23600288.991     1408288.20249   1103379.49145  23600288.810    23600295.543
  23473554.890    -6625941.79049  -5148572.53945  23473554.596    23473560.557
  21700246.905     6130954.92149   4777137.08747  21700246.782    21700252.992
  20999189.518     -911528.49449   -709809.35147  20999188.984    20999195.349
  21655141.116    -8527252.37749  -6630758.07046  21655141.178    21655147.079
  20578660.893   -17279961.09949 -13445088.95247  20578660.540    20578665.051
  24865709.518    -4422578.15749  -3434561.91945  24865708.878    24865717.446
 03  6  7 18 12  0.0000000  0 11G15G23G 3G21G29G16G 6G17G26G18G 2
  21399134.670   -16947320.21749 -13196688.69247  21399134.108    21399140.459
  21939693.649   -15705761.88249 -12223290.20946  21939693.137    21939699.756
  24607247.883    -3277289.26049  -2533244.31445  24607247.457    24607255.581
  20508852.057    -6322463.67749  -4923239.55247  20508851.557    20508855.716
  23613205.212     1476163.16749   1156269.03745  23613204.968    23613211.725
  23479907.037    -6592561.67549  -5122562.10045  23479906.669    23479912.675
  21715883.724     6213126.65349   4841166.95247  21715883.596    21715889.841
  21003706.023     -887794.20049   -691315.10347  21003705.487    21003711.835
  21662085.205    -8490761.24549  -6602323.43046  21662085.241    21662091.090
  20573256.881   -17308359.35749 -13467217.45347  20573256.531    20573261.047
  24864347.294    -4429737.33349  -3440140.50245  24864346.491    24864355.049
 03  6  7 18 12 30.0000000  0 11G15G23G 3G21G29G16G 6G17G26G18G 2
  21388387.790   -17003795.64349 -13240695.50747  21388387.188    21388393.560
  21928845.588   -15762768.55449 -12267710.96846  21928845.086    21928851.683
  24588311.398    -3376800.42049  -2610785.38445  24588311.156    24588318.917
  20509281.990    -6320204.44449  -4921479.11147  20509281.510    20509285.660
  23626200.446     1544453.50349   1209482.23845  23626200.302    23626207.022
  23486344.624    -6558731.69849  -5096201.13945  23486344.223    23486350.368
  21731590.606     6295666.66549   4905483.79647  21731590.473    21731596.749
  21008265.904     -863831.98849   -672643.26247  21008265.360    21008271.697
  21669150.857    -8453630.92649  -6573390.71246  21669150.959    21669156.765
  20567931.297   -17336345.45949 -13489024.79347  20567930.958    20567935.472
  24863065.337    -4436474.73949  -3445390.43445  24863064.568    24863072.950
 03  6  7 18 13  0.0000000  0 11G15G23G 3G21G29G16G 6G17G26G18G 2
  21377670.950   -17060112.71749 -13284578.93047  21377670.397    21377676.741
  21918062.282   -15819435.30149 -12311866.84747  21918061.762    21918068.328
  24569406.178    -3476147.82849  -2688198.86045  24569405.824    24569413.798
  20509760.981    -6317687.41049  -4919517.79047  20509760.478    20509764.612
  23639274.691     1613158.30849   1263018.42045  23639274.441    23639281.216
  23492867.687    -6524452.78149  -5069490.34145  23492867.307    23492873.390
  21747367.505     6378574.57549   4970087.31947  21747367.331    21747373.636
  21012869.546     -839639.73149   -653792.16347  21012869.013    21012875.338
  21676338.241    -8415861.42049  -6543959.93846  21676338.283    21676344.065
  20562684.313   -17363918.44649 -13510510.22147  20562683.980    20562688.486
  24861863.551    -4442789.45849  -3450311.01245  24861862.970    24861871.333
 03  6  7 18 13 30.0000000  0 11G15G23G 3G21G29G16G 6G17G26G18G 2
  21366984.285   -17116271.57849 -13328339.07047  21366983.715    21366990.113
  21907343.484   -15875762.74849 -12355758.33947  21907342.972    21907349.544
  24550532.411    -3575329.97249  -2765483.60845  24550531.971    24550540.196
  20510288.943    -6314913.04849  -4917355.95647  20510288.443    20510292.587
  23652427.160     1682274.72849   1316875.32645  23652426.965    23652433.662
  23499475.705    -6489727.85849  -5042432.00045  23499475.232    23499481.308
  21763213.885     6461847.61149   5034975.34847  21763213.671    21763220.036
  21017516.858     -815218.02149   -634762.27147  21017516.316    21017522.642
  21683646.700    -8377454.67749  -6514032.61846  21683646.794    21683652.602
  20557515.732   -17391079.56649 -13531674.72247  20557515.388    20557519.873
  24860742.068    -4448682.74549  -3454903.20745  24860741.517    24860749.806
 03  6  7 18 14  0.0000000  0 11G15G23G 3G21G29G16G 6G17G26G18G 2
  21356327.944   -17172271.13349 -13371975.07847  21356327.362    21356333.743
  21896689.339   -15931750.45649 -12399385.09747  21896688.858    21896695.456
  24531690.393    -3674344.32949  -2842637.55445  24531690.034    24531698.472
  20510865.983    -6311880.47849  -4914992.91747  20510865.483    20510869.645
  23665657.588     1751800.79349   1371051.45045  23665657.386    23665664.149
  23506168.274    -6454558.53649  -5015027.37645  23506167.788    23506173.918
  21779129.424     6545484.27049   5100146.70647  21779129.262    21779135.601
  21022208.001     -790565.76349   -615552.73347  21022207.489    21022213.809
  21691076.299    -8338412.13049  -6483609.86146  21691076.340    21691082.120
  20552425.511   -17417828.76349 -13552518.24047  20552425.162    20552429.672
  24859700.668    -4454154.90349  -3459167.23645  24859699.949    24859708.514
 03  6  7 18 14 30.0000000  0 11G15G23G 3G21G29G16G 6G17G26G18G 2
  21345701.724   -17228112.26749 -13415487.63547  21345701.158    21345707.537
  21886099.642   -15987399.85049 -12442748.24047  21886099.179    21886105.685
  24512880.602    -3773189.79649  -2919659.89145  24512880.367    24512888.520
  20511492.063    -6308590.47049  -4912429.27547  20511491.570    20511495.722
  23678965.330     1821732.82749   1425543.90645  23678965.114    23678971.789
  23512944.661    -6418948.62849  -4987279.45545  23512944.138    23512950.426
  21795113.526     6629481.00249   5165598.65147  21795113.377    21795119.712
  21026942.808     -765684.12249   -596164.44947  21026942.291    21026948.639
  21698626.368    -8298736.67549  -6452693.92946  21698626.344    21698632.089
  20547413.283   -17444168.00349 -13573042.31047  20547412.942    20547417.454
  24858739.147    -4459207.91849  -3463104.64945  24858738.313    24858746.844
 03  6  7 18 15  0.0000000  0 11G15G23G 3G21G29G16G 6G17G26G18G 2
  21335105.996   -17283793.37149 -13458875.50047  21335105.414    21335111.747
  21875574.499   -16042709.88949 -12485846.93347  21875574.015    21875580.541
  24494103.685    -3871863.05149  -2996548.00745  24494103.385    24494111.606
  20512167.358    -6305041.68949  -4909663.99247  20512166.862    20512171.062
  23692349.928     1892069.49649   1480351.65345  23692349.758    23692356.351
  23519804.608    -6382899.37149  -4959189.16945  23519804.108    23519810.310
  21811165.919     6713836.63849   5231330.26247  21811165.794    21811172.125
  21031721.558     -740571.78449   -576596.39947  21031721.023    21031727.379
  21706296.653    -8258428.88049  -6421285.26846  21706296.634    21706302.419
  20542479.187   -17470096.81349 -13593246.56347  20542478.838    20542483.354
  24857857.427    -4463841.48549  -3466715.25645  24857856.484    24857864.997
 03  6  7 18 15 30.0000000  0 11G15G23G 3G21G29G16G 6G17G26G18G 2
  21324540.959   -17339313.06249 -13502137.57847  21324540.348    21324546.680
  21865113.994   -16097679.93549 -12528680.70747  21865113.527    21865120.092
  24475360.071    -3970361.45649  -3073299.92045  24475359.761    24475367.782
  20512892.067    -6301233.34749  -4906696.45947  20512891.571    20512895.760
  23705811.265     1962809.02349   1535473.33245  23705811.078    23705817.685
  23526747.946    -6346412.21749  -4930757.65045  23526747.462    23526753.570
  21827286.360     6798549.92949   5297340.56347  21827286.244    21827292.529
  21036544.341     -715227.82949   -556847.87547  21036543.794    21036550.153
  21714087.121    -8217489.71449  -6389384.63046  21714087.150    21714092.909
  20537623.213   -17495615.09449 -13613130.92747  20537622.870    20537627.397
  24857055.325    -4468055.83349  -3469999.16345  24857054.480    24857063.012
 03  6  7 18 16  0.0000000  0 11G15G23G 3G21G29G16G 6G17G26G18G 2
  21314006.638   -17394671.31549 -13545273.87147  21314006.051    21314012.357
  21854718.006   -16152310.77549 -12571250.16747  21854717.544    21854724.137
  24456650.031    -4068683.22749  -3149914.20345  24456649.734    24456657.796
  20513666.157    -6297165.51149  -4903526.71647  20513665.675    20513669.840
  23719348.621     2033948.47749   1590906.62745  23719348.337    23719355.112
  23533773.899    -6309490.55549  -4901987.56445  23533773.537    23533779.490
  21843474.411     6883618.11549   5363627.40647  21843474.247    21843480.549
  21041411.177     -689652.61449   -536919.14747  21041410.634    21041416.992
  21721997.259    -8175921.62649  -6356993.92146  21721997.284    21722003.074
  20532845.052   -17520724.42749 -13632696.63447  20532844.717    20532849.263
  24856332.942    -4471852.37049  -3472957.51445  24856332.089    24856340.543
 03  6  7 18 16 30.0000000  0 11G15G23G 3G21G29G16G 6G17G26G18G 2
  21303503.253   -17449867.01849 -13588283.49947  21303502.662    21303508.962
  21844386.732   -16206601.99849 -12613554.98247  21844386.256    21844392.864
  24437973.954    -4166825.90849  -3226388.90645  24437973.613    24437981.996
  20514489.852    -6292837.04649  -4900153.88847  20514489.355    20514493.532
  23732961.610     2105485.58849   1646649.80545  23732961.533    23732968.233
  23540882.305    -6272135.94449  -4872880.11445  23540881.946    23540887.871
  21859729.574     6969039.28449   5430189.30847  21859729.394    21859735.687
  21046322.096     -663845.61449   -516809.80347  21046321.555    21046327.890
  21730026.899    -8133725.99749  -6324114.21946  21730026.885    21730032.674
  20528144.746   -17545424.72649 -13651943.60747  20528144.402    20528148.954
  24855689.902    -4475231.54949  -3475590.63745  24855688.975    24855697.740
 03  6  7 18 17  0.0000000  0 11G15G23G 3G21G29G16G 6G17G26G18G 2
  21293030.921   -17504899.51649 -13631165.95347  21293030.332    21293036.587
  21834120.043   -16260553.60249 -12655595.15347  21834119.564    21834126.184
  24419332.683    -4264787.12449  -3302722.23745  24419332.298    24419340.485
  20515363.211    -6288247.45149  -4896577.58147  20515362.710    20515366.906
  23746650.108     2177418.40349   1702701.29945  23746649.966    23746656.603
  23548072.739    -6234350.32649  -4843436.82245  23548072.319    23548078.360
  21876051.506     7054811.44149   5497024.70347  21876051.365    21876057.623
  21051277.264     -637806.13549   -496519.30747  21051276.714    21051283.052
  21738175.676    -8090904.26349  -6290746.65246  21738175.594    21738181.395
  20523522.203   -17569716.28249 -13670872.07747  20523521.861    20523526.406
  24855126.106    -4478194.11249  -3477899.16545  24855125.314    24855133.790
 03  6  7 18 17 30.0000000  0 11G15G23G 3G21G29G16G 6G17G26G18G 2
  21282589.782   -17559768.06749 -13673920.65647  21282589.180    21282595.416
  21823918.078   -16314165.56849 -12697370.68547  21823917.556    21823924.129
  24400726.353    -4362564.42549  -3378912.26145  24400725.909    24400733.884
  20516286.401    -6283396.02949  -4892797.25547  20516285.901    20516290.100
  23760413.339     2249744.39349   1759059.19145  23760413.109    23760419.772
  23555344.572    -6196136.43349  -4813659.82145  23555344.184    23555350.365
  21892439.860     7140932.59849   5564132.04847  21892439.759    21892445.994
  21056276.704     -611533.97449   -476047.50347  21056276.163    21056282.529
  21746443.190    -8047458.17149  -6256892.55446  21746443.121    21746448.915
  20518977.396   -17593599.29249 -13689482.19647  20518977.078    20518981.612
  24854641.805    -4480740.69749  -3479883.52645  24854640.970    24854649.206
 03  6  7 18 18  0.0000000  0 11G15G23G 3G21G29G16G 6G17G26G18G 2
  21272180.050   -17614471.58149 -13716546.76047  21272179.447    21272185.667
  21813780.654   -16367437.73449 -12738881.42247  21813780.154    21813786.741
  24382155.391    -4460155.14849  -3454956.89745  24382155.075    24382162.849
  20517259.512    -6278282.40849  -4888812.61547  20517259.007    20517263.201
  23774250.943     2322461.62949   1815721.92545  23774250.819    23774257.373
  23562697.508    -6157496.23049  -4783550.61245  23562697.204    23562703.342
  21908894.233     7227400.68449   5631509.71247  21908894.118    21908900.344
  21061320.589     -585028.11949   -455393.59847  21061320.052    21061326.415
  21754829.181    -8003389.23449  -6222553.13746  21754829.145    21754834.986
  20514510.198   -17617074.58549 -13707774.62247  20514509.880    20514514.375
  24854236.202    -4482871.75949  -3481544.10145  24854235.421    24854243.691
 03  6  7 18 18 30.0000000  0 11G15G23G 3G21G29G16G 6G17G26G18G 2
  21261802.005   -17669008.42649 -13759042.98447  21261801.431    21261807.682
  21803708.140   -16420369.36549 -12780126.81647  21803707.627    21803714.136
  24363620.570    -4557556.23249  -3530853.76545  24363620.178    24363627.932
  20518282.785    -6272905.00649  -4884622.43747  20518282.289    20518286.485
  23788162.802     2395568.50649   1872688.27945  23788162.687    23788169.208
  23570131.349    -6118431.28549  -4753110.44645  23570130.988    23570137.253
  21925414.389     7314214.43849   5699156.74047  21925414.282    21925420.520
  21066409.131     -558287.46349   -434556.73247  21066408.599    21066414.989
  21763333.573    -7958698.24149  -6187729.00246  21763333.568    21763339.391
  20510120.618   -17640141.95949 -13725749.19247  20510120.279    20510124.773
  24853909.636    -4484587.39549  -3482880.95245  24853909.086    24853917.165
 03  6  7 18 19  0.0000000  0 11G15G23G 3G21G29G16G 6G17G26G18G 2
  21251455.667   -17723378.77349 -13801409.47647  21251455.064    21251461.315
  21793700.208   -16472961.52049 -12821107.68547  21793699.666    21793706.131
  24345122.003    -4654766.21849  -3606601.69745  24345121.643    24345129.374
  20519356.165    -6267264.37449  -4880227.13847  20519355.666    20519359.858
  23802148.213     2469061.69649   1929955.67145  23802148.026    23802154.468
  23577645.360    -6078944.80749  -4722341.82145  23577644.886    23577651.439
  21941999.717     7401370.73649   5767070.68347  21941999.570    21942005.861
  21071542.269     -531312.71349   -413537.45747  21071541.765    21071548.139
  21771955.966    -7913388.06849  -6152422.37946  21771955.819    21771961.670
  20505808.382   -17662802.83149 -13743407.00547  20505808.055    20505812.579
  24853661.888    -4485889.25449  -3483895.39245  24853661.208    24853669.383
 03  6  7 18 19 30.0000000  0 11G15G23G 3G21G29G16G 6G17G26G18G 2
  21241141.224   -17777581.53049 -13843645.37947  21241140.624    21241146.818
  21783756.941   -16525213.63849 -12861823.58947  21783756.409    21783762.930
  24326660.454    -4751782.25649  -3682198.55745  24326660.064    24326667.661
  20520479.843    -6261359.40449  -4875625.86247  20520479.328    20520483.526
  23816206.595     2542939.47649   1987522.73645  23816206.434    23816212.938
  23585239.411    -6039038.51949  -4691246.03845  23585238.989    23585245.318
  21958649.983     7488868.09549   5835250.37746  21958649.823    21958656.130
  21076720.210     -504102.76249   -392334.91047  21076719.681    21076726.013
  21780695.787    -7867459.77549  -6116634.11546  21780695.708    21780701.547
  20501573.496   -17685057.35349 -13760748.18147  20501573.156    20501577.669
  24853493.017    -4486777.53049  -3484587.55045  24853492.265    24853500.306
 03  6  7 18 20  0.0000000  0 11G15G23G 3G21G29G16G 6G17G26G18G 2
  21230858.863   -17831615.75249 -13885749.95347  21230858.243    21230864.436
  21773878.306   -16577125.75449 -12902274.55847  21773877.788    21773884.319
  24308236.132    -4848602.12049  -3757642.51645  24308235.779    24308243.403
  20521653.953    -6255189.42449  -4870818.08247  20521653.435    20521657.668
  23830337.738     2617199.27349   2045387.45345  23830337.700    23830344.231
  23592912.794    -5998714.90549  -4659825.08445  23592912.466    23592918.717
  21975364.743     7576704.52949   5903694.30746  21975364.522    21975370.880
  21081942.903     -476657.53549   -370949.03047  21081942.375    21081948.691
  21789552.872    -7820915.25049  -6080365.66246  21789552.846    21789558.712
  20497415.822   -17706906.07649 -13777773.15147  20497415.475    20497419.986
  24853402.556    -4487253.14649  -3484958.16645  24853401.728    24853409.770
 03  6  7 18 20 30.0000000  0 11G15G23G 3G21G29G16G 6G17G26G18G 2
  21220608.699   -17885480.51049 -13927722.47347  21220608.089    21220614.305
  21764064.483   -16628697.61749 -12942460.39447  21764063.992    21764070.549
  24289849.541    -4945222.79649  -3832931.25245  24289849.307    24289856.935
  20522878.615    -6248753.94749  -4865803.42347  20522878.087    20522882.312
  23844541.346     2691839.22949   2103548.42845  23844541.198    23844547.730
  23600665.117    -5957975.98449  -4628080.52345  23600664.770    23600671.010
  21992143.624     7664878.21549   5972401.01446  21992143.416    21992149.845
  21087210.608     -448975.82749   -349378.87647  21087210.078    21087216.349
  21798526.942    -7773756.04549  -6043618.23846  21798526.934    21798532.812
  20493335.293   -17728349.44049 -13794482.24848  20493334.929    20493339.413
  24853390.411    -4487316.61849  -3485007.60645  24853389.667    24853397.844
 03  6  7 18 21  0.0000000  0 11G15G23G 3G21G29G16G 6G17G26G18G 2
  21210390.995   -17939175.11949 -13969562.41047  21210390.322    21210396.562
  21754315.355   -16679929.50749 -12982381.31947  21754314.871    21754321.357
  24271501.493    -5041642.25649  -3908063.21645  24271501.179    24271508.797
  20524153.908    -6242052.30249  -4860581.36447  20524153.364    20524157.561
  23858816.750     2766856.70549   2162003.57245  23858816.614    23858823.152
  23608495.950    -5916824.32649  -4596014.34145  23608495.678    23608502.037
  22008986.226     7753386.83249   6041368.71346  22008986.086    22008992.538
  21092523.313     -421057.49349   -327624.34047  21092522.780    21092529.049
  21807617.593    -7725984.12449  -6006393.38346  21807617.640    21807623.490
  20489331.842   -17749387.78549 -13810875.75048  20489331.481    20489335.941
  24853456.535    -4486968.93949  -3484736.70845  24853455.731    24853464.133
 03  6  7 18 21 30.0000000  0 11G15G23G 3G21G29G16G 6G17G26G18G 2
  21200205.765   -17992698.84349 -14011269.19847  21200205.114    21200211.312
  21744630.849   -16730821.70549 -13022037.54047  21744630.386    21744636.820
  24253192.318    -5137858.18449  -3983036.59145  24253191.915    24253199.572
  20525479.912    -6235084.11349  -4855151.60847  20525479.366    20525483.579
  23873163.527     2842249.31849   2220751.01645  23873163.373    23873169.874
  23616404.979    -5875262.37149  -4563628.45445  23616404.623    23616411.057
  22025892.148     7842228.05149   6110595.57646  22025892.022    22025898.505
  21097881.093     -392902.25449   -305685.20547  21097880.571    21097886.861
  21816824.490    -7677601.43849  -5968692.60446  21816824.576    21816830.414
  20485405.256   -17770022.08049 -13826954.41248  20485404.899    20485409.341
  24853600.712    -4486210.90949  -3484146.04645  24853599.961    24853608.229
 03  6  7 18 22  0.0000000  0 11G15G23G 3G21G29G16G 6G17G26G18G 2
  21190053.206   -18046050.78549 -14052842.12247  21190052.562    21190058.768
  21735011.050   -16781374.10949 -13061428.99647  21735010.575    21735016.963
  24234922.165    -5233868.31149  -4057849.58545  24234921.723    24234929.438
  20526856.772    -6227848.60649  -4849513.55147  20526856.243    20526860.438
  23887581.305     2918014.82149   2279789.03845  23887581.111    23887587.668
  23624391.654    -5833292.44749  -4530924.65445  23624391.334    23624397.802
  22042861.028     7931399.90649   6180080.07746  22042860.875    22042867.376
  21103284.003     -364509.76549   -283561.19347  21103283.451    21103289.779
  21826147.359    -7628609.79349  -5930517.30446  21826147.353    21826153.205
  20481555.507   -17790252.75449 -13842718.55948  20481555.144    20481559.608
  24853822.964    -4485043.49249  -3483236.38645  24853822.157    24853830.420
 03  6  7 18 22 30.0000000  0 11G15G23G 3G21G29G16G 6G17G26G18G 2
  21179933.495   -18099230.23449 -14094280.64147  21179932.838    21179939.032
  21725455.872   -16831586.93849 -13100555.84747  21725455.350    21725461.769
  24216691.720    -5329670.16349  -4132500.35345  24216691.252    24216698.629
  20528284.599    -6220345.38849  -4843666.88647  20528284.085    20528288.262
  23902069.438     2994150.48949   2339115.48845  23902069.231    23902075.818
  23632455.505    -5790916.98949  -4497904.87845  23632455.182    23632461.513
  22059892.463     8020900.08249   6249820.40846  22059892.254    22059898.730
  21108732.097     -335879.49449   -261251.90247  21108731.569    21108737.931
  21835585.628    -7579011.22049  -5891869.08646  21835585.648    21835591.507
  20477782.340   -17810080.54649 -13858168.77648  20477782.016    20477786.469
  24854122.810    -4483467.63749  -3482008.46645  24854122.009    24854130.329
 03  6  7 18 23  0.0000000  0 11G15G23G 3G21G29G16G 6G17G26G18G 2
  21169846.933   -18152235.52949 -14135583.45447  21169846.290    21169852.467
  21715965.306   -16881459.84549 -13139417.82347  21715964.820    21715971.195
  24198501.418    -5425260.55049  -4206986.28845  24198500.917    24198508.183
  20529763.522    -6212573.49249  -4837610.86847  20529763.011    20529767.213
  23916627.689     3070654.70249   2398729.11345  23916627.553    23916634.111
  23640596.173    -5748138.01749  -4464570.66345  23640595.846    23640602.212
  22076986.062     8110726.90049   6319815.26646  22076985.840    22076992.238
  21114225.661     -307010.43949   -238756.55047  21114225.156    21114231.552
  21845139.074    -7528807.08449  -5852748.99246  21845139.145    21845145.069
  20474085.875   -17829505.68549 -13873305.24048  20474085.536    20474090.016
  24854500.358    -4481483.72949  -3480462.58745  24854499.598    24854507.856
 03  6  7 18 23 30.0000000  0 11G15G23G 3G21G29G16G 6G17G26G18G 2
  21159793.533   -18205066.42349 -14176750.36747  21159792.890    21159799.087
  21706539.333   -16930993.40149 -13178015.36847  21706538.866    21706545.279
  24180351.568    -5520637.82749  -4281306.18845  24180351.261    24180358.404
  20531293.655    -6204532.57249  -4831345.21447  20531293.152    20531297.375
  23931255.610     3147524.49749   2458627.62445  23931255.427    23931261.940
  23648813.026    -5704958.32449  -4430924.19245  23648812.717    23648819.116
  22094141.288     8200877.76949   6390062.63946  22094141.054    22094147.468
  21119764.654     -277902.86449   -216075.33647  21119764.132    21119770.565
  21854807.369    -7477999.82149  -5813158.93946  21854807.411    21854813.357
  20470465.812   -17848529.24349 -13888128.78348  20470465.482    20470469.942
  24854955.260    -4479093.24449  -3478599.89945  24854954.483    24854962.783
 03  6  7 18 24  0.0000000  0 11G15G23G 3G21G29G16G 6G17G26G18G 2
  21149773.573   -18257721.48149 -14217780.26747  21149772.957    21149779.129
  21697178.030   -16980187.11349 -13216348.08847  21697177.547    21697183.996
  24162242.854    -5615799.13049  -4355457.76845  24162242.558    24162249.783
  20532875.166    -6196221.77049  -4824869.26347  20532874.657    20532878.859
  23945952.598     3224757.98549   2518809.51145  23945952.412    23945958.971
  23657105.766    -5661379.92949  -4396967.05245  23657105.397    23657111.886
  22111357.818     8291351.28649   6460561.42346  22111357.655    22111364.080
  21125349.225     -248555.57449   -193207.32647  21125348.715    21125355.175
  21864590.236    -7426590.87749  -5773100.03346  21864590.259    21864596.188
  20466922.177   -17867151.02349 -13902639.24948  20466921.855    20466926.324
  24855487.404    -4476296.46049  -3476420.62245  24855486.605    24855494.975
 03  6  7 18 24 30.0000000  0 11G15G23G 3G21G29G16G 6G17G26G18G 2
  21139787.265   -18310199.87749 -14258672.50947  21139786.660    21139792.820
  21687881.454   -17029041.10349 -13254416.09947  21687880.962    21687887.370
  24144175.884    -5710741.62549  -4429438.88245  24144175.545    24144182.734
  20534508.147    -6187640.23649  -4818182.35347  20534507.646    20534511.864
  23960718.445     3302353.00249   2579273.11945  23960718.300    23960724.942
  23665473.911    -5617405.02149  -4362700.91445  23665473.593    23665479.976
  22128635.328     8382145.14349   6531309.81846  22128635.205    22128641.654
  21130979.542     -218967.94549   -170152.04147  21130979.028    21130985.510
  21874487.133    -7374582.20449  -5732573.80546  21874487.197    21874493.095
  20463454.835   -17885371.82949 -13916837.27248  20463454.505    20463458.984
  24856096.642    -4473094.16549  -3473925.35745  24856095.913    24856104.383
 03  6  7 18 25  0.0000000  0 11G15G23G 3G21G29G16G 6G17G26G18G 2
  21129834.732   -18362500.86649 -14299426.50847  21129834.120    21129840.273
  21678649.407   -17077555.68649 -13292219.63647  21678648.924    21678655.280
  24126150.983    -5805463.37949  -4503247.99545  24126150.703    24126157.666
  20536192.743    -6178787.66749  -4811284.24647  20536192.260    20536196.443
  23975552.574     3380306.79449   2640016.29145  23975552.469    23975559.112
  23673916.884    -5573036.39549  -4328128.00145  23673916.599    23673923.050
  22145973.441     8473257.04049   6602306.04146  22145973.321    22145979.805
  21136655.647     -189139.87449   -146909.39747  21136655.128    21136661.629
  21884497.761    -7321975.87349  -5691581.87546  21884497.878    21884503.767
  20460063.646   -17903192.65549 -13930723.61748  20460063.303    20460067.814
  24856782.944    -4469487.59649  -3471115.06645  24856782.277    24856790.889
 03  6  7 18 25 30.0000000  0 11G15G23G 3G21G29G16G 6G17G26G18G 2
  21119916.070   -18414623.77049 -14340041.74447  21119915.447    21119921.593
  21669481.861   -17125731.29449 -13329759.03447  21669481.400    21669487.736
  24108168.364    -5899962.03949  -4576883.22745  24108168.072    24108175.159
  20537928.993    -6169663.59749  -4804174.57847  20537928.498    20537932.692
  23990454.518     3458616.64849   2701036.91245  23990454.444    23990460.951
  23682434.388    -5528276.78549  -4293250.41345  23682434.132    23682440.460
  22163371.547     8564684.45749   6673548.11546  22163371.397    22163377.918
  21142377.522     -159071.28649   -123479.34247  21142376.977    21142383.487
  21894621.795    -7268774.21749  -5650126.04946  21894621.839    21894627.757
  20456748.405   -17920614.28049 -13944298.90148  20456748.058    20456752.558
  24857545.954    -4465478.12149  -3467990.82845  24857545.309    24857553.894
 03  6  7 18 26  0.0000000  0 11G15G23G 3G21G29G16G 6G17G26G18G 2
  21110031.518   -18466567.24149 -14380517.15447  21110030.900    21110037.054
  21660378.929   -17173567.51849 -13367033.97947  21660378.422    21660384.732
  24090228.959    -5994234.66949  -4650342.36245  24090228.652    24090235.662
  20539717.093    -6160267.03349  -4796852.58047  20539716.620    20539720.823
  24005423.890     3537280.86449   2762333.66045  24005423.701    24005430.214
  23691025.854    -5483128.13249  -4258069.69645  23691025.674    23691031.877
  22180829.379     8656425.77549   6745034.78746  22180829.222    22180835.802
  21148145.359     -128761.00149    -99860.94447  21148144.824    21148151.345
  21904858.674    -7214978.89349  -5608207.63546  21904858.742    21904864.673
  20453509.095   -17937636.84549 -13957563.22748  20453508.751    20453513.259
  24858385.489    -4461066.13349  -3464552.93345  24858384.729    24858393.475
 03  6  7 18 26 30.0000000  0 11G15G23G 3G21G29G16G 6G17G26G18G 2
  21100181.277   -18518330.41949 -14420852.07847  21100180.679    21100186.816
  21651340.497   -17221064.64749 -13404044.69647  21651340.009    21651346.336
  24072332.944    -6088278.80449  -4723623.45745  24072332.602    24072339.636
  20541557.112    -6150597.52349  -4789317.89547  20541556.656    20541560.860
  24020460.145     3616296.81749   2823904.50145  24020459.982    24020466.436
  23699691.021    -5437592.95549  -4222587.77945  23699690.845    23699697.031
  22198346.540     8748478.71149   6816764.29146  22198346.355    22198352.977
  21153959.219      -98209.09749    -76054.27747  21153958.689    21153965.207
  21915208.278    -7160591.71749  -5565828.02946  21915208.317    21915214.278
  20450345.623   -17954260.89549 -13970517.02548  20450345.320    20450349.773
  24859301.310    -4456252.48449  -3460802.06145  24859300.724    24859309.404
 03  6  7 18 27  0.0000000  0 11G15G23G 3G21G29G16G 6G17G26G18G 2
  21090365.513   -18569912.47849 -14461045.87547  21090364.914    21090371.046
  21642366.568   -17268222.71149 -13440791.20747  21642366.082    21642372.403
  24054480.828    -6182092.08749  -4796724.63045  24054480.429    24054487.521
  20543449.282    -6140654.21449  -4781569.86047  20543448.806    20543453.013
  24035562.827     3695662.18349   2885747.59845  24035562.736    24035569.300
  23708429.266    -5391673.58849  -4186806.52645  23708429.085    23708435.333
  22215922.534     8840841.15149   6888734.95546  22215922.367    22215929.029
  21159819.219      -67414.51849    -52058.51547  21159818.712    21159825.227
  21925669.968    -7105614.83649  -5522988.92146  21925670.055    21925676.057
  20447257.876   -17970487.22249 -13983160.90448  20447257.558    20447261.998
  24860293.484    -4451038.26849  -3456739.04045  24860293.067    24860301.621
 03  6  7 18 27 30.0000000  0 11G15G23G 3G21G29G16G 6G17G26G18G 2
  21080584.408   -18621312.40249 -14501097.74647  21080583.786    21080589.967
  21633457.101   -17315042.15449 -13477273.85847  21633456.619    21633462.919
  24036673.087    -6275672.22949  -4869644.17045  24036672.728    24036679.849
  20545393.615    -6130436.73749  -4773608.18447  20545393.150    20545397.340
  24050731.509     3775374.36149   2947860.94545  24050731.425    24050738.030
  23717240.118    -5345372.92549  -4150728.12645  23717239.867    23717246.172
  22233557.040     8933510.67449   6960944.91946  22233556.859    22233563.538
  21165725.484      -36376.87749    -27873.35247  21165724.993    21165731.513
  21936243.456    -7050050.63049  -5479692.15246  21936243.574    21936249.517
  20444245.580   -17986316.87849 -13995495.69448  20444245.254    20444249.682
  24861361.810    -4445424.77649  -3452364.90645  24861361.388    24861369.886
 03  6  7 18 28  0.0000000  0 11G15G23G 3G21G29G16G 6G17G26G18G 2
  21070838.097   -18672529.21149 -14541006.92947  21070837.493    21070843.712
  21624612.071   -17361523.11649 -13513492.75247  21624611.553    21624617.879
  24018910.198    -6369016.71449  -4942380.06545  24018909.775    24018916.964
  20547390.202    -6119944.51749  -4765432.42847  20547389.768    20547393.934
  24065965.796     3855430.96449   3010242.67745  24065965.779    24065972.374
  23726122.934    -5298693.36049  -4114354.48245  23726122.617    23726129.050
  22251249.595     9026485.23849   7033392.56346  22251249.411    22251256.055
  21171678.049       -5095.96449     -3498.62347  21171677.543    21171684.064
  21946928.341    -6993901.19249  -5435939.34246  21946928.478    21946934.417
  20441308.721   -18001750.32049 -14007521.74348  20441308.387    20441312.807
  24862506.057    -4439413.08149  -3447680.47245  24862505.515    24862513.842
 03  6  7 18 28 30.0000000  0 11G15G23G 3G21G29G16G 6G17G26G18G 2
  21061126.904   -18723561.84349 -14580772.59347  21061126.286    21061132.507
  21615831.439   -17407665.60949 -13549447.90747  21615830.932    21615837.248
  24001192.673    -6462122.65249  -5014930.10445  24001192.321    24001199.361
  20549439.277    -6109176.66449  -4757041.89347  20549438.830    20549442.959
  24081265.200     3935829.95649   3072891.21445  24081265.207    24081271.784
  23735077.506    -5251637.12749  -4077687.32645  23735077.218    23735083.616
  22268999.836     9119762.84549   7106076.35146  22268999.612    22269006.219
  21177677.094       26429.15049     21066.39247  21177676.590    21177683.114
  21957724.262    -6937168.25949  -5391731.88146  21957724.404    21957730.318
  20438447.109   -18016788.12149 -14019239.50248  20438446.778    20438451.186
  24863725.615    -4433003.94149  -3442686.35245  24863725.182    24863733.507
 03  6  7 18 29  0.0000000  0 11G15G23G 3G21G29G16G 6G17G26G18G 2
  21051450.843   -18774409.64349 -14620394.23547  21051450.224    21051456.458
  21607115.098   -17453470.25149 -13585139.80047  21607114.586    21607120.870
  23983520.809    -6554988.08049  -5087292.68945  23983520.444    23983527.729
  20551540.835    -6098132.97049  -4748436.41747  20551540.365    20551544.516
  24096629.180     4016568.27249   3135804.14245  24096629.201    24096635.832
  23744103.106    -5204207.17249  -4040728.96945  23744102.790    23744109.241
  22286807.164     9213340.76449   7178994.15746  22286806.915    22286813.540
  21183722.585       58198.57749     45821.77747  21183722.104    21183728.638
  21968630.792    -6879854.57049  -5347071.88946  21968630.923    21968636.744
  20435660.660   -18031431.19749 -14030649.67948  20435660.317    20435664.726
  24865020.483    -4426198.67149  -3437383.55945  24865020.025    24865028.491
 03  6  7 18 29 30.0000000  0 11G15G23G 3G21G29G16G 6G17G26G18G 2
  21041810.307   -18825070.97149 -14659870.57747  21041809.688    21041815.926
  21598463.180   -17498936.45549 -13620567.97747  21598462.685    21598468.887
  23965895.292    -6647609.91849  -5159465.49745  23965894.987    23965902.260
  20553695.095    -6086812.25349  -4739615.07947  20553694.623    20553698.771
  24112057.477     4097644.33149   3198980.26545  24112057.430    24112064.071
  23753199.491    -5156405.53249  -4003480.97745  23753199.172    23753205.689
  22304671.337     9307217.47349   7252144.77746  22304671.128    22304677.677
  21189814.809       90213.26149     70768.27347  21189814.317    21189820.835
  21979647.485    -6821961.37649  -5301960.32246  21979647.676    21979653.492
  20432949.274   -18045679.57349 -14041752.30148  20432948.934    20432953.346
  24866391.068    -4418997.76149  -3431772.46645  24866390.366    24866398.857
 03  6  7 18 30  0.0000000  0 11G15G23G 3G21G29G16G 6G17G26G18G 2
  21032205.337   -18875545.15949 -14699201.09347  21032204.708    21032210.964
  21589875.536   -17544064.80149 -13655732.89547  21589875.021    21589881.220
  23948316.496    -6739985.96849  -5231446.77545  23948316.276    23948323.520
  20555902.203    -6075213.98449  -4730577.46347  20555901.725    20555905.865
  24127549.487     4179055.24349   3262417.29545  24127549.495    24127556.195
  23762366.210    -5108234.88649  -3965945.45945  23762365.766    23762372.297
  22322591.794     9401390.37749   7325526.19346  22322591.641    22322598.211
  21195953.749      122473.37149     95906.01347  21195953.227    21195959.717
  21990774.086    -6763491.40349  -5256399.30746  21990774.173    21990779.986
  20430312.758   -18059534.55949 -14052548.38748  20430312.409    20430316.805
  24867836.380    -4411402.60749  -3425854.17245  24867835.755    24867844.201
 03  6  7 18 30 30.0000000  0 11G15G23G 3G21G29G16G 6G17G26G18G 2
  21022636.118   -18925831.48849 -14738385.22947  21022635.492    21022641.782
  21581352.061   -17588855.83449 -13690634.96247  21581351.561    21581357.764
  23930785.013    -6832114.16249  -5303234.88945  23930784.782    23930792.169
  20558162.109    -6063338.12449  -4721323.54347  20558161.631    20558165.744
  24143104.854     4260798.23049   3326113.10745  24143104.726    24143111.384
  23771602.507    -5059698.31249  -3928124.79645  23771602.053    23771608.577
  22340568.209     9495856.85149   7399136.36246  22340568.086    22340574.637
  21202139.430      154979.19049    121235.21047  21202138.915    21202145.392
  22002009.922    -6704447.19949  -5210390.85846  22002009.936    22002015.753
  20427750.913   -18072997.11349 -14063038.68248  20427750.543    20427754.975
  24869356.571    -4403414.71149  -3419629.82145  24869356.003    24869364.250
 03  6  7 18 31  0.0000000  0 11G15G23G 3G21G29G16G 6G17G26G18G 2
  21013102.910   -18975928.95749 -14777422.20447  21013102.282    21013108.562
  21572892.809   -17633309.51749 -13725274.17147  21572892.288    21572898.457
  23913301.170    -6923991.80549  -5374827.80645  23913300.916    23913308.327
  20560475.025    -6051183.64149  -4711852.51547  20560474.550    20560478.656
  24158722.953     4342871.28849   3390066.09445  24158722.795    24158729.420
  23780908.019    -5010797.87749  -3890020.61845  23780907.660    23780914.134
  22358600.160     9590615.10249   7472973.90246  22358600.033    22358606.594
  21208372.016      187731.50149    146756.48247  21208371.510    21208377.950
  22013354.616    -6644830.54649  -5163936.34046  22013354.591    22013360.457
  20425263.660   -18086067.64049 -14073223.50048  20425263.305    20425267.730
  24870951.170    -4395034.93249  -3413100.13345  24870950.539    24870958.647
 03  6  7 18 31 30.0000000  0 11G15G23G 3G21G29G16G 6G17G26G18G 2
  21003605.894   -19025836.02449 -14816310.80747  21003605.287    21003611.515
  21564497.786   -17677425.61849 -13759650.32347  21564497.249    21564503.452
  23895865.792    -7015615.75249  -5446223.04345  23895865.547    23895872.775
  20562841.201    -6038749.27649  -4702163.39847  20562840.722    20562844.826
  24174403.331     4425272.48049   3454274.77445  24174403.229    24174409.809
  23790282.368    -4961535.76649  -3851634.60145  23790281.950    23790288.514
  22376687.253     9685663.25149   7547037.31746  22376687.102    22376693.724
  21214651.726      220731.24749    172470.55547  21214651.193    21214657.603
  22024807.947    -6584643.16049  -5117037.08846  22024807.853    22024813.801
  20422850.941   -18098746.59849 -14083103.19948  20422850.565    20422854.969
  24872620.088    -4386263.81749  -3406265.52345  24872619.573    24872627.657
 03  6  7 18 32  0.0000000  0 11G15G23G 3G21G29G16G 6G17G26G18G 2
  20994145.219   -19075552.10649 -14855050.59547  20994144.626    20994150.837
  21556166.826   -17721204.92649 -13793764.03947  21556166.287    21556172.518
  23878478.842    -7106984.12449  -5517419.11045  23878478.604    23878485.868
  20565260.615    -6026035.11249  -4692256.25747  20565260.117    20565264.242
  24190145.578     4507998.69249   3518736.71345  24190145.521    24190151.996
  23799724.728    -4911915.00749  -3812969.13645  23799724.374    23799731.045
  22394829.002     9780998.52249   7621324.47446  22394828.833    22394835.574
  21220978.486      253978.23849    198377.28947  21220977.933    21220984.309
  22036369.224    -6523888.01049  -5069695.42046  22036369.179    22036375.132
  20420512.560   -18111034.90949 -14092678.49648  20420512.204    20420516.588
  24874363.283    -4377103.06949  -3399127.29545  24874362.867    24874370.894
 03  6  7 18 32 30.0000000  0 11G15G23G 3G21G29G16G 6G17G26G18G 2
  20984721.192   -19125075.82649 -14893640.49247  20984720.600    20984726.794
  21547899.963   -17764647.45849 -13827615.32747  21547899.420    21547905.650
  23861141.137    -7198094.13549  -5588413.85845  23861140.956    23861148.294
  20567733.481    -6013040.12349  -4682130.29147  20567732.995    20567737.104
  24205949.440     4591047.88049   3583450.32245  24205949.309    24205955.857
  23809235.013    -4861938.08449  -3774026.10945  23809234.630    23809241.313
  22413025.047     9876618.95749   7695833.82746  22413024.895    22413031.657
  21227352.405      287473.29149    224477.32947  21227351.850    21227358.219
  22048038.190    -6462567.01849  -5021912.84546  22048038.181    22048044.112
  20418248.315   -18122933.26649 -14101949.93548  20418247.971    20418252.380
  24876180.495    -4367553.52249  -3391686.09845  24876179.949    24876188.262
 03  6  7 18 33  0.0000000  0 11G15G23G 3G21G29G16G 6G17G26G18G 2
  20975333.886   -19174406.43249 -14932079.91047  20975333.289    20975339.449
  21539697.036   -17807753.66949 -13861204.55347  21539696.509    21539702.771
  23843853.096    -7288943.39149  -5659205.43145  23843852.874    23843860.278
  20570259.868    -5999763.87149  -4671785.15947  20570259.386    20570263.507
  24221813.976     4674417.29049   3648413.46145  24221813.978    24221820.645
  23818812.598    -4811607.81149  -3734807.74645  23818812.149    23818818.944
  22431274.767     9972522.13249   7770563.51146  22431274.662    22431281.496
  21233773.604      321216.93449    250771.06147  21233773.065    21233779.456
  22059814.336    -6400682.66349  -4973691.28746  22059814.368    22059820.367
  20416058.155   -18134442.67649 -14110918.29748  20416057.817    20416062.212
  24878071.530    -4357616.50949  -3383942.97845  24878070.940    24878079.158
 03  6  7 18 33 30.0000000  0 11G15G23G 3G21G29G16G 6G17G26G18G 2
  20965983.543   -19223542.73149 -14970367.92247  20965982.932    20965989.107
  21531558.114   -17850523.74149 -13894531.85047  21531557.613    21531563.862
  23826615.103    -7379529.34849  -5729791.82345  23826614.878    23826622.332
  20572839.863    -5986205.76149  -4661220.38947  20572839.390    20572843.537
  24237739.229     4758104.72249   3713624.40445  24237739.093    24237745.825
  23828456.944    -4760926.62949  -3695315.95945  23828456.452    23828463.035
  22449577.915    10068705.80349   7845511.76846  22449577.831    22449584.729
  21240242.165      355209.57949    277258.82247  21240241.667    21240248.084
  22071697.273    -6338237.20849  -4925032.51046  22071697.292    22071703.360
  20413941.925   -18145563.69149 -14119584.01348  20413941.562    20413945.962
  24880036.002    -4347293.06649  -3375898.74545  24880035.350    24880043.844
 03  6  7 18 34  0.0000000  0 11G15G23G 3G21G29G16G 6G17G26G18G 2
  20956670.365   -19272483.78849 -15008503.79447  20956669.769    20956675.915
  21523483.121   -17892958.03949 -13927597.50947  21523482.633    21523488.859
  23809427.616    -7469849.51849  -5800171.09145  23809427.406    23809434.994
  20575473.615    -5972365.17049  -4650435.51547  20575473.146    20575477.305
  24253724.483     4842107.39549   3779081.00045  24253724.326    24253731.056
  23838167.557    -4709897.31049  -3655552.90645  23838167.130    23838173.605
  22467934.027    10165167.70549   7920676.79746  22467933.963    22467940.875
  21246758.174      389451.47649    303940.80847  21246757.686    21246764.097
  22083686.560    -6275233.06449  -4875938.38146  22083686.582    22083692.666
  20411899.338   -18156297.52449 -14127948.03448  20411898.966    20411903.365
  24882073.843    -4336584.73549  -3367554.60545  24882073.189    24882081.564
 03  6  7 18 34 30.0000000  0 11G15G23G 3G21G29G16G 6G17G26G18G 2
  20947394.466   -19321228.84749 -15046486.94047  20947393.871    20947400.043
  21515471.887   -17935057.27749 -13960402.07447  21515471.389    21515477.607
  23792291.187    -7559901.66949  -5870341.55045  23792291.090    23792298.474
  20578161.141    -5958242.03449  -4639430.47347  20578160.696    20578164.865
  24269769.204     4926422.64749   3844781.15845  24269769.059    24269775.892
  23847943.868    -4658522.82749  -3615520.89745  23847943.403    23847949.879
  22486342.669    10261905.19849   7996056.60246  22486342.589    22486349.491
  21253321.729      423943.05849    330817.35447  21253321.202    21253327.620
  22095781.536    -6211672.89349  -4826410.99246  22095781.679    22095787.728
  20409930.306   -18166644.92549 -14136010.93848  20409929.940    20409934.331
  24884184.523    -4325493.10449  -3358911.80345  24884183.768    24884192.162
 03  6  7 18 35  0.0000000  0 11G15G23G 3G21G29G16G 6G17G26G18G 2
  20938156.157   -19369776.52549 -15084316.28447  20938155.557    20938161.708
  21507524.411   -17976821.40949 -13992945.52247  21507523.901    21507530.091
  23775206.407    -7649683.33749  -5940301.24545  23775206.188    23775213.490
  20580902.662    -5943835.38749  -4628204.51447  20580902.188    20580906.352
  24285873.016     5011048.25349   3910723.14145  24285872.890    24285879.694
  23857785.416    -4606805.53049  -3575221.74945  23857784.829    23857791.408
  22504803.392    10358916.31849   8071649.61846  22504803.259    22504810.130
  21259932.954      458685.19049    357889.14147  21259932.425    21259938.811
  22107982.083    -6147558.81649  -4776451.99246  22107982.173    22107988.199
  20408034.665   -18176606.53049 -14143773.22248  20408034.292    20408038.646
  24886367.881    -4314018.94849  -3349970.93945  24886367.037    24886375.758
 03  6  7 18 35 30.0000000  0 11G15G23G 3G21G29G16G 6G17G26G18G 2
  20928955.528   -19418125.91149 -15121991.11347  20928954.916    20928961.086
  21499640.695   -18018250.60849 -14025227.98647  21499640.169    21499646.337
  23758173.574    -7739191.85249  -6010048.09145  23758173.329    23758180.397
  20583698.304    -5929144.28249  -4616756.90347  20583697.812    20583701.987
  24302035.400     5095981.85249   3976905.12245  24302035.251    24302042.031
  23867691.800    -4554747.93149  -3534657.42745  23867691.192    23867697.743
  22523315.704    10456198.75049   8147454.04046  22523315.533    22523322.314
  21266591.875      493677.84949    385156.13647  21266591.315    21266597.737
  22120287.569    -6082893.13549  -4726063.15846  22120287.653    22120293.641
  20406212.309   -18186183.08849 -14151235.46848  20406211.934    20406216.308
  24888623.841    -4302163.64749  -3340733.05345  24888623.005    24888631.886
 03  6  7 18 36  0.0000000  0 11G15G23G 3G21G29G16G 6G17G26G18G 2
  20919792.794   -19466276.30849 -15159510.89247  20919792.189    20919798.369
  21491820.504   -18059345.87549 -14057250.23947  21491819.983    21491826.148
  23741193.069    -7828425.08749  -6079580.42045  23741192.744    23741199.776
  20586548.072    -5914168.83349  -4605087.72447  20586547.560    20586551.731
  24318255.848     5181220.45249   4043324.76345  24318255.522    24318262.424
  23877662.189    -4502353.21849  -3493830.39045  23877661.628    23877667.962
  22541879.094    10553749.71549   8223467.70246  22541878.882    22541885.694
  21273298.543      528921.80649    412618.95247  21273298.022    21273304.415
  22132697.471    -6017678.82749  -4675246.83046  22132697.532    22132703.523
  20404462.955   -18195375.87249 -14158398.66848  20404462.594    20404466.986
  24890952.152    -4289928.91249  -3331199.53445  24890951.333    24890960.287
 03  6  7 18 36 30.0000000  0 11G15G23G 3G21G29G16G 6G17G26G18G 2
  20910668.369   -19514225.51749 -15196873.89847  20910667.766    20910673.935
  21484063.984   -18100106.34349 -14089011.61347  21484063.472    21484069.628
  23724265.538    -7917379.45549  -6148895.45945  23724265.183    23724272.258
  20589452.280    -5898907.16549  -4593195.51747  20589451.769    20589455.923
  24334533.971     5266762.55449   4109980.90045  24334533.773    24334540.591
  23887696.400    -4449623.12949  -3452742.06445  23887695.832    23887702.197
  22560493.263    10651568.06849   8299689.72546  22560493.126    22560499.973
  21280053.239      564418.05349    440278.35147  21280052.716    21280059.132
  22145211.595    -5951917.08649  -4624003.93046  22145211.639    22145217.557
  20402786.642   -18204184.66649 -14165262.65848  20402786.285    20402790.716
  24893352.412    -4277314.77449  -3321370.36945  24893351.851    24893360.445
 03  6  7 18 37  0.0000000  0 11G15G23G 3G21G29G16G 6G17G26G18G 2
  20901582.260   -19561973.29949 -15234079.94747  20901581.676    20901587.816
  21476370.992   -18140533.26449 -14120513.08047  21476370.478    21476376.596
  23707391.348    -8006053.61349  -6217992.15445  23707391.015    23707398.093
  20592410.953    -5883359.32949  -4581080.32647  20592410.421    20592414.587
  24350869.186     5352605.16749   4176871.21145  24350869.004    24350875.953
  23897793.845    -4396561.05249  -3411395.04545  23897793.272    23897799.618
  22579157.765    10749650.56249   8376117.56446  22579157.664    22579164.566
  21286855.891      600166.26549    468134.09647  21286855.357    21286861.820
  22157829.168    -5885611.24449  -4572337.05046  22157829.234    22157835.122
  20401183.156   -18212611.10749 -14171828.71148  20401182.805    20401187.223
  24895824.490    -4264323.58649  -3311247.40245  24895824.030    24895832.655
 03  6  7 18 37 30.0000000  0 11G15G23G 3G21G29G16G 6G17G26G18G 2
  20892534.748   -19609518.17049 -15271127.87947  20892534.169    20892540.302
  21468741.509   -18180626.45549 -14151754.49847  21468740.980    21468747.071
  23690571.083    -8094444.26949  -6286867.92845  23690570.819    23690577.849
  20595424.273    -5867524.10749  -4568741.19047  20595423.775    20595427.938
  24367261.236     5438746.29849   4243994.12845  24367261.245    24367268.058
  23907953.979    -4343169.17549  -3369791.02045  23907953.378    23907959.677
  22597872.290    10847995.67049   8452750.05646  22597872.178    22597879.109
  21293706.759      636167.92849    496187.32647  21293706.234    21293712.681
  22170549.957    -5818763.16849  -4520247.65846  22170550.017    22170555.930
  20399652.350   -18220655.55649 -14178097.10648  20399651.985    20399656.418
  24898368.379    -4250955.93849  -3300831.07445  24898367.858    24898376.510
 03  6  7 18 38  0.0000000  0 11G15G23G 3G21G29G16G 6G17G26G18G 2
  20883525.947   -19656859.68049 -15308017.34947  20883525.366    20883531.477
  21461175.267   -18220387.16249 -14182736.83747  21461174.758    21461180.824
  23673805.119    -8182549.86049  -6355521.60145  23673804.846    23673811.814
  20598492.197    -5851402.00449  -4556178.51247  20598491.701    20598495.875
  24383709.668     5525182.31549   4311346.82045  24383709.589    24383716.467
  23918176.172    -4289451.01549  -3327932.78045  23918175.642    23918182.025
  22616636.228    10946600.21049   8529584.68346  22616636.089    22616643.028
  21300605.815      672422.65149    524437.75547  21300605.288    21300611.757
  22183373.235    -5751376.11049  -4467738.28646  22183373.360    22183379.305
  20398193.962   -18228319.42949 -14184068.95048  20398193.614    20398198.016
  24900983.212    -4237214.14949  -3290123.21545  24900982.918    24900991.277
 03  6  7 18 38 30.0000000  0 11G15G23G 3G21G29G16G 6G17G26G18G 2
  20874556.216   -19703995.92449 -15344746.87647  20874555.626    20874561.719
  21453672.371   -18259814.94449 -14213459.75847  21453671.852    21453677.918
  23657093.876    -8270366.98949  -6423950.45745  23657093.595    23657100.643
  20601615.013    -5834991.53949  -4543391.14247  20601614.529    20601618.692
  24400213.800     5611911.78049   4378928.16345  24400213.774    24400220.602
  23928460.126    -4235408.57549  -3285821.83545  23928459.671    23928466.143
  22635449.221    11045462.57749   8606620.21146  22635449.015    22635456.018
  21307553.208      708931.40949    552886.12447  21307552.668    21307559.160
  22196298.819    -5683451.94549  -4414810.37546  22196298.912    22196304.844
  20396807.928   -18235603.20449 -14189744.61348  20396807.544    20396811.944
  24903669.319    -4223098.71949  -3279124.19145  24903668.899    24903677.349
 03  6  7 18 39  0.0000000  0 11G15G23G 3G21G29G16G 6G17G26G18G 2
  20865625.641   -19750926.40949 -15381316.07047  20865625.028    20865631.133
  21446232.716   -18298910.52049 -14243923.81447  21446232.222    21446238.266
  23640437.875    -8357893.61749  -6492152.96645  23640437.656    23640444.773
  20604792.742    -5818292.48749  -4530378.89747  20604792.229    20604796.396
  24416773.024     5698931.75049   4446735.89545  24416773.120    24416779.978
  23938805.237    -4181045.06849  -3243460.69345  23938804.840    23938811.248
  22654310.769    11144580.00449   8683854.48746  22654310.558    22654317.522
  21314548.933      745694.25749    581532.49547  21314548.415    21314554.922
  22209325.959    -5614993.50349  -4361466.14946  22209326.133    22209332.072
  20395493.968   -18242507.96349 -14195124.93748  20395493.614    20395498.010
  24906426.311    -4208611.50649  -3267835.47945  24906425.850    24906434.159
 03  6  7 18 39 30.0000000  0 12G15G14G23G 3G21G29G16G 6G17G26G18G 2
  20856733.914   -19797652.58149 -15417726.05747  20856733.334    20856739.435
  24656512.255    -2451166.44449  -1887928.36845  24656512.182    24656521.264
  21438855.659   -18337676.93049 -14274131.37747  21438855.159    21438861.254
  23623837.408    -8445129.74749  -6560129.11845  23623837.158    23623844.255
  20608024.974    -5801306.88449  -4517143.36847  20608024.482    20608028.660
  24433386.632     5786236.85549   4514765.79445  24433386.759    24433393.588
  23949210.416    -4126365.49449  -3200853.23645  23949209.937    23949216.356
  22673219.810    11243947.37949   8761283.54746  22673219.606    22673226.591
  21321592.637      782709.04749    610375.17047  21321592.119    21321598.637
  22222453.880    -5546005.91149  -4307709.60046  22222453.995    22222459.980
  20394251.496   -18249037.22049 -14200212.66448  20394251.124    20394255.533
  24909253.201    -4193756.34949  -3256260.07145  24909252.683    24909261.051
 03  6  7 18 40  0.0000000  0 12G15G14G23G 3G21G29G16G 6G17G26G18G 2
  20847881.763   -19844170.83549 -15453974.03347  20847881.182    20847887.311
  24634738.625    -2565587.04649  -1977087.10345  24634738.616    24634747.524
  21431541.646   -18376112.28049 -14304080.97047  21431541.143    21431547.221
  23607293.058    -8532070.73049  -6627875.27645  23607292.771    23607299.931
  20611312.351    -5784031.53649  -4503682.05647  20611311.856    20611316.059
  24450054.725     5873827.39049   4583018.11045  24450054.709    24450061.416
  23959675.551    -4071370.54649  -3158000.07945  23959675.132    23959681.468
  22692176.346    11343564.83849   8838907.46046  22692176.224    22692183.259
  21328684.862      819978.83649    639416.56347  21328684.339    21328690.868
  22235682.501    -5476489.38349  -4253540.89146  22235682.557    22235688.578
  20393080.779   -18255189.39049 -14205006.55548  20393080.414    20393084.819
  24912150.297    -4178532.42449  -3244397.27945  24912149.747    24912158.153
 03  6  7 18 40 30.0000000  0 12G15G14G23G 3G21G29G16G 6G17G26G18G 2
  20839069.686   -19890478.37449 -15490057.80947  20839069.093    20839075.254
  24612966.379    -2680000.19349  -2066240.05945  24612966.368    24612975.276
  21424290.815   -18414215.25049 -14333771.57147  21424290.342    21424296.405
  23590805.683    -8618712.20049  -6695388.05545  23590805.426    23590812.570
  20614655.288    -5766464.17549  -4489993.20847  20614654.821    20614659.023
  24466776.900     5961702.38749   4651492.07145  24466776.833    24466783.548
  23970200.778    -4016061.21349  -3114901.93345  23970200.426    23970206.638
  22711180.406    11443431.80749   8916725.79846  22711180.297    22711187.389
  21335825.965      857505.50949    668658.11047  21335825.425    21335831.954
  22249011.589    -5406444.59349  -4198960.55446  22249011.650    22249017.693
  20391981.922   -18260963.71349 -14209506.01948  20391981.555    20391985.971
  24915117.744    -4162939.19549  -3232246.72145  24915117.243    24915125.406
 03  6  7 18 41  0.0000000  0 12G15G14G23G 3G21G29G16G 6G17G26G18G 2
  20830297.752   -19936575.01149 -15525977.24947  20830297.165    20830303.337
  24591195.825    -2794404.55949  -2155386.13945  24591195.919    24591204.784
  21417103.035   -18451987.21449 -14363204.24447  21417102.568    21417108.613
  23574375.598    -8705052.57349  -6762666.22245  23574375.360    23574382.413
  20618053.716    -5748605.52349  -4476077.37647  20618053.229    20618057.434
  24483552.503     6049858.38449   4720185.00345  24483552.340    24483559.139
  23980784.945    -3960441.10949  -3071561.64445  23980784.568    23980790.750
  22730231.330    11543544.90049   8994735.92146  22730231.238    22730238.354
  21343015.865      895288.81449    698099.63647  21343015.348    21343021.888
  22262440.476    -5335875.16849  -4143971.41246  22262440.573    22262446.634
  20390954.650   -18266362.11349 -14213712.56048  20390954.276    20390958.701
  24918155.024    -4146978.96849  -3219810.18845  24918154.441    24918162.567
 03  6  7 18 41 30.0000000  0 12G15G14G23G 3G21G29G16G 6G17G26G18G 2
  20821566.209   -19982459.69949 -15561731.53747  20821565.620    20821571.755
  24569427.656    -2908796.96749  -2244522.90845  24569427.869    24569436.388
  21409978.207   -18489428.49949 -14392379.24947  21409977.691    21409983.756
  23558003.356    -8791089.45749  -6829707.89045  23558003.133    23558010.153
  20621507.728    -5730454.55849  -4461933.77247  20621507.258    20621511.443
  24500380.986     6138293.01649   4789095.06145  24500380.889    24500387.713
  23991427.918    -3904512.87049  -3027981.24345  23991427.500    23991433.810
  22749328.559    11643901.83749   9072936.04946  22749328.488    22749335.705
  21350254.766      933329.44049    727741.67847  21350254.257    21350260.778
  22275968.714    -5264783.67649  -4088575.46046  22275968.857    22275974.920
  20389998.742   -18271385.27849 -14217626.70948  20389998.398    20390002.809
  24921261.772    -4130653.20049  -3207088.81845  24921261.210    24921269.321
 03  6  7 18 42  0.0000000  0 12G15G14G23G 3G21G29G16G 6G17G26G18G 2
  20812875.160   -20028131.49749 -15597319.93547  20812874.547    20812880.684
  24547662.112    -3023175.39449  -2333648.82545  24547662.098    24547670.692
  21402916.108   -18526539.80449 -14421297.12247  21402915.600    21402921.657
  23541689.347    -8876820.76249  -6896511.43845  23541689.058    23541695.993
  20625017.460    -5712010.85949  -4447562.06547  20625016.998    20625021.165
  24517262.053     6227003.46249   4858220.01845  24517262.033    24517268.854
  24002128.821    -3848279.83449  -2984163.36045  24002128.302    24002134.745
  22768471.780    11744499.96249   9151324.12846  22768471.655    22768478.892
  21357542.637      971627.44249    757584.25747  21357542.121    21357548.621
  22289595.848    -5193173.00849  -4032774.95946  22289596.003    22289601.953
  20389113.983   -18276034.49849 -14221249.47848  20389113.650    20389118.084
  24924437.641    -4113963.79249  -3194084.09545  24924437.072    24924445.351
 03  6  7 18 42 30.0000000  0 12G15G14G23G 3G21G29G16G 6G17G26G18G 2
  20804224.749   -20073589.50449 -15632741.74447  20804224.165    20804230.283
  24525899.432    -3137537.54449  -2422762.04545  24525899.604    24525908.192
  21395916.702   -18563321.87349 -14449958.44447  21395916.195    21395922.253
  23525433.854    -8962244.13349  -6963075.06245  23525433.532    23525440.405
  20628582.961    -5693274.14149  -4432962.03147  20628582.479    20628586.646
  24534195.082     6315986.86449   4927557.67245  24534194.830    24534201.969
  24012886.878    -3791744.91549  -2940110.21645  24012886.485    24012893.103
  22787660.438    11845336.77349   9229898.18446  22787660.301    22787667.539
  21364879.536     1010183.05849    787627.58147  21364879.022    21364885.543
  22303321.241    -5121045.88249  -3976572.02646  22303321.381    22303327.247
  20388300.156   -18280311.05149 -14224581.85148  20388299.814    20388304.285
  24927682.514    -4096912.36349  -3180797.30145  24927681.846    24927690.161
 03  6  7 18 43  0.0000000  0 11G15G14G23G 3G21G29G16G 6G17G26G18
  20795615.579   -20118831.04749 -15667994.88047  20795614.995    20795621.090
  24504140.673    -3251879.44249  -2511859.46645  24504140.917    24504149.368
  21388980.066   -18599773.95649 -14478362.64147  21388979.558    21388985.615
  23509237.517    -9047355.78549  -7029395.77545  23509237.154    23509244.078
  20632204.520    -5674242.64249  -4418132.30047  20632204.032    20632208.205
  24551179.804     6405242.13049   4997107.15845  24551179.672    24551186.772
  24023702.208    -3734909.59449  -2895822.99345  24023701.847    24023708.495
  22806894.198    11946410.92949   9308657.18846  22806894.086    22806901.405
  21372265.739     1048997.87949    817872.88247  21372265.259    21372271.746
  22317144.635    -5048403.81349  -3919967.83446  22317144.762    22317150.563
  20387557.387   -18284214.39049 -14227623.41448  20387557.048    20387561.525
 03  6  7 18 43 30.0000000  0 11G15G14G23G 3G21G29G16G 6G17G26G18
  20787047.636   -20163855.91749 -15703079.18347  20787047.057    20787053.143
  24482386.155    -3366199.26549  -2600939.67645  24482386.456    24482394.885
  21382105.991   -18635897.30149 -14506510.67247  21382105.486    21382111.567
  23493100.818    -9132154.19449  -7095472.40745  23493100.575    23493107.481
  20635882.177    -5654916.45149  -4403072.93047  20635881.716    20635885.852
  24568215.708     6494765.87549   5066865.87245  24568215.688    24568222.724
  24034574.189    -3677777.48149  -2851304.50245  24034573.822    24034580.372
  22826172.554    12047719.33649   9387598.72546  22826172.480    22826179.783
  21379701.300     1088071.64949    848319.96847  21379700.771    21379707.229
  22331065.296    -4975250.14849  -3862965.01246  22331065.495    22331071.274
  20386885.269   -18287746.43849 -14230375.65248  20386884.933    20386889.407
 03  6  7 18 44  0.0000000  0 11G15G14G23G 3G21G29G16G 6G17G26G18
  20778520.883   -20208664.13249 -15737994.66047  20778520.270    20778526.363
  24460636.190    -3480495.74549  -2690001.72445  24460636.524    24460644.827
  21375294.191   -18671693.51949 -14534403.80547  21375293.702    21375299.756
  23477024.129    -9216637.90249  -7161303.82045  23477023.805    23477030.705
  20639615.750    -5635296.23949  -4387784.46347  20639615.302    20639619.449
  24585301.972     6584554.50549   5136830.98845  24585301.849    24585309.010
  24045501.769    -3620352.50649  -2806557.84245  24045501.425    24045508.149
  22845494.780    12149258.36849   9466719.95446  22845494.734    22845502.120
  21387185.995     1127403.95649    878968.50347  21387185.460    21387191.926
  22345082.694    -4901588.68449  -3805566.49546  22345082.831    22345088.638
  20386283.392   -18290909.28649 -14232840.20748  20386283.060    20386287.514
 03  6  7 18 44 30.0000000  0 11G15G14G23G 3G21G29G16G 6G17G26G18
  20770035.609   -20253254.34249 -15772740.27147  20770035.034    20770041.132
  24438891.067    -3594766.10149  -2779043.46745  24438891.338    24438899.723
  21368544.591   -18707162.98249 -14562042.32147  21368544.075    21368550.134
  23461007.758    -9300804.17049  -7226887.88745  23461007.453    23461014.343
  20643405.399    -5615381.35449  -4372266.37547  20643404.928    20643409.116
  24602438.166     6674605.63249   5207000.62245  24602438.066    24602445.258
  24056484.641    -3562637.27949  -2761584.99945  24056484.373    24056491.000
  22864860.642    12251026.01249   9546019.32346  22864860.616    22864867.969
  21394719.990     1166995.29749    909818.88747  21394719.454    21394725.938
  22359196.199    -4827421.94849  -3747774.26346  22359196.330    22359202.149
  20385751.694   -18293703.48549 -14235017.50348  20385751.368    20385755.812
 03  6  7 18 45  0.0000000  0 11G15G14G23G 3G21G29G16G 6G17G26G18
  20761592.095   -20297625.41149 -15807315.11747  20761591.519    20761597.586
  24417151.351    -3709007.39849  -2868062.47045  24417151.568    24417160.157
  21361857.027   -18742306.01349 -14589426.47247  21361856.534    21361862.602
  23445052.153    -9384650.52249  -7292222.64345  23445051.878    23445058.866
  20647251.386    -5595170.61049  -4356517.74747  20647250.916    20647255.095
  24619623.828     6764916.91649   5277372.99545  24619623.809    24619630.745
  24067522.407    -3504634.48949  -2716388.07445  24067522.070    24067528.793
  22884269.566    12353019.81749   9625494.93046  22884269.540    22884276.880
  21402303.291     1206845.85749    940871.26047  21402302.784    21402309.241
  22373405.324    -4752752.56049  -3689590.34046  22373405.454    22373411.339
  20385289.950   -18296129.85549 -14236908.17448  20385289.608    20385294.073
 03  6  7 18 45 30.0000000  0 11G15G14G23G 3G21G29G16G 6G17G26G18
  20753190.520   -20341775.89949 -15841718.08347  20753189.936    20753196.025
  24395417.884    -3823216.98549  -2957056.79145  24395418.135    24395426.567
  21355231.666   -18777122.73349 -14616556.36247  21355231.141    21355237.172
  23429158.173    -9468174.39549  -7357306.13745  23429157.851    23429164.694
  20651153.829    -5574663.24649  -4340537.99147  20651153.344    20651157.553
  24636858.325     6855486.15849   5347946.37345  24636858.528    24636865.653
  24078614.149    -3446346.71149  -2670969.09045  24078613.783    24078620.717
  22903721.142    12455237.78149   9705145.20246  22903721.004    22903728.404
  21409936.137     1246956.57849    972126.35947  21409935.620    21409942.109
  22387709.730    -4677582.89149  -3631016.61146  22387709.851    22387715.746
  20384898.103   -18298189.19149 -14238512.85048  20384897.769    20384902.205
 03  6  7 18 46  0.0000000  0 11G15G14G23G 3G21G29G16G 6G17G26G18
  20744831.191   -20385704.57249 -15875948.20547  20744830.593    20744836.661
  24373690.945    -3937392.10049  -3046024.25445  24373691.066    24373699.549
  21348668.206   -18811613.72849 -14643432.43447  21348667.685    21348673.738
  23413325.806    -9551373.21849  -7422136.33245  23413325.582    23413332.397
  20655112.769    -5553858.85049  -4324326.77947  20655112.303    20655116.513
  24654141.643     6946310.72449   5418718.69145  24654141.833    24654148.939
  24089759.565    -3387776.80349  -2625330.26445  24089759.237    24089766.201
  22923214.855    12557677.72649   9784968.43446  22923214.719    22923222.179
  21417618.628     1287328.13149   1003584.69847  21417618.082    21417624.595
  22402108.775    -4601915.45449  -3572054.98446  22402108.903    22402114.865
  20384575.858   -18299882.61749 -14239832.39748  20384575.512    20384579.960
 03  6  7 18 46 30.0000000  0 11G15G14G23G 3G21G29G16G 6G17G26G18
  20736514.324   -20429409.91549 -15910004.30547  20736513.720    20736519.798
  24351971.279    -4051529.85649  -3134962.57145  24351971.131    24351979.752
  21342166.641   -18845779.49649 -14670055.08947  21342166.146    21342172.156
  23397556.008    -9634244.06849  -7486710.99245  23397555.719    23397562.532
  20659128.426    -5532756.50749  -4307883.40047  20659127.933    20659132.163
  24671473.348     7037388.38049   5489688.23645  24671473.375    24671480.529
  24100958.201    -3328927.40349  -2579473.62545  24100957.854    24100964.899
  22942750.366    12660337.24349   9864962.76646  22942750.195    22942757.729
  21425350.734     1327960.73949   1035246.46247  21425350.199    21425356.753
  22416602.039    -4525753.07449  -3512707.70046  22416602.089    22416608.102
  20384323.140   -18301210.79049 -14240867.33548  20384322.797    20384327.238
 03  6  7 18 47  0.0000000  0 11G15G14G23G 3G21G29G16G 6G17G26G18
  20728240.024   -20472891.56249 -15943886.09447  20728239.438    20728245.491
  24330259.274    -4165628.63149  -3223870.51645  24330258.913    24330267.370
  21335726.741   -18879621.14149 -14696425.17847  21335726.254    21335732.305
  23381848.932    -9716785.31049  -7551028.80345  23381848.614    23381855.399
  20663200.697    -5511356.48649  -4291208.06347  20663200.224    20663204.471
  24688852.589     7128715.82449   5560852.41445  24688852.513    24688859.522
  24112209.463    -3269802.10549  -2533402.01145  24112209.045    24112215.950
  22962326.983    12763213.17349   9945125.72246  22962326.942    22962334.469
  21433132.484     1368854.36649   1067111.61547  21433131.952    21433138.536
  22431188.793    -4449099.07649  -3452977.33946  22431188.841    22431194.900
  20384139.590   -18302175.25649 -14241618.86348  20384139.264    20384143.691
 03  6  7 18 47 30.0000000  0 11G15G14G23G 3G21G29G16G 6G17G26G18
  20720008.633   -20516147.77249 -15977592.22147  20720008.057    20720014.114
  24308555.292    -4279685.11749  -3312745.55445  24308554.967    24308562.994
  21329348.546   -18913138.74249 -14722542.76547  21329348.030    21329354.102
  23366205.082    -9798994.22349  -7615087.65745  23366204.834    23366211.497
  20667329.858    -5489657.65849  -4274299.89547  20667329.366    20667333.616
  24706278.704     7220291.01049   5632209.63945  24706278.679    24706285.681
  24123512.766    -3210403.24449  -2487117.24145  24123512.230    24123519.165
  22981944.531    12866303.46349  10025455.72146  22981944.461    22981952.030
  21440964.168     1410010.30849   1099181.17147  21440963.650    21440970.286
  22445868.690    -4371955.68749  -3392865.63346  22445868.738    22445874.817
  20384025.109   -18302776.69849 -14242087.51348  20384024.783    20384029.243
 03  6  7 18 48  0.0000000  0 11G15G14G23G 3G21G29G16G 6G17G26G18
  20711820.341   -20559177.53449 -16011121.89847  20711819.736    20711825.809
  24286859.643    -4393696.88849  -3401585.71945  24286859.108    24286867.316
  21323031.844   -18946333.06949 -14748408.45247  21323031.353    21323037.429
  23350624.901    -9880868.45049  -7678885.71345  23350624.650    23350631.254
  20671515.957    -5467659.50649  -4257158.48647  20671515.458    20671519.724
  24723751.447     7312111.32649   5703757.85245  24723751.612    24723758.587
  24134867.517    -3150733.86849  -2440621.66445  24134867.198    24134873.906
  23001602.465    12969605.59649  10105950.79246  23001602.352    23001609.989
  21448845.804     1451428.59049   1131455.14447  21448845.303    21448851.932
  22460641.097    -4294325.87949  -3332374.90546  22460641.252    22460647.302
  20383979.500   -18303016.30249 -14242274.21748  20383979.165    20383983.608
 03  6  7 18 48 30.0000000  0 11G15G14G23G 3G21G29G16G 6G17G26G18
  20703675.391   -20601979.52249 -16044474.08547  20703674.784    20703680.856
  24265172.953    -4507661.22349  -3490388.92545  24265172.321    24265180.553
  21316776.632   -18979204.46149 -14774022.50547  21316776.113    21316782.221
  23335108.957    -9962405.35749  -7742420.92945  23335108.700    23335115.324
  20675759.174    -5445361.15749  -4239783.15447  20675758.690    20675762.951
  24741270.654     7404174.45649   5775495.30945  24741270.595    24741277.589
  24146273.353    -3090796.67849  -2393917.41845  24146273.063    24146279.682
  23021300.202    13073117.36449  10186609.20146  23021300.085    23021307.748
  21456777.514     1493109.85449   1163934.03947  21456776.992    21456783.601
  22475505.606    -4216212.30649  -3271507.20746  22475505.772    22475511.817
  20384002.665   -18302894.69849 -14242179.45548  20384002.319    20384006.759
 03  6  7 18 49  0.0000000  0 11G15G14G23G 3G21G29G16G 6G17G26G18
  20695574.011   -20644552.49749 -16077647.82347  20695573.413    20695579.479
  24243495.781    -4621575.50249  -3579153.12345  24243495.178    24243503.070
  21310582.690   -19011753.62149 -14799385.46247  21310582.181    21310588.278
  23319657.522   -10043602.47849  -7805691.37345  23319657.288    23319664.021
  20680059.587    -5422762.38149  -4222173.73247  20680059.093    20680063.362
  24758835.549     7496477.86949   5847419.97945  24758835.425    24758842.404
  24157729.436    -3030594.71149  -2347006.83445  24157729.172    24157735.886
  23041037.386    13176836.27049  10267429.03846  23041037.211    23041044.837
  21464759.267     1535054.07849   1196617.83547  21464758.727    21464765.297
  22490461.645    -4137617.81849  -3210264.76746  22490461.847    22490467.851
  20384094.260   -18302413.33349 -14241804.36148  20384093.915    20384098.372
 03  6  7 18 49 30.0000000  0 11G15G14G23G 3G21G29G16G 6G17G26G18
  20687516.514   -20686894.93649 -16110641.91947  20687515.901    20687521.944
  24221828.470    -4735436.80449  -3667876.08545  24221827.818    24221835.879
  21304450.076   -19043980.81349 -14824497.53847  21304449.517    21304455.618
  23304271.334   -10124457.04449  -7868694.90045  23304271.129    23304277.828
  20684417.346    -5399862.13849  -4204329.38947  20684416.866    20684421.144
  24776445.695     7589019.11749   5919529.98045  24776445.554    24776452.453
  24169235.521    -2970130.43149  -2299891.86745  24169235.396    24169241.955
  23060813.461    13280760.22649  10348408.62546  23060813.441    23060821.018
  21472791.284     1577262.30049   1229507.34347  21472790.706    21472797.282
  22505508.754    -4058544.77749  -3148649.44946  22505508.950    22505514.988
  20384254.189   -18301572.65149 -14241149.28048  20384253.855    20384258.313
 03  6  7 18 50  0.0000000  0 11G15G14G23G 3G21G29G16G 6G17G26G18
  20679503.047   -20729006.02349 -16143455.74047  20679502.438    20679508.468
  24200171.682    -4849242.85649  -3756555.95645  24200171.160    24200179.094
  21298378.499   -19075886.92549 -14849359.41847  21298377.980    21298384.047
  23288950.708   -10204967.18249  -7931430.02645  23288950.545    23288957.263
  20688832.570    -5376660.21849  -4186249.98047  20688832.070    20688836.357
  24794100.303     7681795.44949   5991823.16045  24794100.181    24794107.468
  24180790.838    -2909406.98649  -2252574.95145  24180790.578    24180797.328
  23080628.146    13384886.33349  10429545.75746  23080628.023    23080635.612
  21480873.385     1619734.16749   1262602.28847  21480872.851    21480879.398
  22520646.318    -3978996.43949  -3086663.76246  22520646.471    22520652.522
  20384482.310   -18300373.83849 -14240215.13448  20384481.987    20384486.456
 03  6  7 18 50 30.0000000  0 11G15G14G23G 3G21G29G16G 6G17G26G18
  20671533.910   -20770884.01749 -16176087.93047  20671533.295    20671539.305
  24178526.007    -4962990.71249  -3845190.49545  24178525.495    24178533.323
  21292367.974   -19107472.22749 -14873971.32547  21292367.461    21292373.559
  23273696.273   -10285129.80249  -7993894.35745  23273696.106    23273702.817
  20693305.347    -5353155.78249  -4167934.84147  20693304.853    20693309.104
  24811799.405     7774804.74849   6064297.85945  24811799.449    24811806.653
  24192394.637    -2848427.06749  -2205058.23245  24192394.355    24192401.506
  23100480.905    13489212.70049  10510838.92646  23100480.799    23100488.403
  21489006.005     1662471.05249   1295903.73847  21489005.471    21489011.968
  22535873.817    -3898975.15249  -3024309.54046  22535873.978    22535880.038
  20384778.377   -18298817.88549 -14239002.70048  20384778.072    20384782.546
 03  6  7 18 51  0.0000000  0 11G15G14G23G 3G21G29G16G 6G17G26G18
  20663609.198   -20812528.56349 -16208538.21847  20663608.591    20663614.608
  24156891.841    -5076678.33349  -3933778.11245  24156891.352    24156898.857
  21286418.253   -19138738.01949 -14898334.26147  21286417.780    21286423.858
  23258508.311   -10364943.35949  -8056086.71045  23258508.100    23258514.640
  20697835.659    -5329348.76049  -4149383.92047  20697835.157    20697839.423
  24829542.503     7868043.97249   6136951.75245  24829542.366    24829549.535
  24204047.147    -2787194.01549  -2157344.23945  24204046.807    24204053.785
  23120371.195    13593736.23549  10592285.72646  23120371.050    23120378.713
  21497188.969     1705472.61849   1329411.43847  21497188.436    21497194.895
  22551190.844    -3818484.37149  -2961589.49846  22551190.895    22551196.950
  20385142.162   -18296906.31749 -14237513.16648  20385141.840    20385146.285
 03  6  7 18 51 30.0000000  0 11G15G14G23G 3G21G29G16G 6G17G26G18
  20655729.266   -20853937.86349 -16240805.19347  20655728.686    20655734.663
  24135269.717    -5190302.44249  -4022316.24945  24135269.371    24135276.947
  21280529.384   -19169684.28449 -14922448.21747  21280528.876    21280534.931
  23243387.237   -10444404.93649  -8118004.77745  23243386.998    23243393.552
  20702423.756    -5305238.21549  -4130596.49047  20702423.271    20702427.525
  24847328.646     7961510.91749   6209783.07745  24847328.682    24847335.705
  24215747.076    -2725710.17749  -2109434.82245  24215746.778    24215753.932
  23140298.554    13698454.81949  10673884.52146  23140298.365    23140306.060
  21505422.450     1748739.92949   1363126.19847  21505421.916    21505428.384
  22566596.563    -3737526.68549  -2898505.62546  22566596.670    22566602.758
  20385573.469   -18294639.80749 -14235747.05048  20385573.141    20385577.581
 03  6  7 18 52  0.0000000  0 11G15G14G23G 3G21G29G16G 6G17G26G18
  20647894.242   -20895111.17949 -16272888.28347  20647893.651    20647899.635
  24113660.096    -5303861.06449  -4110803.36445  24113659.541    24113667.342
  21274701.070   -19200312.23849 -14946314.13547  21274700.551    21274706.613
  23228333.477   -10523512.88849  -8179647.30245  23228333.250    23228339.760
  20707069.607    -5280823.97749  -4111572.41447  20707069.124    20707073.400
  24865157.620     8055202.57149   6282789.48645  24865157.440    24865164.719
  24227494.165    -2663979.09749  -2061332.74945  24227493.775    24227500.822
  23160262.521    13803365.61649  10755633.07146  23160262.294    23160270.009
  21513706.409     1792272.62449   1397047.75647  21513705.921    21513712.407
  22582090.592    -3656105.24149  -2835060.36946  22582090.634    22582096.762
  20386072.064   -18292019.71249 -14233705.41248  20386071.726    20386076.175
 03  6  7 18 52 30.0000000  0 10G15G14G23G 3G21G16G 6G17G26G18
  20640104.944   -20936044.27849 -16304784.19447  20640104.363    20640110.337
  24092064.032    -5417348.72949  -4199235.17345  24092063.562    24092071.401
  21268933.731   -19230619.72049 -14969930.33047  21268933.214    21268939.310
  23213348.157   -10602261.69149  -8241009.95645  23213347.844    23213354.335
  20711773.939    -5256102.64549  -4092309.04347  20711773.468    20711777.715
  24239288.010    -2602000.78449  -2013038.05145  24239287.820    24239295.028
  23180263.121    13908469.15649  10837531.83946  23180262.878    23180270.640
  21522041.634     1836074.40749   1431179.00547  21522041.131    21522047.571
  22597672.887    -3574220.04549  -2771253.75446  22597672.907    22597679.064
  20386638.257   -18289044.24849 -14231386.86148  20386637.924    20386642.356
 03  6  7 18 53  0.0000000  0 10G15G14G23G 3G21G16G 6G17G26G18
  20632361.107   -20976738.33449 -16336493.83747  20632360.514    20632366.493
  24070481.393    -5530765.11349  -4287611.42345  24070480.893    24070488.888
  21263226.811   -19260609.64649 -14993299.08947  21263226.315    21263232.435
  23198431.101   -10680651.09049  -8302092.56645  23198430.811    23198437.297
  20716536.383    -5231075.86649  -4072807.66447  20716535.891    20716540.148
  24251128.190    -2539780.69249  -1964554.92745  24251127.904    24251135.022
  23200299.548    14013760.52949  10919576.95046  23200299.227    23200307.019
  21530427.543     1880142.69549   1465517.91247  21530427.036    21530433.505
  22613342.376    -3491876.30049  -2707089.83346  22613342.359    22613348.587
  20387271.441   -18285716.76449 -14228794.01248  20387271.116    20387275.543
 03  6  7 18 53 30.0000000  0 10G15G14G23G 3G21G16G 6G17G26G18
  20624662.808   -21017193.12749 -16368017.03947  20624662.223    20624668.228
  24048912.636    -5644108.68849  -4375930.95645  24048912.275    24048920.179
  21257579.959   -19290283.91949 -15016421.87247  21257579.454    21257585.579
  23183582.691   -10758680.17449  -8362894.41546  23183582.320    23183588.861
  20721356.758    -5205744.53149  -4053068.97047  20721356.284    20721360.548
  24263013.738    -2477322.82649  -1915886.52145  24263013.424    24263020.609
  23220370.916    14119236.06749  11001765.56446  23220370.702    23220378.433
  21538864.082     1924476.87349   1500063.99847  21538863.565    21538870.038
  22629098.240    -3409078.19849  -2642571.86746  22629098.301    22629104.510
  20387971.144   -18282039.81849 -14225928.85748  20387970.811    20387975.233
 03  6  7 18 54  0.0000000  0 10G15G14G23G 3G21G16G 6G17G26G18
  20617010.311   -21057407.26549 -16399352.72047  20617009.721    20617015.735
  24027358.286    -5757376.54049  -4464191.48945  24027358.006    24027365.781
  21251993.133   -19319642.72649 -15039298.84047  21251992.662    21251998.740
  23168803.228   -10836346.10149  -8423413.28346  23168802.872    23168809.507
  20726235.277    -5180107.73949  -4033092.25147  20726234.836    20726239.069
  24274944.047    -2414629.67749  -1867034.77445  24274943.836    24274950.976
  23240477.013    14224893.68549  11084096.06146  23240476.762    23240484.556
  21547351.332     1969077.49549   1534817.71947  21547350.780    21547357.290
  22644940.172    -3325828.25049  -2577701.81646  22644940.284    22644946.468
  20388737.280   -18278013.78049 -14222791.68248  20388736.951    20388741.381
 03  6  7 18 54 30.0000000  0 10G15G14G23G 3G21G16G 6G17G26G18
  20609403.921   -21097379.08549 -16430499.58047  20609403.317    20609409.318
  24005818.960    -5870565.51549  -4552390.54945  24005818.648    24005826.569
  21246466.410   -19348686.02649 -15061929.96247  21246465.928    21246471.968
  23154093.496   -10913646.09049  -8483647.00446  23154093.205    23154099.845
  20731172.135    -5154164.39649  -4012876.66747  20731171.678    20731175.910
  24286918.537    -2351703.77549  -1818001.67445  24286918.216    24286925.393
  23260617.209    14330731.36949  11166566.85246  23260617.120    23260624.881
  21555889.374     2013945.55949   1569779.82747  21555888.889    21555895.401
  22660867.695    -3242128.83749  -2512481.54446  22660867.708    22660873.973
  20389569.691   -18273639.42949 -14219383.09448  20389569.355    20389573.774
 03  6  7 18 55  0.0000000  0 10G15G14G23G 3G21G16G 6G17G26G18
  20601843.862   -21137107.45849 -16461456.74347  20601843.281    20601849.270
  23984295.171    -5983673.32549  -4640526.38145  23984294.828    23984302.808
  21240999.451   -19377415.10849 -15084316.23847  21240998.942    21241004.954
  23139453.850   -10990578.11649  -8543594.00446  23139453.550    23139460.155
  20736167.433    -5127914.14049  -3992421.92747  20736166.970    20736171.174
  24298936.608    -2288548.53049  -1768789.87645  24298936.346    24298943.406
  23280791.351    14436746.28949  11249175.77046  23280791.273    23280798.992
  21564478.543     2059081.50549   1604950.67247  21564478.023    21564484.539
  22676880.102    -3157983.13749  -2446913.51546  22676880.152    22676886.418
  20390468.117   -18268918.22449 -14215704.23048  20390467.773    20390472.210
 03  6  7 18 55 30.0000000  0 10G15G14G23G 3G21G16G 6G17G26G18
  20594330.377   -21176590.93049 -16492223.07747  20594329.792    20594335.786
  23962787.390    -6096697.03349  -4728596.66445  23962787.038    23962794.943
  21235592.209   -19405830.39349 -15106458.00147  21235591.696    21235597.672
  23124884.697   -11067139.31249  -8603252.04046  23124884.396    23124891.012
  20741221.203    -5101356.36849  -3971727.56747  20741220.752    20741224.955
  24310997.813    -2225166.42549  -1719401.30045  24310997.347    24311004.415
  23300998.729    14542936.46449  11331921.25745  23300998.685    23301006.397
  21573118.721     2104485.79749   1640330.61247  21573118.191    21573124.749
  22692976.892    -3073393.88749  -2380999.85146  22692976.979    22692983.265
  20391432.374   -18263850.94249 -14211755.69548  20391432.035    20391436.475
 03  6  7 18 56  0.0000000  0 10G15G14G23G 3G21G16G 6G17G26G18
  20586863.757   -21215828.33049 -16522797.65947  20586863.181    20586869.157
  23941296.099    -6209633.72349  -4816599.15945  23941295.666    23941303.709
  21230244.571   -19433932.34349 -15128355.60547  21230244.048    21230249.976
  23110386.565   -11143327.25649  -8662619.22646  23110386.323    23110392.913
  20746333.698    -5074490.17449  -3950792.87447  20746333.232    20746337.452
  24323101.861    -2161560.18949  -1669838.04845  24323101.427    24323108.331
  23321239.003    14649299.62049  11414801.51445  23321238.992    23321246.717
  21581810.102     2150159.02349   1675920.12347  21581809.564    21581816.100
  22709157.692    -2988363.74349  -2314742.64046  22709157.807    22709164.027
  20392462.354   -18258438.35849 -14207538.09048  20392462.012    20392466.483
 03  6  7 18 56 30.0000000  0 10G15G14G23G 3G21G16G 6G17G26G18
  20579444.197   -21254818.47849 -16553179.58247  20579443.618    20579449.569
  23919821.930    -6322481.17349  -4904532.10845  23919821.452    23919829.533
  21224956.384   -19461721.95349 -15150009.83047  21224955.869    21224961.777
  23095959.900   -11219139.89049  -8721693.98546  23095959.680    23095966.209
  20751504.861    -5047315.70749  -3929617.97147  20751504.373    20751508.569
  24335247.728    -2097733.24149  -1620102.83445  24335247.239    24335254.180
  23341511.694    14755832.70649  11497814.18445  23341511.667    23341519.359
  21590552.579     2196100.94249   1711718.99347  21590552.052    21590558.556
  22725421.792    -2902896.03249  -2248144.46646  22725421.867    22725428.062
  20393557.757   -18252681.90849 -14203052.54348  20393557.424    20393561.859
 03  6  7 18 57  0.0000000  0 10G15G14G23G 3G21G16G 6G17G26G18
  20572071.925   -21293560.02349 -16583367.78947  20572071.341    20572077.286
  23898365.145    -6435236.60849  -4992393.34345  23898364.727    23898372.646
  21219727.502   -19489199.76549 -15171421.09147  21219726.999    21219732.912
  23081605.023   -11294575.00749  -8780474.57746  23081604.838    23081611.392
  20756734.808    -5019832.01549  -3908202.11447  20756734.332    20756738.539
  24347435.183    -2033688.18249  -1570197.67445  24347434.691    24347441.601
  23361816.243    14862533.38649  11580957.47745  23361816.181    23361823.878
  21599346.432     2242312.49849   1747727.96747  21599345.864    21599352.392
  22741768.551    -2816993.60749  -2181207.55846  22741768.581    22741774.828
  20394718.412   -18246582.56349 -14198299.80348  20394718.090    20394722.516
 03  6  7 18 57 30.0000000  0 10G15G14G23G 3G21G16G 6G17G26G18
  20564747.317   -21332051.12449 -16613360.84647  20564746.742    20564752.643
  23876926.546    -6547896.75649  -5080180.34045  23876926.158    23876933.917
  21214557.930   -19516365.82149 -15192589.43247  21214557.428    21214563.347
  23067322.529   -11369629.50649  -8838958.55346  23067322.326    23067328.937
  20762023.823    -4992038.00049  -3886544.44547  20762023.370    20762027.585
  24359663.757    -1969427.55649  -1520124.53445  24359663.216    24359670.197
  23382152.301    14969399.81249  11664229.88545  23382152.202    23382160.005
  21608191.655     2288794.26349   1783947.50547  21608191.081    21608197.593
  22758197.468    -2730658.80649  -2113933.74246  22758197.528    22758203.894
  20395944.227   -18240140.93649 -14193280.34748  20395943.912    20395948.318
 03  6  7 18 58  0.0000000  0 10G15G14G23G 3G21G16G 6G17G26G18
  20557470.515   -21370290.73249 -16643157.92947  20557469.960    20557475.846
  23855506.527    -6660459.15649  -5167891.16045  23855506.177    23855513.846
  21209447.470   -19543221.27849 -15213515.74547  21209446.975    21209452.942
  23053113.021   -11444301.30349  -8897144.34246  23053112.792    23053119.293
  20767371.908    -4963933.52149  -3864644.85847  20767371.468    20767375.687
  24371932.535    -1904954.47949  -1469885.81445  24371932.023    24371939.136
  23402519.414    15076429.15549  11747629.25045  23402519.323    23402527.056
  21617088.291     2335546.47549   1820377.76846  21617087.732    21617094.197
  22774707.958    -2643894.82849  -2046325.48846  22774708.188    22774714.618
  20397234.969   -18233358.17549 -14187995.07248  20397234.628    20397239.056
 03  6  7 18 58 30.0000000  0 10G15G14G23G 3G21G16G 6G17G26G18
  20550241.913   -21408277.50749 -16672758.00447  20550241.324    20550247.219
  23834105.667    -6772921.26549  -5255523.82745  23834105.232    23834112.824
  21204395.980   -19569766.96649 -15234200.68247  21204395.502    21204401.469
  23038976.723   -11518588.17749  -8955030.18946  23038976.488    23038982.921
  20772779.242    -4935517.77949  -3842502.72547  20772778.794    20772783.011
  24384241.088    -1840272.08349  -1419484.02245  24384240.422    24384247.849
  23422917.066    15183618.89649  11831153.61545  23422916.932    23422924.703
  21626036.440     2382569.19549   1857018.82747  21626035.897    21626042.407
  22791299.679    -2556704.72549  -1978385.18746  22791299.921    22791306.384
  20398590.300   -18226235.77449 -14182445.14648  20398589.970    20398594.403
 03  6  7 18 59  0.0000000  0 10G15G14G23G 3G21G16G 6G17G26G18
  20543061.568   -21446010.45549 -16702160.29047  20543060.985    20543066.876
  23812724.226    -6885280.83749  -5343076.58445  23812723.814    23812731.394
  21199403.207   -19596003.93149 -15254645.05747  21199402.759    21199408.727
  23024913.944   -11592488.29749  -9012614.65946  23024913.744    23024920.137
  20778245.769    -4906791.12749  -3820118.32647  20778245.280    20778249.525
  24396588.932    -1775383.73749  -1368921.77345  24396588.183    24396595.908
  23443344.547    15290966.25049  11914800.77745  23443344.530    23443352.352
  21635036.141     2429862.88949   1893871.02147  21635035.587    21635042.140
  22807972.026    -2469091.92149  -1910115.51246  22807972.179    22807978.565
  20400009.974   -18218775.20249 -14176631.71048  20400009.647    20400014.075
 03  6  7 18 59 30.0000000  0 10G15G14G23G 3G21G16G 6G17G26G18
  20535929.822   -21483487.97249 -16731363.54147  20535929.232    20535935.120
  23791362.924    -6997534.91449  -5430547.13745  23791362.474    23791369.982
  21194469.136   -19621932.48249 -15274849.10547  21194468.675    21194474.649
  23010925.261   -11665998.76749  -9069895.51146  23010925.068    23010931.480
  20783771.667    -4877752.58549  -3797490.90047  20783771.165    20783775.412
  24408975.624    -1710291.84549  -1318200.91645  24408975.058    24408982.596
  23463801.767    15398468.97749  11998569.01845  23463801.698    23463809.555
  21644087.524     2477428.30049   1930934.94946  21644086.990    21644093.524
  22824724.266    -2381058.82649  -1841518.34046  22824724.382    22824730.767
  20401493.909   -18210977.05949 -14170555.23048  20401493.590    20401497.996
 03  6  7 19  0  0.0000000  0 10G15G14G23G 3G21G16G 6G17G26G18
  20528846.819   -21520709.15849 -16760367.05447  20528846.255    20528852.137
  23770022.174    -7109681.07649  -5517933.61745  23770021.617    23770029.103
  21189593.567   -19647553.81149 -15294813.77047  21189593.110    21189599.068
  22997011.268   -11739117.55149  -9126871.16446  22997011.061    22997017.436
  20789356.912    -4848401.79249  -3774620.16047  20789356.418    20789360.677
  24421400.426    -1644999.78649  -1267324.05945  24421399.746    24421407.268
  23484288.045    15506124.40449  12082456.21645  23484287.866    23484295.803
  21653190.478     2525264.62749   1968209.98346  21653189.988    21653196.491
  22841555.761    -2292608.82649  -1772596.31046  22841555.880    22841562.277
  20403041.822   -18202842.71149 -14164216.77748  20403041.508    20403045.925
 03  6  7 19  0 30.0000000  0 10G15G14G23G 3G21G16G 6G17G26G18
  20521812.967   -21557672.39349 -16789169.56547  20521812.365    20521818.246
  23748702.423    -7221716.33749  -5605233.66545  23748701.946    23748709.370
  21184776.428   -19672868.14249 -15314539.20547  21184775.925    21184781.879
  22983172.104   -11811842.19349  -9183539.66946  22983171.901    22983178.387
  20795001.714    -4818738.12249  -3751505.61947  20795001.230    20795005.500
  24433862.769    -1579510.31049  -1216293.33545  24433862.148    24433869.412
  23504802.922    15613930.44649  12166460.80745  23504802.753    23504810.743
  21662345.292     2573373.28949   2005697.21446  21662344.791    21662351.361
  22858466.068    -2203744.68149  -1703351.56546  22858466.203    22858472.678
  20404653.519   -18194373.14349 -14157617.11048  20404653.193    20404657.596
 03  6  7 19  1  0.0000000  0 10G15G14G23G 3G21G16G 6G17G26G18
  20514828.440   -21594376.26049 -16817769.97047  20514827.860    20514833.729
  23727404.330    -7333638.10949  -5692445.27945  23727403.810    23727411.123
  21180017.507   -19697876.37849 -15334026.12647  21180017.029    21180022.947
  22969408.434   -11884170.58249  -9239899.42846  22969408.249    22969414.780
  20800706.160    -4788761.12049  -3728146.92047  20800705.681    20800709.951
  24446362.188    -1513826.40249  -1165111.14645  24446361.656    24446368.833
  23525345.970    15721884.47249  12250580.69045  23525345.842    23525353.833
  21671551.957     2621754.25149   2043396.63546  21671551.417    21671557.973
  22875454.579    -2114469.29849  -1633786.39346  22875454.742    22875461.228
  20406328.835   -18185569.36449 -14150757.02048  20406328.513    20406332.881
 03  6  7 19  1 30.0000000  0 10G15G14G23G 3G21G16G 6G17G26G18
  20507893.440   -21630820.01749 -16846167.69347  20507892.851    20507898.717
  23706128.333    -7445444.01049  -5779566.61545  23706127.809    23706134.978
  21175316.559   -19722579.77749 -15353275.51847  21175316.104    21175322.016
  22955720.511   -11956100.76649  -9295948.87746  22955720.286    22955726.891
  20806470.260    -4758470.56149  -3704543.89847  20806469.811    20806474.080
  24458897.849    -1447951.35249  -1113780.01345  24458897.318    24458904.625
  23545916.655    15829983.59949  12334813.65745  23545916.561    23545924.537
  21680810.439     2670407.78649   2081308.45546  21680809.878    21680816.436
  22892520.746    -2024786.12249  -1563903.44446  22892520.848    22892527.409
  20408067.434   -18176433.01749 -14143637.79148  20408067.109    20408071.470
 03  6  7 19  2  0.0000000  0 10G15G14G23G 3G21G16G 6G17G26G18
  20501008.344   -21667001.35749 -16874360.93747  20501007.738    20501013.631
  23684874.947    -7557130.42149  -5866594.83945  23684874.513    23684881.624
  21170673.737   -19746977.98749 -15372287.09147  21170673.268    21170679.164
  22942108.985   -12027629.42149  -9351685.45946  22942108.809    22942115.400
  20812294.253    -4727865.22849  -3680695.59647  20812293.799    20812298.072
  24471469.224    -1381887.14049  -1062301.50845  24471468.884    24471476.197
  23566514.584    15938226.42549  12419158.56845  23566514.612    23566522.687
  21690120.909     2719334.71549   2119433.31146  21690120.372    21690126.961
  22909664.069    -1934697.28249  -1493704.39246  22909664.239    22909670.799
  20409869.293   -18166964.23449 -14136259.51948  20409868.972    20409873.342
 03  6  7 19  2 30.0000000  0 10G15G14G23G 3G21G16G 6G17G26G18
  20494173.279   -21702919.75749 -16902349.29147  20494172.680    20494178.571
  23663644.649    -7668695.53849  -5953528.54245  23663644.210    23663651.460
  21166088.698   -19771072.69749 -15391062.17347  21166088.202    21166094.098
  22928574.123   -12098755.20949  -9407108.13046  22928573.949    22928580.599
  20818178.215    -4696944.93349  -3656601.86847  20818177.745    20818182.013
  24484076.147    -1315637.56049  -1010678.54345  24484075.867    24484083.044
  23587139.319    16046609.54149  12503612.82945  23587139.294    23587147.561
  21699483.375     2768534.95749   2157771.12446  21699482.841    21699489.481
  22926883.952    -1844206.41149  -1423192.07446  22926884.079    22926890.596
  20411734.026   -18157164.95749 -14128623.71848  20411733.711    20411738.063
 03  6  7 19  3  0.0000000  0 10G15G14G23G 3G21G16G 6G17G26G18
  20487388.485   -21738573.98349 -16930131.79447  20487387.876    20487393.769
  23642437.829    -7780137.02449  -6040365.90545  23642437.422    23642444.734
  21161561.171   -19794864.83149 -15409601.48447  21161560.716    21161566.585
  22915116.425   -12169475.86249  -9462215.08346  22915116.206    22915122.900
  20824122.036    -4665709.81849  -3632262.82247  20824121.610    20824125.858
  24496717.781    -1249205.82149   -958913.60445  24496717.495    24496724.739
  23607790.255    16155130.21449  12588174.25345  23607790.197    23607798.420
  21708897.940     2818009.00949   2196322.31046  21708897.453    21708904.106
  22944179.676    -1753316.92249  -1352369.14945  22944179.804    22944186.321
  20413661.418   -18147036.45049 -14120731.37448  20413661.097    20413665.473
 03  6  7 19  3 30.0000000  0 10G15G14G23G 3G21G16G 6G17G26G18
  20480654.304   -21773962.54149 -16957707.28847  20480653.688    20480659.565
  23621255.099    -7891451.69349  -6127104.46045  23621254.796    23621262.158
  21157091.174   -19818354.85949 -15427905.38947  21157090.681    21157096.560
  22901736.203   -12239788.87949  -9517004.40646  22901736.028    22901742.682
  20830125.985    -4634158.93849  -3607677.73247  20830125.544    20830129.813
  24509393.512    -1182594.77049   -907008.95545  24509393.180    24509400.518
  23628467.016    16263786.13949  12672841.08045  23628466.803    23628475.041
  21718364.600     2867756.55549   2235086.60246  21718364.119    21718370.798
  22961550.792    -1662031.38649  -1281237.61245  22961550.979    22961557.451
  20415651.256   -18136579.65249 -14112583.22148  20415650.939    20415655.322
 03  6  7 19  4  0.0000000  0 10G15G14G23G 3G21G16G 6G17G26G18
  20473970.886   -21809084.10749 -16985074.73147  20473970.265    20473976.146
  23600096.966    -8002637.10149  -6213742.29445  23600096.704    23600104.022
  21152678.518   -19841543.52349 -15445974.46147  21152678.016    21152683.920
  22888434.090   -12309691.87849  -9571474.25846  22888433.897    22888440.483
  20836190.087    -4602291.87949  -3582846.26847  20836189.656    20836193.929
  24522102.875    -1115807.17849   -854966.77345  24522102.491    24522109.677
  23649168.842    16372575.02549  12757611.48345  23649168.720    23649177.009
  21727883.457     2917778.35949   2274064.60546  21727882.940    21727889.670
  22978996.773    -1570352.90249  -1209799.88745  22978996.881    22979003.234
  20417703.415   -18125795.51649 -14104180.00048  20417703.088    20417707.492
 03  6  7 19  4 30.0000000  0 10G15G14G23G 3G21G16G 6G17G26G18
  20467338.466   -21843937.54849 -17012233.25547  20467337.867    20467343.746
  23578964.015    -8113690.62449  -6300277.35145  23578963.713    23578971.048
  21148322.997   -19864431.78949 -15463809.46247  21148322.491    21148328.421
  22875210.361   -12379182.85049  -9625623.03146  22875210.202    22875216.867
  20842314.414    -4570108.29649  -3557768.16447  20842313.986    20842318.253
  24534845.272    -1048845.98449   -802789.27445  24534844.940    24534851.975
  23669895.674    16481494.28849  12842483.47745  23669895.532    23669903.882
  21737454.504     2968074.54549   2313256.40246  21737454.004    21737460.779
  22996516.801    -1478284.74149  -1138058.51245  22996516.883    22996523.298
  20419817.567   -18114685.42549 -14095522.78748  20419817.245    20419821.669
 03  6  7 19  5  0.0000000  0 10G15G14G23G 3G21G16G 6G17G26G18
  20460757.359   -21878521.39649 -17039181.70347  20460756.763    20460762.634
  23557856.572    -8224609.78049  -6386707.70845  23557856.296    23557863.713
  21144024.462   -19887020.58449 -15481411.10647  21144023.987    21144029.912
  22862065.458   -12448259.97149  -9679449.32646  22862065.311    22862071.879
  20848499.035    -4537608.14049  -3532443.37547  20848498.565    20848502.835
  24547619.920     -981714.62149   -750479.19745  24547619.507    24547626.620
  23690646.831    16590541.18649  12927454.91945  23690646.637    23690654.852
  21747077.708     3018644.99549   2352661.91246  21747077.212    21747083.983
  23014110.432    -1385830.02549  -1066015.92345  23014110.463    23014116.952
  20421993.500   -18103250.94149 -14086612.80448  20421993.188    20421997.559
 03  6  7 19  5 30.0000000  0 10G15G14G23G 3G21G16G 6G17G26G18
  20454227.913   -21912833.83149 -17065918.66147  20454227.313    20454233.210
  23536775.435    -8335391.27649  -6473030.79345  23536775.150    23536782.496
  21139782.940   -19909309.98849 -15498779.46347  21139782.453    21139788.377
  22848999.823   -12516920.47549  -9732950.99746  22848999.607    22849006.117
  20854744.128    -4504789.96649  -3506870.78647  20854743.661    20854747.947
  24560426.601     -914415.46149   -698038.35945  24560426.161    24560433.094
  23711421.822    16699713.79749  13012524.32745  23711421.624    23711429.941
  21756753.427     3069491.09249   2392282.21146  21756752.933    21756759.662
  23031777.040    -1292991.12649   -993673.97645  23031777.132    23031783.694
  20424231.130   -18091492.29949 -14077450.22748  20424230.799    20424235.151
